[[{"header":{"parameterUnit":"m.s-1","parameterCategory":1,"la1":30.6,"la2":29.2853,"lo1":-89.7004,"lo2":-87.6739,"dy":0.0162,"dx":0.0183,"nx":112,"ny":82,"refTime":"2024-02-28T18:00:00:Z","depth":0,"parameterNumber":2,"parameterNumberName":"U-component_of_WINDS"},"data":[0.0,0.0,0.0,0.0,0.0,0.0,0.0,0.0,0.0,0.0,0.0,0.0,0.0,0.0,0.0,0.0,0.0,0.0,0.0,0.0,0.0,0.0,0.0,0.0,0.0,0.0,0.0,0.0,0.0,0.0,0.0,0.0,0.0,0.0,0.0,0.0,0.0,0.0,0.0,0.0,0.0,0.0,0.0,0.0,0.0,0.0,0.0,0.0,0.0,0.0,0.0,0.0,0.0,0.0,0.0,0.0,0.0,0.0,0.0,0.0,0.0,0.0,0.0,0.0,0.0,0.0,0.0,0.0,0.0,0.0,0.0,0.0,0.0,0.0,0.0,0.0,0.0,0.0,0.0,0.0,0.0,0.0,0.0,0.0,0.0,0.0,0.0,0.0,0.0,0.0,10.039,10.5898,11.4414,11.9804,12.039,11.6289,11.1992,10.789,0.0,0.0,0.0,0.0,0.0,0.0,0.0,0.0,0.0,0.0,0.0,0.0,0.0,0.0,0.0,0.0,0.0,0.0,0.0,0.0,0.0,0.0,0.0,0.0,0.0,0.0,0.0,0.0,0.0,0.0,0.0,0.0,0.0,0.0,0.0,0.0,0.0,0.0,0.0,0.0,0.0,0.0,0.0,0.0,0.0,0.0,0.0,0.0,0.0,0.0,0.0,0.0,0.0,0.0,0.0,0.0,0.0,0.0,0.0,0.0,0.0,0.0,0.0,0.0,0.0,0.0,0.0,0.0,0.0,0.0,0.0,0.0,0.0,0.0,0.0,0.0,0.0,0.0,0.0,0.0,0.0,0.0,0.0,0.0,0.0,0.0,0.0,0.0,0.0,0.0,0.0,0.0,0.0,0.0,0.0,0.0,0.0,0.0,0.0,0.0,0.0,0.0,0.0,0.0,10.3594,11.0195,11.6093,11.9414,11.8711,11.3398,10.8906,10.6093,0.0,0.0,0.0,0.0,0.0,0.0,0.0,0.0,0.0,0.0,0.0,0.0,0.0,0.0,0.0,0.0,0.0,0.0,0.0,0.0,0.0,0.0,0.0,0.0,0.0,0.0,0.0,0.0,0.0,0.0,0.0,0.0,0.0,0.0,0.0,0.0,0.0,0.0,0.0,0.0,0.0,0.0,0.0,0.0,0.0,0.0,0.0,0.0,0.0,0.0,0.0,0.0,0.0,0.0,0.0,0.0,0.0,0.0,0.0,0.0,0.0,0.0,0.0,0.0,0.0,0.0,0.0,0.0,0.0,0.0,0.0,0.0,0.0,0.0,0.0,0.0,0.0,0.0,0.0,0.0,0.0,0.0,0.0,0.0,0.0,0.0,0.0,0.0,0.0,0.0,0.0,0.0,0.0,0.0,0.0,0.0,0.0,0.0,0.0,0.0,0.0,0.0,0.0,10.1719,10.5508,11.1914,11.6015,11.7812,11.6992,11.1406,10.6797,10.4297,9.8711,0.0,0.0,0.0,0.0,0.0,0.0,0.0,0.0,0.0,0.0,0.0,0.0,0.0,0.0,0.0,0.0,0.0,0.0,0.0,0.0,0.0,0.0,0.0,0.0,0.0,0.0,0.0,0.0,0.0,0.0,0.0,0.0,0.0,0.0,0.0,0.0,0.0,0.0,0.0,0.0,0.0,0.0,0.0,0.0,0.0,0.0,0.0,0.0,0.0,0.0,0.0,0.0,0.0,0.0,0.0,0.0,0.0,0.0,0.0,0.0,0.0,0.0,0.0,0.0,0.0,0.0,0.0,0.0,0.0,0.0,0.0,0.0,0.0,0.0,0.0,0.0,0.0,0.0,0.0,0.0,0.0,0.0,0.0,0.0,0.0,0.0,0.0,0.0,0.0,0.0,0.0,0.0,0.0,0.0,0.0,0.0,0.0,0.0,0.0,0.0,0.0,0.0,10.3086,10.6406,11.1992,11.4687,11.5781,11.4883,10.8906,10.4414,10.2383,9.582,0.0,0.0,0.0,0.0,0.0,0.0,0.0,0.0,0.0,0.0,0.0,0.0,0.0,0.0,0.0,0.0,0.0,0.0,0.0,0.0,0.0,0.0,0.0,0.0,0.0,0.0,0.0,0.0,0.0,0.0,0.0,0.0,0.0,0.0,0.0,0.0,0.0,0.0,0.0,0.0,0.0,0.0,0.0,0.0,0.0,0.0,0.0,0.0,0.0,0.0,0.0,0.0,0.0,0.0,0.0,0.0,0.0,0.0,0.0,0.0,0.0,0.0,0.0,0.0,0.0,0.0,0.0,0.0,0.0,0.0,0.0,0.0,0.0,0.0,0.0,0.0,0.0,0.0,0.0,0.0,0.0,0.0,0.0,0.0,0.0,0.0,0.0,0.0,0.0,0.0,0.0,0.0,0.0,0.0,0.0,0.0,0.0,0.0,0.0,0.0,0.0,0.0,10.3086,10.5898,11.0312,11.2383,11.3086,11.2187,10.5195,10.0703,10.0508,9.3984,0.0,0.0,0.0,0.0,0.0,0.0,0.0,0.0,0.0,0.0,0.0,0.0,0.0,0.0,0.0,0.0,0.0,0.0,0.0,0.0,0.0,0.0,0.0,0.0,0.0,0.0,0.0,0.0,0.0,0.0,0.0,0.0,0.0,0.0,0.0,0.0,0.0,0.0,0.0,0.0,0.0,0.0,0.0,0.0,0.0,0.0,0.0,0.0,0.0,0.0,0.0,0.0,0.0,0.0,0.0,0.0,0.0,0.0,0.0,0.0,0.0,0.0,0.0,0.0,0.0,0.0,0.0,0.0,0.0,0.0,0.0,0.0,0.0,0.0,0.0,0.0,0.0,0.0,0.0,0.0,0.0,0.0,0.0,0.0,0.0,0.0,0.0,0.0,0.0,0.0,0.0,0.0,0.0,0.0,0.0,0.0,0.0,0.0,0.0,0.0,0.0,0.0,10.3281,10.6015,10.8711,11.1015,11.1211,10.8203,10.3203,9.9609,9.8047,0.0,0.0,0.0,0.0,0.0,0.0,0.0,0.0,0.0,0.0,0.0,0.0,0.0,0.0,0.0,0.0,0.0,0.0,0.0,0.0,0.0,0.0,0.0,0.0,0.0,0.0,0.0,0.0,0.0,0.0,0.0,0.0,0.0,0.0,0.0,0.0,0.0,0.0,0.0,0.0,0.0,0.0,0.0,0.0,0.0,0.0,0.0,0.0,0.0,0.0,0.0,0.0,0.0,0.0,0.0,0.0,0.0,0.0,0.0,0.0,0.0,0.0,0.0,0.0,0.0,0.0,0.0,0.0,0.0,0.0,0.0,0.0,0.0,0.0,0.0,0.0,0.0,0.0,0.0,0.0,0.0,0.0,0.0,0.0,0.0,0.0,0.0,0.0,0.0,0.0,0.0,0.0,0.0,0.0,0.0,0.0,0.0,0.0,0.0,0.0,0.0,0.0,9.8945,10.1797,10.4414,10.6914,10.8593,10.8281,10.5312,10.039,9.6953,9.5742,0.0,0.0,0.0,0.0,0.0,0.0,0.0,0.0,0.0,0.0,0.0,0.0,0.0,0.0,0.0,0.0,0.0,0.0,0.0,0.0,0.0,0.0,0.0,0.0,0.0,0.0,0.0,0.0,0.0,0.0,0.0,0.0,0.0,0.0,0.0,0.0,0.0,0.0,0.0,0.0,0.0,0.0,0.0,0.0,0.0,0.0,0.0,0.0,0.0,0.0,0.0,0.0,0.0,0.0,0.0,0.0,0.0,0.0,0.0,0.0,0.0,0.0,0.0,0.0,0.0,0.0,0.0,0.0,0.0,0.0,0.0,0.0,0.0,0.0,0.0,0.0,0.0,0.0,0.0,0.0,0.0,0.0,0.0,0.0,0.0,0.0,0.0,0.0,0.0,0.0,0.0,0.0,0.0,0.0,0.0,0.0,0.0,0.0,0.0,0.0,0.0,0.0,9.6992,9.8437,10.0586,10.5,10.4687,10.4219,10.4101,9.625,9.2031,0.0,0.0,0.0,0.0,0.0,0.0,0.0,0.0,0.0,0.0,0.0,0.0,0.0,0.0,0.0,0.0,0.0,0.0,0.0,0.0,0.0,0.0,0.0,0.0,0.0,0.0,0.0,0.0,0.0,0.0,0.0,0.0,0.0,0.0,0.0,0.0,0.0,0.0,0.0,0.0,0.0,0.0,0.0,0.0,0.0,0.0,0.0,0.0,0.0,0.0,0.0,0.0,0.0,0.0,0.0,0.0,0.0,0.0,0.0,0.0,0.0,0.0,0.0,0.0,0.0,0.0,0.0,0.0,0.0,0.0,0.0,0.0,0.0,0.0,0.0,0.0,0.0,0.0,0.0,0.0,0.0,0.0,0.0,0.0,0.0,0.0,0.0,0.0,0.0,0.0,0.0,0.0,0.0,0.0,0.0,0.0,0.0,0.0,0.0,0.0,0.0,0.0,0.0,9.4453,9.6797,9.9297,10.2383,10.3594,10.3203,10.0703,9.5429,9.2105,9.1877,0.0,0.0,0.0,0.0,0.0,0.0,0.0,0.0,0.0,0.0,0.0,0.0,0.0,0.0,0.0,0.0,0.0,0.0,0.0,0.0,0.0,0.0,0.0,0.0,0.0,0.0,0.0,0.0,0.0,0.0,0.0,0.0,0.0,0.0,0.0,0.0,0.0,0.0,0.0,0.0,0.0,0.0,0.0,0.0,0.0,0.0,0.0,0.0,0.0,0.0,0.0,0.0,0.0,0.0,0.0,0.0,0.0,0.0,0.0,0.0,0.0,0.0,0.0,0.0,0.0,0.0,0.0,0.0,0.0,0.0,0.0,0.0,0.0,0.0,0.0,0.0,0.0,0.0,0.0,0.0,0.0,0.0,0.0,0.0,0.0,0.0,0.0,0.0,0.0,0.0,0.0,0.0,0.0,0.0,0.0,0.0,0.0,0.0,0.0,0.0,0.0,0.0,9.2773,9.4726,9.707,10.0703,10.1719,10.1094,9.8672,9.4154,9.0747,8.905,0.0,0.0,0.0,0.0,0.0,0.0,0.0,0.0,0.0,0.0,0.0,0.0,0.0,0.0,0.0,0.0,0.0,0.0,0.0,0.0,0.0,0.0,0.0,0.0,0.0,0.0,0.0,0.0,0.0,0.0,0.0,0.0,0.0,0.0,0.0,0.0,0.0,0.0,0.0,0.0,0.0,0.0,0.0,0.0,0.0,0.0,0.0,0.0,0.0,0.0,0.0,0.0,0.0,0.0,0.0,0.0,0.0,0.0,0.0,0.0,0.0,0.0,0.0,0.0,0.0,0.0,0.0,0.0,0.0,0.0,0.0,0.0,0.0,0.0,0.0,0.0,0.0,0.0,0.0,0.0,0.0,0.0,0.0,0.0,0.0,0.0,0.0,0.0,0.0,0.0,0.0,0.0,0.0,0.0,0.0,0.0,0.0,0.0,0.0,0.0,0.0,0.0,9.1562,9.2383,9.4414,9.9531,9.9414,9.8633,9.7656,9.2754,8.8613,8.6026,0.0,0.0,0.0,0.0,0.0,0.0,0.0,0.0,0.0,0.0,0.0,0.0,0.0,0.0,0.0,0.0,0.0,0.0,0.0,0.0,0.0,0.0,0.0,0.0,0.0,0.0,0.0,0.0,0.0,0.0,0.0,0.0,0.0,0.0,0.0,0.0,0.0,0.0,0.0,0.0,0.0,0.0,0.0,0.0,0.0,0.0,0.0,0.0,0.0,0.0,0.0,0.0,0.0,0.0,0.0,0.0,0.0,0.0,0.0,0.0,9.748,0.0,0.0,0.0,0.0,0.0,0.0,0.0,0.0,0.0,0.0,0.0,0.0,0.0,0.0,0.0,0.0,0.0,0.0,0.0,0.0,0.0,0.0,0.0,0.0,0.0,0.0,0.0,0.0,0.0,0.0,0.0,0.0,0.0,0.0,0.0,0.0,0.0,0.0,0.0,0.0,0.0,8.8945,9.0742,9.3281,9.7773,9.8711,9.8398,9.6875,9.2443,8.8545,8.5844,8.0319,0.0,0.0,0.0,0.0,0.0,0.0,0.0,0.0,0.0,0.0,0.0,0.0,0.0,0.0,0.0,0.0,0.0,0.0,0.0,0.0,0.0,0.0,0.0,0.0,0.0,0.0,0.0,0.0,0.0,0.0,0.0,0.0,0.0,0.0,0.0,0.0,0.0,0.0,0.0,0.0,0.0,0.0,0.0,0.0,0.0,0.0,0.0,0.0,0.0,0.0,0.0,0.0,0.0,0.0,0.0,0.0,0.0,0.0,0.0,0.0,9.798,0.0,0.0,0.0,0.0,0.0,0.0,0.0,0.0,0.0,0.0,0.0,0.0,0.0,0.0,0.0,0.0,0.0,0.0,0.0,0.0,0.0,0.0,0.0,0.0,0.0,0.0,0.0,0.0,0.0,0.0,0.0,0.0,0.0,0.0,0.0,0.0,0.0,0.0,0.0,0.0,8.8164,8.9844,9.2344,9.664,9.7851,9.7695,9.6015,9.1987,8.8068,8.458,7.9605,0.0,0.0,0.0,0.0,0.0,0.0,0.0,0.0,0.0,0.0,0.0,0.0,0.0,0.0,0.0,0.0,0.0,0.0,0.0,0.0,0.0,0.0,0.0,0.0,0.0,0.0,0.0,0.0,0.0,0.0,0.0,0.0,0.0,0.0,0.0,0.0,0.0,0.0,0.0,0.0,0.0,0.0,0.0,0.0,0.0,0.0,0.0,0.0,0.0,0.0,0.0,0.0,0.0,10.4905,10.5905,10.7713,10.7713,10.7485,10.6795,10.2478,9.8927,9.6275,9.7441,0.0,0.0,0.0,0.0,0.0,0.0,0.0,0.0,0.0,0.0,0.0,0.0,0.0,0.0,0.0,0.0,0.0,0.0,0.0,0.0,0.0,0.0,0.0,0.0,8.3633,8.2031,0.0,0.0,0.0,0.0,0.0,0.0,0.0,0.0,0.0,0.0,0.0,0.0,8.7344,8.8945,9.1289,9.5195,9.6601,9.664,9.5117,9.1418,8.7468,8.347,7.9229,7.5515,0.0,0.0,0.0,0.0,0.0,0.0,0.0,0.0,0.0,0.0,0.0,0.0,0.0,0.0,0.0,0.0,0.0,0.0,0.0,0.0,0.0,0.0,0.0,0.0,0.0,0.0,0.0,0.0,0.0,0.0,0.0,0.0,9.321,9.4634,0.0,0.0,0.0,0.0,0.0,0.0,0.0,0.0,0.0,0.0,0.0,0.0,0.0,10.5713,10.8983,10.879,10.8482,10.829,10.8983,10.879,10.7713,10.7713,10.7793,10.7913,10.6692,0.0,10.0819,9.8792,0.0,0.0,0.0,0.0,0.0,0.0,0.0,0.0,0.0,0.0,0.0,0.0,0.0,0.0,0.0,0.0,0.0,0.0,0.0,0.0,0.0,0.0,8.2461,8.1836,8.1406,8.0976,0.0,8.1211,8.207,8.1328,8.0547,0.0,0.0,0.0,0.0,0.0,0.0,0.0,8.4101,8.6953,8.9687,9.1758,9.4101,9.5117,9.414,9.052,8.7079,8.431,7.8421,7.4514,7.3399,7.1014,0.0,0.0,0.0,0.0,0.0,0.0,0.0,0.0,0.0,0.0,0.0,0.0,0.0,0.0,0.0,0.0,0.0,0.0,0.0,0.0,0.0,0.0,0.0,0.0,0.0,0.0,0.0,0.0,0.0,9.5134,9.5942,9.5749,9.7326,9.825,0.0,0.0,0.0,0.0,0.0,0.0,0.0,0.0,0.0,10.6097,10.6905,10.8213,11.0214,11.0214,11.0714,11.1791,11.2599,11.3214,11.3407,11.3984,11.4181,11.4036,11.35,11.0915,10.6687,10.229,9.9362,9.7366,0.0,0.0,0.0,0.0,9.3385,9.3941,9.3076,9.2715,0.0,9.2233,0.0,0.0,0.0,0.0,0.0,0.0,0.0,0.0,0.0,0.0,8.2812,8.1953,8.1719,8.164,8.125,8.0976,8.0742,0.0,8.0351,8.0547,8.0937,0.0,0.0,0.0,0.0,8.1523,8.3359,8.6172,8.8672,9.039,9.2461,9.3398,9.25,8.9311,8.6282,8.3731,7.8459,7.463,7.2822,7.0783,6.9283,0.0,0.0,0.0,0.0,0.0,0.0,0.0,0.0,0.0,0.0,0.0,0.0,0.0,0.0,0.0,0.0,0.0,0.0,0.0,0.0,0.0,0.0,0.0,0.0,0.0,0.0,0.0,0.0,9.7134,9.798,9.6749,9.9058,10.0096,0.0,0.0,0.0,0.0,0.0,0.0,10.4097,10.6405,10.8521,11.0214,11.0406,11.1214,11.2483,11.2483,11.3483,11.5599,11.6292,11.7407,11.8908,11.953,11.9607,11.9107,11.8491,11.5779,11.1405,10.5807,10.1327,9.7712,9.5808,9.4853,9.4364,9.3103,9.3477,9.447,9.3551,9.3671,9.3867,9.1914,0.0,8.9297,8.7422,0.0,0.0,0.0,0.0,8.5469,8.3711,8.3281,8.3086,8.2461,8.2148,8.2031,8.2265,8.0937,7.9687,0.0,7.9883,8.0117,8.0312,0.0,0.0,0.0,0.0,8.039,8.2344,8.5078,8.7383,8.8867,9.0586,9.1322,9.0641,8.8053,8.535,8.2738,7.8459,7.4861,7.2322,7.0239,6.8761,6.7917,0.0,0.0,0.0,0.0,0.0,0.0,0.0,0.0,0.0,0.0,0.0,0.0,0.0,0.0,0.0,0.0,0.0,0.0,0.0,0.0,0.0,0.0,0.0,0.0,0.0,0.0,0.0,0.0,0.0,9.7442,10.0404,0.0,0.0,0.0,0.0,10.2212,10.4713,10.679,10.8482,11.0291,11.2022,11.3714,11.4484,11.6176,11.86,11.8715,11.91,11.9985,11.9985,12.0677,12.187,12.1108,12.06,12.0331,11.9492,11.7207,11.349,10.8328,10.4328,10.1097,9.8061,9.7457,9.8019,9.5557,9.4363,9.3824,9.2965,9.2147,9.1484,9.1328,9.0156,8.8281,8.5781,8.6172,0.0,0.0,8.4961,8.457,8.2812,8.2383,8.2344,8.2304,8.1679,8.1289,8.2109,8.0937,7.9687,0.0,7.8437,7.7656,7.8476,0.0,7.7578,7.8476,7.9258,7.9765,7.9883,8.289,8.539,8.6289,8.789,8.8791,8.8566,8.6687,8.4398,8.1629,7.8006,7.4861,7.2322,6.9284,6.7305,6.6504,6.4355,0.0,0.0,0.0,0.0,0.0,0.0,0.0,0.0,0.0,0.0,0.0,0.0,0.0,0.0,0.0,0.0,0.0,0.0,0.0,0.0,0.0,0.0,0.0,0.0,0.0,0.0,0.0,0.0,10.3905,10.6597,0.0,10.579,10.529,10.5482,10.6597,10.7982,11.0098,11.2906,11.4099,11.6292,11.96,11.9485,12.0292,12.2293,12.1793,12.1908,12.2716,12.1677,12.1677,12.2917,12.2194,12.1308,12.0361,12.0307,11.8198,11.4608,11.1311,10.7172,10.2598,9.8353,9.6587,9.6161,9.4134,9.3959,9.4687,9.4375,9.4453,9.4101,9.0703,8.7734,8.5156,8.3672,8.3672,8.4023,8.3398,8.3242,8.3086,8.2461,8.2304,8.2304,8.2304,8.207,8.1758,8.1523,8.0547,7.9531,7.9023,7.8437,7.8281,7.914,7.7656,7.6836,7.8281,7.8281,7.8476,7.957,8.1661,8.3581,8.5036,8.6062,8.6611,8.6514,8.5265,8.3332,8.0722,7.7699,7.4696,7.1803,6.9049,6.6831,6.5151,6.3272,6.1544,0.0,0.0,0.0,0.0,0.0,0.0,0.0,0.0,0.0,0.0,0.0,0.0,0.0,0.0,0.0,0.0,0.0,0.0,0.0,0.0,0.0,0.0,0.0,0.0,0.0,0.0,10.6982,10.879,11.1214,11.2214,11.0791,11.0098,11.0214,11.0983,11.2406,11.4407,11.7292,11.8215,11.9985,12.2793,12.2601,12.2985,12.4101,12.3601,12.3601,12.4101,12.2716,12.2485,12.3417,12.2527,12.1482,12.0603,12.0509,11.8499,11.5193,11.2619,10.878,10.4292,9.9952,9.75,9.6328,9.4844,9.5039,9.6015,9.5742,9.5234,9.4062,9.0039,8.6406,8.3437,8.2578,8.2304,8.2304,8.2304,8.2304,8.2304,8.2304,8.2304,8.2304,8.2304,8.1836,8.1445,8.1445,8.0078,7.8945,7.9297,7.8906,7.8594,7.8828,7.7461,7.6836,7.8281,7.7693,7.7794,7.9773,8.0864,8.2119,8.3894,8.4417,8.4626,8.457,8.3912,8.217,7.9044,7.6632,7.3833,7.0451,6.7956,6.5766,6.3764,6.1128,5.9206,5.8099,0.0,0.0,0.0,0.0,0.0,0.0,0.0,0.0,0.0,0.0,0.0,0.0,0.0,0.0,0.0,0.0,0.0,0.0,0.0,0.0,0.0,0.0,0.0,10.152,10.5905,10.979,11.1522,11.3984,11.4484,11.2099,11.3291,11.4599,11.5484,11.7792,11.9985,12.1677,12.2485,12.2985,12.3101,12.3793,12.4216,12.4216,12.4101,12.4101,12.4101,12.3293,12.3216,12.3725,12.1992,12.1094,12.0781,11.9883,11.8086,11.539,11.1992,10.8991,10.6295,10.2889,10.0508,9.8906,9.8008,9.7695,9.7578,9.6797,9.4258,9.1054,8.9297,8.6406,8.3476,8.2578,8.2304,8.2304,8.2304,8.2304,8.2304,8.2304,8.2304,8.2304,8.2304,8.1015,8.0234,8.1875,7.9609,7.8008,8.039,7.9609,7.8203,7.7343,7.7187,7.7421,7.8242,7.7515,0.0,8.0285,8.0445,8.1019,8.2794,8.2978,8.2901,8.2701,8.2663,8.0849,7.6649,7.4819,7.22,6.8299,6.5999,6.401,6.2295,5.7876,5.517,5.4319,0.0,0.0,0.0,0.0,0.0,0.0,0.0,0.0,0.0,0.0,0.0,0.0,0.0,0.0,0.0,0.0,0.0,0.0,0.0,0.0,0.0,0.0,10.3597,10.4789,10.9906,11.4407,11.6715,11.8715,11.96,11.8908,11.8715,11.9215,12.0716,12.1485,12.3101,12.5986,12.4601,12.4601,12.6524,12.5601,12.5293,12.5986,12.4716,12.4409,12.4986,12.2908,12.2293,12.2793,12.1682,12.0704,11.9883,11.8984,11.7187,11.4609,11.1797,10.869,10.5503,10.1983,9.9961,9.8906,9.8008,9.7695,9.7578,9.6797,9.4648,9.1836,8.9453,8.6797,8.4258,8.2773,8.2304,8.2304,8.2304,8.2304,8.2304,8.2304,8.2304,8.2304,8.2304,8.1914,8.1367,8.0586,7.9687,7.8867,7.8359,7.8398,7.818,7.717,7.6458,7.5871,7.5296,7.5517,0.0,7.8421,7.8998,8.0134,8.2471,8.2593,8.2477,8.2401,8.1862,7.9984,7.6325,7.3647,7.0449,6.656,6.4275,6.1862,5.9272,5.6801,5.4663,0.0,0.0,0.0,0.0,0.0,0.0,0.0,0.0,0.0,0.0,0.0,0.0,0.0,0.0,0.0,0.0,0.0,0.0,0.0,0.0,0.0,0.0,10.4097,10.7482,11.0214,11.4214,11.7984,12.0908,12.2408,12.3178,12.3178,12.2716,12.2985,12.4409,12.4486,12.5293,12.7294,12.5986,12.5909,12.7409,12.6486,12.6294,12.7217,12.5486,12.4793,12.4986,12.2793,12.1908,12.21,12.0883,12.0076,0.0,11.8281,11.6289,11.3789,11.1093,10.8008,0.0,0.0,0.0,0.0,0.0,9.7695,9.7539,9.6367,9.4492,9.2109,8.914,8.6719,8.457,8.2812,8.2304,8.2304,8.2304,8.2304,8.2304,8.2304,8.2304,8.2304,8.2304,8.2031,8.1562,8.0937,7.9961,7.9023,7.8359,7.8026,0.0,7.6397,7.6185,7.6019,7.57,7.5371,7.5918,7.7997,7.8207,7.8861,8.0708,8.0785,8.0708,8.0708,7.9977,0.0,0.0,0.0,6.8149,6.3663,6.1565,0.0,0.0,0.0,5.3463,5.1102,0.0,0.0,0.0,4.9189,4.8379,0.0,0.0,0.0,0.0,0.0,0.0,0.0,0.0,0.0,0.0,0.0,0.0,0.0,0.0,0.0,0.0,10.7982,11.2291,11.6599,11.8908,12.1216,12.4101,12.5101,12.5486,12.5486,12.5486,12.5794,12.6794,12.6794,12.6986,12.7178,0.0,0.0,0.0,0.0,12.6986,12.7602,12.5986,12.4986,12.4409,12.2716,12.1831,12.1485,11.99,11.919,11.9218,11.7617,11.539,11.2695,11.0195,10.6992,10.3594,10.1914,10.0312,9.875,9.8008,9.7656,9.7344,9.5742,0.0,0.0,8.8594,8.6328,8.457,8.2812,8.2304,8.2304,8.2304,8.2304,8.2304,8.2304,8.2304,8.2304,8.2304,8.1719,8.1328,8.1992,8.0268,7.8774,7.9399,7.8076,7.6508,7.5426,7.5979,7.6696,7.7207,7.588,7.5697,7.8045,7.7707,7.7592,7.84,0.0,0.0,7.8361,7.763,7.5787,7.2601,6.9321,6.5295,6.032,5.8684,5.7464,5.6585,5.423,5.191,4.9686,4.8188,4.7404,4.7335,4.8695,4.8822,0.0,0.0,0.0,0.0,0.0,0.0,0.0,0.0,0.0,0.0,0.0,0.0,0.0,0.0,0.0,10.7213,11.1483,11.5984,12.0985,12.4293,12.6217,12.6178,12.6294,12.6409,12.6409,12.5794,12.5986,12.7602,12.7717,12.8602,13.0602,12.8794,12.7986,12.8717,12.7409,12.6409,12.5909,12.4909,12.4101,12.3485,0.0,0.0,12.0639,11.9592,11.8491,11.7383,11.6484,11.4218,11.1015,10.8984,10.539,10.1015,9.9922,9.8867,9.7929,9.7773,9.7304,9.6601,9.5547,9.3594,9.1094,8.8398,8.6328,8.457,8.2812,8.2304,0.0,8.2304,8.2304,8.2304,8.2304,8.2304,8.2304,8.2304,8.2187,8.1914,8.1367,8.0195,7.9076,7.8588,7.7486,7.6323,7.5233,7.4692,7.4148,7.3388,7.3553,7.4207,7.5361,7.6553,7.7592,7.84,7.8477,7.8246,7.7592,7.6746,7.4793,7.1439,6.6117,6.1728,5.8593,5.7595,5.6464,5.5064,5.2716,5.0688,4.8981,4.7381,4.6637,4.6589,4.6873,4.6561,0.0,0.0,0.0,0.0,0.0,0.0,0.0,0.0,0.0,0.0,0.0,9.8673,10.0404,0.0,10.6905,11.0291,11.4407,11.8715,12.2908,12.6024,12.7909,12.7909,12.7986,12.7794,12.7294,12.6909,12.7217,12.8486,12.8602,12.9294,13.0987,12.9102,12.8294,12.9217,12.7178,12.6101,12.6217,12.4601,12.3524,12.3091,12.1399,12.0382,11.9987,11.9092,11.8091,11.6992,11.6093,11.3789,11.0312,10.6914,10.3398,10.0195,9.9336,9.8476,9.7695,9.7695,9.7187,9.6367,9.5508,9.3203,9.0312,8.8203,8.6015,8.4023,8.2695,8.2304,8.2304,8.2304,8.2304,8.2304,8.2304,8.2304,8.2304,8.2304,8.2304,8.2139,8.1611,8.0384,7.9259,7.8758,7.7112,7.5624,7.5099,7.3542,7.2437,7.2783,7.286,7.3168,7.4014,7.4861,7.5553,7.5938,7.6015,7.5822,7.5438,7.3437,7.0719,6.7254,6.3407,6.0302,5.8079,5.6952,5.5627,5.405,5.1792,4.9661,4.7732,4.6256,4.5439,4.5369,4.464,4.4436,0.0,0.0,0.0,0.0,0.0,0.0,0.0,10.1597,10.1019,9.9981,10.0981,10.252,10.3789,10.7982,11.1791,11.3599,11.7484,12.1408,12.4409,12.6909,12.8717,12.9602,12.941,12.8909,12.8217,12.8025,12.8294,12.9102,12.941,12.9794,13.0679,12.9102,12.8409,12.9025,12.6717,12.5794,12.6475,12.4409,12.317,12.2697,12.1207,12.0091,11.9609,11.8515,11.7617,11.6718,11.5,11.25,10.9218,10.4414,10.1484,9.9961,9.9101,9.832,9.7695,9.7539,9.6953,9.6094,9.5078,9.2539,8.9453,8.7773,8.5586,8.3437,8.2578,8.2304,8.2304,8.2304,8.2304,8.2304,8.2304,8.2304,8.2303,8.2232,8.2104,8.1948,8.1722,8.0309,7.8951,7.8604,7.6496,7.462,7.4273,7.2245,7.1206,7.2783,7.2245,7.1975,7.2668,7.2899,7.3053,7.3245,7.3091,7.2832,7.2429,6.9519,6.6353,6.3011,6.1392,5.9773,5.8079,5.6454,5.4828,5.3207,5.0768,4.8377,4.6323,4.4852,4.4102,4.3991,4.2513,4.2466,11.3483,11.0291,10.5905,10.3405,10.2212,10.1212,0.0,10.0289,10.1712,10.2981,10.3982,10.5597,10.879,11.2291,11.5484,11.7984,12.1908,12.5293,12.7217,12.9102,13.0487,13.1295,13.0102,12.9217,12.9102,12.8409,12.8294,12.9102,12.991,13.0718,13.1487,12.9987,12.8909,12.8475,12.6832,12.5332,12.4216,12.3918,12.3104,12.1793,12.0908,12.0091,11.9492,11.789,11.6718,11.5703,11.0898,10.7812,10.5781,10.2109,10.0,9.9062,9.8203,9.7773,9.7617,9.6914,9.6094,9.5117,9.3476,9.1133,8.8554,8.6875,8.5117,8.3437,8.2578,8.2304,8.2304,8.2304,8.2304,8.2304,8.2304,8.2304,8.2237,8.2088,8.1412,8.0793,8.0608,7.9138,7.7574,7.6765,7.5005,7.3168,7.1629,7.0514,7.0129,7.1052,7.0514,7.0014,7.0129,7.0744,7.1475,7.2245,7.1668,7.0441,6.8502,6.6636,6.4377,6.1606,6.0591,5.9446,5.8079,5.5929,5.4029,5.2552,4.902,4.6418,4.4856,4.3288,4.2543,4.2494,4.0988,4.0715,10.9406,10.729,10.5213,10.3097,10.3097,10.3597,10.3905,10.4905,10.5905,10.6713,10.829,11.0406,11.3291,11.71,12.0216,0.0,12.4716,12.7294,12.8486,12.9294,12.9717,12.9487,12.7986,12.7602,12.9102,12.8909,12.8794,12.9217,12.9987,13.0602,13.0987,12.9602,12.8409,12.7668,12.618,12.5021,12.4091,12.3625,12.2582,12.1189,12.0916,12.0018,11.8789,11.7617,11.5703,11.3281,10.9609,10.6992,10.5312,10.2304,10.0508,9.9609,9.8242,9.7422,9.6953,9.6601,9.5937,9.4961,9.3203,9.0586,8.7812,8.6601,8.4687,8.2773,8.2422,8.2304,8.2304,8.2304,8.221,8.2124,8.2124,8.165,8.1176,8.1078,8.0422,7.9741,7.9531,7.8104,7.6573,7.5543,7.3514,7.1629,7.0398,6.909,6.8282,6.8629,6.8821,6.8936,6.8936,6.9244,6.9398,6.9244,6.8898,6.7801,6.5689,6.4367,6.2796,6.0625,5.9275,5.8174,5.7299,5.4295,5.1934,5.0424,4.7217,4.4756,4.3234,4.2185,4.1432,4.0988,3.9896,3.8739,10.729,10.6097,10.579,10.4405,10.4905,10.629,10.7982,10.9213,11.0098,11.0906,11.2791,11.5099,11.7176,12.0908,12.3793,12.4409,12.6794,12.8794,12.9487,12.9102,12.8409,12.7294,12.5101,12.4486,12.6717,12.7717,12.8294,12.8486,12.9487,13.0102,13.0102,12.8794,12.7708,12.6904,12.5283,12.4295,12.3733,12.2915,12.1784,12.0508,12.0508,11.9804,11.8281,11.6914,11.4414,11.1093,10.8711,10.6406,10.4297,10.2109,10.0586,9.9453,9.8203,9.7226,9.6445,9.5976,9.5234,9.4219,9.2226,8.9609,8.6953,8.5859,8.4023,8.2304,8.2304,8.2304,8.2303,8.2241,8.2087,8.1932,8.1624,8.1001,8.032,8.0048,7.9183,7.8314,7.8083,7.6698,7.5159,7.3899,7.1783,6.9898,6.8821,6.7205,6.6051,6.6051,6.659,6.7167,6.7667,6.7705,6.7282,6.6167,6.6166,6.5245,6.2871,6.1988,6.0748,5.8888,5.7431,5.6483,5.6124,5.2533,4.9962,4.8661,4.5561,4.3301,4.1982,4.1028,4.0308,3.9754,3.8464,3.6927,10.929,10.879,10.8598,10.779,10.7598,10.8098,10.9713,11.1406,11.3291,11.5792,11.7677,11.9215,11.9985,12.2985,12.5293,12.5409,12.8217,13.041,13.0487,12.8986,12.7294,12.5678,12.1793,11.9792,12.0908,12.3793,12.5909,12.6678,12.8294,12.9217,12.9217,12.7909,12.6907,12.6291,12.4168,12.2789,12.2302,12.1405,12.0506,11.9609,11.9609,11.9218,11.8203,11.5703,11.2695,10.9297,10.75,10.4804,10.1601,10.0703,9.9336,9.7773,9.7734,9.7226,9.6289,9.4609,9.3437,9.2304,8.9726,8.7695,8.5976,8.4258,8.3047,8.2304,8.2304,8.2304,8.2242,8.2056,8.2001,8.1778,8.0731,8.0414,8.0145,7.9105,7.7574,7.6342,7.613,7.4784,7.3091,7.136,6.9629,6.7936,6.6282,6.4589,6.3435,6.3435,6.3435,6.4089,6.5743,6.5974,6.532,6.3589,6.3761,6.2833,5.9904,5.9178,5.8033,5.5882,5.4957,5.4473,5.4473,5.0915,4.8564,4.7761,4.4165,4.1982,4.1238,3.9714,3.8941,3.8887,3.6445,3.5254,10.9406,10.9713,11.0714,11.1021,11.2291,11.3984,11.5715,11.6984,11.7984,11.8792,11.86,11.8484,11.9292,12.0908,12.2408,12.3601,12.6601,12.8986,12.9602,12.9602,12.7717,12.2601,12.1293,11.9715,11.6792,11.9523,12.2601,12.536,12.6129,12.6937,12.8091,12.6783,12.5974,12.579,12.4203,12.298,12.2187,12.1289,12.0508,11.9609,11.8398,11.7383,11.6601,11.3984,11.1211,10.8281,10.6601,10.4609,10.2383,10.0898,9.9961,9.9258,9.7578,9.6367,9.5351,9.3047,9.125,8.9804,8.8398,8.6797,8.5156,8.3984,8.3008,8.2304,8.2304,8.2221,8.2117,8.2044,8.1393,8.0662,8.0277,7.9276,7.8122,7.7169,7.6053,7.5053,7.4476,7.2976,7.1437,7.0321,6.8282,6.6281,6.4834,6.359,6.2739,6.242,6.2919,6.3399,6.3657,6.3705,6.2968,6.1012,6.0893,5.9983,5.7566,5.6743,5.5872,5.4883,5.3555,5.2621,5.2154,4.9041,4.6742,4.5614,4.2963,4.1204,4.046,3.9448,3.8635,3.8133,3.6137,3.4368,11.0021,11.1983,11.4407,11.5215,11.76,11.9908,12.0716,12.1293,12.1408,12.0485,11.8715,11.7215,11.6907,11.6984,11.7907,12.0216,12.2716,12.5293,12.8294,12.7717,12.5409,12.1408,11.9485,11.7606,11.4994,11.6188,11.8825,12.2893,12.3974,12.5095,12.6217,12.5481,12.5091,12.5091,12.3385,12.2304,12.1718,12.0586,11.9687,11.9101,11.7695,11.6406,11.5312,11.3008,11.0312,10.75,10.6093,10.4219,10.1914,10.0781,9.9922,9.9179,9.7265,9.5781,9.4414,9.1797,8.9531,8.7695,8.6875,8.5625,8.4295,8.3341,8.2658,8.2162,8.2092,8.1983,8.1813,8.1415,8.0739,7.9969,7.9276,7.7977,7.663,7.5745,7.4668,7.3591,7.2745,7.1475,7.0052,6.8629,6.6627,6.4737,6.3282,6.2147,6.1348,6.1045,6.1514,6.1908,6.1932,6.1673,6.0855,5.9194,5.8606,5.7564,5.5622,5.4836,5.4041,5.3193,5.137,5.0168,4.9748,4.6682,4.4576,4.3701,4.1783,4.0425,3.9662,3.8854,3.793,3.6841,3.5061,3.3095,11.1598,11.5522,11.9485,12.0408,12.3101,12.5293,12.4409,12.4101,12.3293,12.0716,11.7984,11.5484,11.2906,11.1791,11.2483,11.5792,11.7292,12.0408,12.7025,12.3793,12.11,0.0,0.0,0.0,0.0,0.0,0.0,11.9504,0.0,12.3613,12.3808,12.3977,12.4203,12.4318,12.1998,12.0781,12.0781,11.9101,11.8203,11.8203,11.7304,11.6015,11.4414,11.2617,11.0,10.6719,10.5781,10.3515,10.039,10.0312,9.9219,9.7617,9.6719,9.5312,9.3437,9.0781,8.8241,8.5973,8.5075,8.4215,8.3331,8.2312,8.2001,8.1937,8.1718,8.1648,8.1406,8.0365,8.0008,7.9507,7.7707,7.6553,7.5668,7.4784,7.336,7.1937,7.1052,7.0206,6.8898,6.6333,6.469,6.3161,6.1484,6.0118,5.9244,5.9206,5.9206,5.9543,6.0408,5.9842,5.905,5.811,5.693,5.5546,5.3982,5.3407,5.2454,5.0912,4.867,4.7434,4.7391,4.4036,4.2181,4.2133,4.0777,3.9714,3.8908,3.8133,3.6901,3.519,3.3448,3.1502,11.6099,11.9485,12.2408,12.4486,12.6217,12.6909,12.5409,12.4601,12.2793,11.8407,11.4984,11.1791,10.8598,10.8906,11.0714,11.4099,11.86,12.3101,12.7294,12.7909,12.6486,12.2485,0.0,11.9306,11.5702,11.6084,0.0,0.0,11.9887,12.1488,12.348,12.3001,12.2996,12.3698,12.1309,11.9883,11.9883,11.8203,11.7304,11.7304,11.5781,11.4609,11.3515,11.1718,10.9414,10.6601,10.5195,10.3281,10.1211,9.9883,9.8672,9.75,9.539,9.3515,9.1562,8.8359,8.6249,8.4809,8.3274,8.2592,8.2344,8.1892,8.1799,8.1693,8.1137,8.0845,8.0558,7.9815,7.8562,7.7331,7.6707,7.5438,7.4053,7.3053,7.2514,7.1783,7.0321,6.9321,6.8048,6.58,6.2993,6.0454,5.8765,5.7891,5.726,5.6673,5.6598,5.6982,5.8163,5.8165,5.7338,5.5566,5.5106,5.4465,5.3433,5.2169,5.1242,5.0839,4.8161,4.6356,4.5882,4.3524,4.194,4.1478,4.0561,3.9714,3.8908,3.8133,3.6901,3.519,3.3448,3.1288,12.0216,12.3408,12.6217,12.8409,12.9487,12.9217,12.5601,12.3601,12.0716,11.4407,11.0483,10.7213,10.4212,10.4405,10.6482,11.0983,11.5484,12.0485,12.6486,12.7602,12.6909,12.4793,12.3895,0.0,11.8717,11.8902,11.9323,0.0,11.9883,12.1015,12.2812,12.25,12.2383,12.289,12.0781,11.9218,11.8515,11.75,11.6797,11.6484,11.5117,11.3789,11.2617,11.0781,10.8593,10.6093,0.0,10.2617,10.0898,9.914,9.7695,9.6367,9.3789,9.1679,8.9804,8.6758,8.4935,8.3842,8.2471,8.1701,8.1261,8.105,8.1079,8.0977,8.0131,7.9566,7.9183,7.8796,7.7369,7.589,7.576,7.4372,7.2822,7.186,7.136,7.0629,6.8936,6.7898,6.6496,6.3785,6.0904,5.8561,5.7381,5.6676,5.6124,5.5647,5.5574,5.5742,5.6117,5.6158,5.5702,5.4516,5.3775,5.3004,5.2234,5.0986,5.0025,4.9341,4.7132,4.5454,4.446,4.2673,4.1408,4.073,3.9949,3.9209,3.8414,3.7227,3.5793,3.4033,3.2126,2.983,12.4216,12.7294,13.0102,13.1487,13.2295,13.1102,12.5101,12.1716,11.76,10.9983,10.579,10.2789,10.0212,9.9942,10.2097,10.8213,11.1406,11.6292,12.5678,12.5601,12.5409,12.7591,12.5813,12.3802,12.261,12.1693,12.1196,12.1091,12.1093,12.1406,12.2187,12.2109,12.1914,12.1718,12.0195,11.8593,11.6992,11.6914,11.6406,11.5586,11.4609,11.3281,11.1718,10.9883,10.7695,10.5195,10.3515,0.0,10.0,9.8242,9.6562,9.4765,9.2148,9.0,8.8086,8.5625,8.4039,8.3002,8.2124,8.1116,8.0213,8.0161,8.0092,7.9869,7.8831,7.8051,7.7481,7.7382,7.6089,7.4692,7.4518,7.3195,7.1668,7.0783,6.9937,6.8898,6.7282,6.6038,6.4269,6.1076,5.8802,5.7204,5.6581,5.5904,5.539,5.528,5.528,5.4987,5.4179,5.4252,5.4326,5.4106,5.2821,5.1683,5.0875,5.0068,4.9025,4.7644,4.6034,4.4624,4.3513,4.192,4.0746,4.0121,3.9295,3.8469,3.7648,3.5982,3.4205,3.2352,3.0361,2.8023,12.8486,13.0794,13.241,13.2679,13.1795,12.941,12.3408,11.9485,11.4984,10.729,10.3597,10.1019,9.8404,9.9135,10.2481,10.9906,11.3214,11.81,12.7486,12.7909,12.7832,12.9206,12.7911,12.6078,12.4082,12.3395,0.0,0.0,12.1992,12.1992,12.2187,12.1484,12.0508,11.8984,11.8711,11.8008,11.6992,11.6289,11.5508,11.4687,11.3086,11.1797,11.0781,10.8984,10.6797,10.4297,10.2617,0.0,9.9101,9.7383,9.5703,9.3867,9.125,8.875,8.6406,8.4531,8.3143,8.2086,8.1208,8.0216,7.9447,8.0144,7.94,7.81,7.7424,7.6639,7.5831,7.5118,7.4154,7.3099,7.2122,7.1082,7.0079,6.909,6.8167,6.7282,6.632,6.3732,6.1114,5.9439,5.7905,5.6478,5.506,5.4693,5.4363,5.3739,5.3628,5.3335,5.2527,5.3592,5.3885,5.2564,5.216,5.1683,5.0875,5.0068,4.9281,4.8439,4.5864,4.4307,4.4242,4.1681,4.0202,4.0105,3.9292,3.8213,3.6783,3.573,3.385,3.1229,2.9725,2.7353,13.241,13.4411,13.5411,13.4487,13.2679,12.8986,12.0793,11.5984,11.0906,10.2789,9.9827,9.8327,9.7096,9.8634,10.1789,10.6902,11.0209,11.5324,12.4207,12.5503,12.6695,13.0205,12.9611,12.8102,12.6011,12.5195,12.4297,12.3008,12.289,12.289,12.289,12.1601,12.0117,11.8398,11.789,11.7187,11.6289,11.5508,11.4687,11.3789,11.3008,11.1601,10.9883,10.8593,10.6406,10.3398,10.1719,0.0,9.8164,9.6015,9.3867,9.1601,8.9023,8.6719,8.4687,8.3398,8.2254,8.1281,8.0933,7.9566,7.8046,7.8534,7.7807,7.654,7.5772,7.4956,7.4255,7.4291,7.3224,7.1926,7.1337,7.0156,6.8783,6.7436,6.5882,6.4489,6.3405,6.1338,5.9403,5.8308,5.6742,5.5317,5.4546,5.4069,5.3665,5.3261,5.3225,5.3078,5.2674,5.2931,5.2711,5.1499,5.0949,5.0545,5.0215,4.9131,4.8031,4.6919,4.5258,4.3833,4.2791,4.1066,3.9881,3.949,3.8294,3.7081,3.5887,3.3917,3.1952,2.9825,2.6894,2.4501,13.568,13.718,13.7911,13.5988,13.2987,12.8102,11.8407,11.2676,10.7098,9.9135,9.6865,9.6288,9.6288,9.7942,10.0404,10.3595,10.6322,11.1083,12.0122,12.2177,12.4789,13.041,13.0602,12.9584,12.7704,12.6587,12.5312,12.3593,12.3281,12.3086,12.3008,12.1484,11.9883,11.8281,11.75,11.6601,11.5703,11.4883,11.4101,11.3203,11.2812,11.1484,10.9297,10.7812,10.5508,10.25,10.0781,0.0,0.0,9.4883,9.2344,8.9765,8.7187,8.5117,8.3476,8.2617,8.164,8.0774,8.0708,7.8976,7.6659,7.666,7.5931,7.4976,7.4263,7.3399,7.2839,7.3482,7.2338,7.0848,7.0452,6.9117,6.7372,6.5397,6.3618,6.1926,6.0332,5.9253,5.8191,5.7066,5.5507,5.4363,5.4179,5.3482,5.3004,5.3188,5.3078,5.2931,5.2931,5.2234,5.1426,5.0618,4.9921,4.9404,4.9139,4.7933,4.6585,4.5187,4.4384,4.3115,4.1317,4.0325,3.9456,3.8641,3.7115,3.5761,3.461,3.1908,2.9602,2.7797,2.396,2.1617,13.7796,13.8488,13.8604,13.6103,13.1295,12.5101,11.7176,11.0906,10.502,9.8788,9.6865,9.6288,9.6288,9.648,9.825,10.3097,0.0,10.7325,11.7907,12.0506,12.3505,12.9228,13.0294,12.9998,12.8225,12.6798,12.5312,12.3593,12.2812,12.1992,12.1211,12.0195,11.9297,11.8281,11.75,11.6601,11.5703,11.4883,11.4101,11.3203,11.1601,11.0312,10.9218,10.6015,10.3515,10.1601,9.9883,0.0,0.0,9.4648,9.2344,8.9765,8.7187,8.5117,8.3476,8.2617,8.1758,8.0859,8.0071,7.8124,7.5831,7.5109,7.4251,7.3465,7.3187,7.2531,7.1772,7.1541,7.0771,6.9655,6.7898,6.6821,6.5397,6.2529,6.1688,6.0836,5.8316,5.7672,5.7029,5.5049,5.4553,5.4179,5.3445,5.2637,5.2344,5.3115,5.2564,5.2087,5.2087,5.1426,5.0582,4.9774,4.9627,4.9065,4.7693,4.6892,4.5837,4.455,4.3166,4.2055,4.1243,3.9787,3.8659,3.7841,3.6191,3.4479,3.2626,3.0236,2.7493,2.4427,2.2271,2.0267,13.7296,13.9796,14.0681,13.718,13.1102,12.3909,11.6292,10.9098,10.2712,9.7788,9.6519,9.6288,9.6288,9.6288,9.7019,0.0,0.0,0.0,11.0699,11.2383,11.6185,12.5261,12.6184,12.6518,12.7496,12.6589,12.5117,12.289,12.1406,12.0508,12.0117,11.9804,11.9218,11.8281,11.75,11.6601,11.5781,11.4883,11.3789,11.2383,11.1211,10.9297,10.6914,10.5117,10.2383,9.9219,9.8515,0.0,0.0,9.25,9.0351,8.8242,8.5664,8.3554,8.1992,8.164,8.0664,7.9453,7.9101,7.7209,7.4896,7.4519,7.3055,7.1526,7.2075,7.1464,7.0579,7.0464,6.9706,6.859,6.6821,6.5013,6.2887,6.0114,5.9463,5.8929,5.6796,5.5955,5.5397,5.4553,5.3995,5.3592,5.3261,5.2527,5.2087,5.2417,5.1793,5.1279,5.1279,5.0222,4.918,4.8457,4.8307,4.7855,4.6813,4.5766,4.4566,4.3166,4.1716,4.0581,3.9853,3.8334,3.7087,3.6219,3.5073,3.3123,3.0309,2.8049,2.5373,2.2271,1.9318,1.7123,13.5128,13.9088,14.1104,13.768,13.0487,12.2485,11.5599,10.7713,10.0789,9.7057,9.5903,9.5711,9.6288,9.6134,9.6057,0.0,0.0,9.8789,10.5085,10.6808,11.0794,12.0092,12.0994,12.1988,12.48,12.4687,12.3906,12.2304,12.0586,11.9687,12.0,11.9492,11.8906,11.8281,11.7187,11.6211,11.539,11.3984,11.2617,11.1093,10.9687,10.7695,10.5117,10.3711,10.1094,9.7656,9.7187,0.0,0.0,9.0586,8.8476,8.6484,8.414,8.2304,8.0976,8.0703,7.9531,7.8125,7.8125,7.6142,7.3547,7.3547,7.1833,6.9843,7.0271,6.9809,6.9155,6.9078,6.8013,6.6551,6.5128,6.3051,6.0789,5.8678,5.8027,5.7336,5.5613,5.4803,5.4326,5.4106,5.3592,5.3225,5.3225,5.2527,5.1977,5.1977,5.1316,5.0762,5.0524,4.9379,4.8243,4.7284,4.6784,4.6222,4.5479,4.4165,4.2875,4.1679,4.0234,3.9079,3.8246,3.6901,3.5761,3.483,3.3317,3.0967,2.7924,2.537,2.2584,1.9567,1.6493,1.3947,13.1495,13.5674,13.8911,13.718,12.9179,12.0292,11.5215,10.679,9.9404,9.6826,9.4941,9.4287,9.6249,9.5711,9.5365,9.6442,0.0,0.0,10.2403,10.5728,10.9274,11.3604,11.521,11.6914,11.9414,12.0508,12.1289,12.2109,12.0586,0.0,12.0781,11.9297,11.8281,11.8281,11.6601,11.5312,11.4492,11.1914,11.0195,10.9297,10.6797,10.5117,10.4101,10.1484,9.9375,9.7617,9.5937,9.375,0.0,8.9453,8.7226,8.4765,8.3008,8.1797,8.0898,8.0039,7.8633,7.7226,7.7226,7.4867,7.1852,7.1852,7.0427,6.8565,6.7718,6.7449,6.7372,6.7192,6.532,6.3166,6.2358,6.0819,5.9306,5.8413,5.754,5.6436,5.4764,5.4399,5.4179,5.3371,5.3225,5.3225,5.3225,5.2527,5.1977,5.1977,5.1316,5.0561,4.9901,4.9125,4.8075,4.666,4.5264,4.4123,4.3409,4.1918,4.0759,4.0139,3.8667,3.7472,3.6661,3.5761,3.483,3.4013,3.0698,2.7849,2.5655,2.2422,1.9164,1.5913,1.403,1.1228,12.1112,12.4686,12.6798,12.3917,11.7969,11.1983,10.8713,10.2481,9.7096,9.5711,9.448,9.4134,9.5518,9.548,9.5595,9.6673,9.6865,0.0,9.9788,10.2905,10.689,11.2009,11.7114,12.0508,12.1289,12.1093,12.0781,12.039,11.9883,11.9492,11.9101,11.8008,11.7383,11.7383,11.6289,11.4804,11.2695,11.1289,10.9297,10.6719,10.5312,10.3515,10.1484,9.9453,9.7265,9.5,9.3281,9.1406,0.0,8.7031,8.5273,8.3828,8.2109,8.0195,7.8359,7.8086,7.6914,7.5351,7.4726,7.3243,7.149,7.0908,6.8937,6.6731,6.6461,6.6384,6.6115,6.4859,6.3089,6.1666,6.2012,6.0396,5.8534,5.7911,5.6898,5.5559,5.3609,5.2961,5.2674,5.2417,5.238,5.238,5.238,5.172,5.0986,5.0435,4.9309,4.8394,4.8186,4.6753,4.5361,4.4397,4.2603,4.1538,4.1715,4.0927,3.9842,3.8634,3.6935,3.5919,3.5667,3.3893,3.2152,3.0527,2.8298,2.5587,2.2324,1.9806,1.655,1.2505,1.0443,0.8689,11.3495,11.7482,11.9519,11.7023,11.2165,10.7402,10.4789,9.9673,9.5289,9.4634,9.3557,9.321,9.467,9.4862,9.5134,9.6325,9.6709,9.7171,9.8056,10.1402,10.5602,11.0381,11.5898,11.9218,0.0,11.9492,11.9804,11.9609,11.9297,11.8984,11.8789,11.7304,11.6211,11.5586,11.4804,11.3086,11.0508,10.8906,10.6797,10.3984,10.2812,10.1211,9.9258,9.7539,9.5351,9.2812,9.1094,8.914,0.0,8.4844,8.3398,8.2422,8.0351,7.8594,7.707,7.6094,7.4844,7.3437,7.2197,7.0814,6.9409,6.8519,6.6486,6.4397,6.4089,6.3974,6.3666,6.2281,6.0896,5.9973,6.0512,5.9242,5.7597,5.6855,5.5662,5.4274,5.2487,5.1822,5.1536,5.1536,5.1793,5.1903,5.161,5.1389,5.0875,4.9738,4.8598,4.7623,4.708,4.5492,4.3888,4.262,4.103,3.9919,3.938,3.8999,3.8354,3.7413,3.5698,3.4794,3.4794,3.2139,3.0145,2.8948,2.5836,2.2961,2.0217,1.6796,1.3355,0.999,0.8337,0.7127,0.0,11.2801,11.5181,11.4317,10.9906,10.4974,10.252,9.775,0.0,9.3595,9.2249,9.1672,9.3592,9.371,9.398,9.5286,9.6124,9.6733,9.7157,10.1118,10.5399,10.9212,11.2695,0.0,11.3398,11.6406,11.8711,11.9492,11.8789,11.8593,11.9297,11.6797,11.4609,11.289,11.1914,11.0195,10.7812,10.5312,10.3086,10.1406,9.9726,9.8437,9.7461,9.5703,9.3515,0.0,0.0,0.0,0.0,8.289,8.1601,8.0508,7.8125,7.7031,7.6523,7.4099,7.2574,7.1464,6.9652,6.7831,6.61,6.496,6.3445,6.182,6.0896,6.0666,6.0512,5.9665,5.8819,5.8204,5.828,5.755,5.6521,5.5428,5.4097,5.2768,5.1516,5.0971,5.0729,5.0729,5.1316,5.161,5.0912,5.1353,5.1316,4.9771,4.8877,4.7913,4.6448,4.5047,4.346,4.1342,4.039,3.9015,3.6784,3.66,3.6538,3.6415,3.4853,3.3848,3.3654,3.05,2.8624,2.8301,2.3059,1.9736,1.8614,1.336,0.9979,0.829,0.7401,0.6435,9.9219,0.0,10.0787,9.9912,9.7865,9.5931,0.0,9.3431,9.1864,9.1787,9.0941,9.0594,9.1937,9.213,9.2479,9.3595,9.5164,9.6011,9.5504,10.1484,0.0,11.2695,11.5703,11.6601,11.4414,11.7304,11.9101,11.8593,11.8398,11.7812,11.6718,11.4218,11.1718,10.9297,10.7109,10.5703,10.5117,10.3203,10.1289,9.9609,9.8515,9.7226,9.5703,9.332,9.1133,0.0,0.0,0.0,8.2812,8.1758,8.0039,7.8047,7.7422,7.5586,7.3161,7.251,7.0852,6.8703,6.7608,6.6367,6.4883,6.2529,6.1497,6.0819,5.9358,5.9319,5.9627,5.8819,5.7973,5.7473,5.8127,5.6703,5.5143,5.5462,5.3872,5.2032,5.1117,5.0375,4.9884,4.9884,5.0031,5.0288,5.0729,5.0435,4.9874,4.8986,4.7725,4.6413,4.5047,4.3666,4.2165,4.0525,3.9186,3.7865,3.6692,3.66,3.6041,3.4655,3.3573,3.2061,3.0184,2.8201,2.5704,2.2755,1.7989,1.4661,1.2928,1.029,0.8442,0.7351,0.6269,0.5659,9.5547,9.5703,9.5379,9.4924,9.359,9.2271,9.1774,9.0898,9.0133,9.0056,8.9671,8.9517,9.0167,9.0556,9.1287,9.2787,9.3981,9.5524,9.7615,10.2304,10.7617,11.3203,11.5508,11.6484,0.0,11.789,11.8593,11.7812,11.7304,11.6406,11.4609,11.1718,10.9101,10.6914,10.3984,10.2383,10.2383,10.1094,9.9531,9.7851,9.6953,9.5664,9.3906,9.1289,8.9179,0.0,0.0,0.0,8.1015,7.9765,7.8203,7.6484,7.5273,7.3672,7.1795,7.0259,6.8735,6.7132,6.498,6.3238,6.1728,6.0242,5.9704,5.9396,5.8088,5.8011,5.8242,5.7819,5.7088,5.6511,5.6973,5.5818,5.4451,5.4319,5.2829,5.1171,5.0159,4.9449,4.9003,4.9003,4.9334,4.9591,4.9664,4.9354,4.8889,4.815,4.66,4.525,4.4485,4.2566,4.0878,3.9667,3.8147,3.6658,3.5145,3.5052,3.4753,3.4081,3.2077,3.0315,2.8973,2.5838,2.2205,1.8154,1.493,1.2408,1.0599,0.8731,0.7499,0.6873,0.5859,0.5425,9.4375,9.4648,9.4492,9.4648,9.3055,9.1297,9.0389,8.9398,8.8705,8.8517,8.8479,8.844,8.8325,8.9171,9.0402,0.0,0.0,9.5868,10.1905,10.3984,10.7109,11.2695,11.4414,0.0,11.75,11.8008,11.7695,11.6914,11.5781,11.4414,11.2695,10.9297,10.6601,10.5,10.1797,9.9961,9.9726,9.8984,9.7851,9.6289,9.5273,9.3828,9.1914,8.9453,8.7344,8.5469,0.0,0.0,7.8984,7.7422,7.6133,7.4883,7.2656,7.1562,7.0859,6.7969,6.665,6.578,6.2408,6.0046,5.8462,5.8319,5.8204,5.7934,5.7049,5.6703,5.6626,5.6626,5.6088,5.5472,5.5357,5.4703,5.3832,5.2652,5.1478,5.0244,4.8978,4.8494,4.8269,4.8159,4.882,4.9187,4.86,4.8452,4.8179,4.7407,4.5635,4.4281,4.3802,4.1634,3.9682,3.8476,3.7155,3.5485,3.3186,3.273,3.267,3.3123,3.0394,2.8449,2.7705,2.2865,1.8494,1.4743,1.3065,1.141,0.9835,0.7942,0.6881,0.6457,0.5749,0.5425,9.2734,9.2969,9.3125,9.3867,9.1886,8.9754,8.9586,8.8551,8.7632,8.7594,8.7594,8.7363,8.6632,8.8363,8.9787,0.0,0.0,9.9078,0.0,0.0,11.0,11.3789,0.0,11.6992,11.5312,11.6406,11.6797,11.6015,11.3789,11.1718,11.0,10.6601,10.3984,10.2304,10.0195,9.8515,9.7109,9.6953,9.6367,9.539,9.3789,9.1719,8.9258,8.7422,8.5234,8.2773,0.0,7.8711,7.6406,7.539,7.3633,7.1445,7.1055,6.957,6.7617,6.7109,6.5426,6.313,6.095,5.9459,5.8363,5.7657,5.7319,5.7049,5.6165,5.5434,5.4895,5.4895,5.478,5.4511,5.378,5.2933,5.2158,5.162,5.0578,4.9348,4.8156,4.8087,4.8122,4.7425,4.7939,4.8673,4.9297,4.8379,4.7399,4.6728,4.5348,4.3512,4.1097,4.0382,3.9023,3.6102,3.557,3.4499,3.2218,3.0503,2.943,2.9041,2.8507,2.6382,2.2227,1.8035,1.5202,1.4048,1.1682,0.9846,0.868,0.7389,0.6358,0.5624,0.5491,0.5425,9.2226,9.2265,9.1992,9.2383,9.0586,8.8439,8.7503,8.628,8.5478,8.594,8.6055,8.6055,8.6094,0.0,8.9902,9.1941,0.0,10.1306,10.5501,10.7617,10.9883,0.0,0.0,11.5586,11.5781,11.5703,11.5117,11.3711,11.1289,10.8789,10.6719,10.3711,10.1289,9.9531,9.8281,9.7031,9.582,9.4844,9.4179,9.3789,9.2031,9.0078,8.7969,8.5312,8.3164,8.1445,0.0,7.6445,7.4375,7.2578,7.0859,6.9258,6.832,6.7226,6.6015,6.4609,6.2734,6.0663,5.9343,5.8148,5.7197,5.6792,5.6511,5.6126,5.528,5.478,5.4318,5.3356,5.3433,5.3703,5.3318,5.2406,5.1476,5.1114,5.0078,4.8931,4.8194,4.8163,4.8086,4.7278,4.7425,4.7569,4.7226,4.6296,4.5401,4.4882,4.3202,4.1634,4.026,3.8341,3.644,3.4901,3.3173,3.1388,2.9502,2.7804,2.6045,2.4242,2.4168,2.2188,1.7775,1.5679,1.3928,1.2443,1.042,0.8852,0.7771,0.6597,0.5815,0.5425,0.5425,0.5425,9.1054,9.1211,9.0859,9.0234,8.9138,8.776,8.6211,8.4889,8.4164,8.4824,8.4747,8.4786,8.5401,8.7401,0.0,9.5328,9.9673,10.3103,10.4905,10.7496,0.0,0.0,0.0,0.0,11.5898,11.4609,11.2812,11.0781,10.8515,10.6015,10.3398,10.0781,9.8711,9.7148,9.6133,9.5078,9.3984,9.2656,9.1992,9.1953,9.0234,8.832,8.6172,8.332,8.1172,7.9648,7.6406,7.3861,7.1831,6.9522,6.8015,6.7021,6.5741,6.5039,6.4414,6.2226,6.0312,5.8788,5.8098,5.712,5.6185,5.6155,5.5818,5.528,5.4703,5.4161,5.3464,5.2137,5.2056,5.2379,5.2444,5.1667,5.0783,5.0417,4.9476,4.8444,4.7868,4.7642,4.7309,4.6503,4.6389,4.6085,4.507,4.4165,4.3453,4.2832,4.0916,3.9325,3.8796,3.5829,3.3515,3.3013,3.0446,2.7946,2.5852,2.4472,2.2468,1.9488,1.9354,1.7988,1.4744,1.3945,1.2743,1.0905,0.9235,0.7957,0.7146,0.6007,0.5425,0.5425,0.5425,0.5425,8.7812,8.8945,8.9531,8.7148,8.7461,8.8117,8.719,8.603,8.5081,8.5158,0.0,0.0,0.0,8.7094,9.1748,9.7596,10.1212,10.4696,10.8784,0.0,11.3515,0.0,0.0,0.0,0.0,11.1914,10.9804,10.7304,10.5508,10.3281,10.0703,9.8164,9.6367,9.539,9.375,9.207,9.039,9.0234,9.0195,9.0156,8.8476,8.5937,8.2656,8.1562,7.9336,7.6133,7.3437,7.0762,6.8154,6.6411,6.5058,6.413,6.4167,6.3281,6.1875,6.0859,5.9414,5.7962,5.7784,5.704,5.6185,5.5962,5.5318,5.4587,5.4511,5.3107,5.1495,5.1381,5.0582,4.9862,5.0215,4.9959,4.9521,4.9155,4.8389,4.7475,4.6323,4.5692,4.5088,4.4288,4.4283,4.4361,4.4245,4.3166,4.1988,4.1274,3.917,3.7002,3.5032,3.297,3.0897,2.8763,2.7482,2.5303,2.1562,2.0333,1.83,1.5087,1.5065,1.4866,1.3973,1.2244,1.0779,0.9852,0.8079,0.7076,0.6762,0.583,0.5425,0.5425,0.5425,0.5425,8.75,8.7969,8.8086,8.6562,8.6211,8.5952,8.4975,8.4585,8.4545,8.5067,8.5164,0.0,0.0,0.0,9.3133,9.8019,10.1673,10.509,10.8527,11.0284,11.1797,0.0,0.0,0.0,0.0,10.8398,10.6601,10.4492,10.2187,10.0117,9.8047,9.5469,9.3437,9.1992,9.0781,8.9609,8.8476,8.789,8.7344,8.6836,8.6172,8.4336,8.1445,7.9492,7.6758,7.3319,7.0619,6.8256,6.6221,6.4401,6.3141,6.2293,6.1403,6.0976,6.0701,5.928,5.8311,5.7677,5.7,5.611,5.5243,5.517,5.4326,5.3115,5.2081,5.1383,5.0665,4.911,4.8532,4.8483,4.8889,4.8431,4.7705,4.705,4.6175,4.5413,4.4916,4.4713,4.4293,4.3507,4.3408,4.3014,4.167,4.1032,4.0079,3.8408,3.6685,3.4838,3.284,3.0378,2.8187,2.642,2.3758,2.1136,1.873,1.7128,1.5569,1.4094,1.4306,1.3751,1.2057,1.1156,0.9986,0.836,0.7545,0.6712,0.6037,0.5607,0.5425,0.5425,0.5425,0.5425,8.6172,8.6289,8.6054,8.5195,8.4726,8.428,8.3576,8.3698,8.425,8.5144,8.5709,8.6786,8.9094,0.0,0.0,0.0,10.0904,10.4095,10.6494,10.7883,10.8984,10.9804,10.8593,10.7304,10.6484,10.4883,10.3008,10.1015,9.8711,9.6523,9.4531,9.2265,9.0312,8.8867,8.7969,8.7109,8.6289,8.539,8.4531,8.3672,8.3125,8.1797,7.9687,7.6875,7.3778,7.0567,6.7851,6.5812,6.4263,6.2467,6.1263,6.0519,5.9493,5.9287,5.9381,5.8139,5.7307,5.6693,5.5994,5.5084,5.4262,5.4079,5.3039,5.1585,5.0304,4.9711,4.9025,4.7207,4.6759,4.6866,4.6665,4.6467,4.6137,4.5399,4.451,4.3846,4.3846,4.3456,4.3004,4.2441,4.1985,4.1216,3.9767,3.8725,3.7607,3.6012,3.3883,3.1848,3.0147,2.7424,2.5016,2.3464,2.0493,1.8131,1.69,1.5161,1.3918,1.3331,1.3593,1.281,1.0751,1.0275,0.9174,0.7322,0.681,0.6256,0.5515,0.5413,0.5425,0.5425,0.5425,0.5425,8.3359,8.3594,8.3398,8.2539,8.2969,8.3584,8.3623,8.3921,8.4456,8.5357,8.5839,8.6632,8.8402,9.0094,0.0,0.0,0.0,10.152,10.3093,10.4616,10.5507,10.5508,10.4687,10.3789,10.289,10.1289,9.9179,9.664,9.4844,9.2734,9.0117,8.8398,8.707,8.6211,8.5312,8.4453,8.3594,8.2695,8.1836,8.0937,7.9257,7.8008,7.707,7.3555,7.0472,6.7749,6.5172,6.3392,6.2136,6.0458,5.9359,5.87,5.8798,5.8396,5.7692,5.7653,5.6498,5.486,5.4724,5.4108,5.3259,5.2738,5.1433,5.0011,4.9673,4.813,4.6355,4.584,4.5403,4.4741,4.3373,4.3984,4.4921,4.4333,4.3554,4.2987,4.2987,4.1866,4.0886,4.0886,3.9784,3.8875,3.8821,3.6362,3.442,3.4388,3.076,2.7708,2.6663,2.3994,2.1458,1.9521,1.8005,1.681,1.583,1.4501,1.3317,1.2378,1.2305,1.1719,1.0419,0.9373,0.8166,0.6941,0.5903,0.5425,0.5425,0.5425,0.5425,0.5425,0.5425,0.5425,8.3711,8.3164,0.0,8.3125,8.2969,8.2998,8.4234,8.4342,8.469,8.6454,8.6906,8.7517,8.9248,0.0,0.0,0.0,0.0,0.0,10.1673,10.2224,10.23,10.1908,10.1094,9.9961,9.8554,9.6836,9.5234,9.3867,9.1562,8.9648,8.832,8.6601,8.5273,8.4414,8.2929,8.2031,8.1758,8.0351,7.9437,7.9,7.6107,7.4934,7.5273,7.2312,6.9227,6.6183,6.3993,6.2159,6.0558,5.8726,5.8182,5.8401,5.6717,5.6343,5.6484,5.5152,5.4321,5.382,5.3685,5.2521,5.104,5.087,4.9375,4.7454,4.6772,4.6082,4.5258,4.394,4.3584,4.3294,4.1866,4.1866,4.2096,4.195,4.144,4.0968,4.0968,3.9865,3.8858,3.8858,3.7722,3.6364,3.5252,3.4302,3.3081,3.126,2.8739,2.5926,2.2889,2.0849,1.9461,1.8848,1.7558,1.6387,1.5463,1.4377,1.3317,1.2378,1.2104,1.1297,0.954,0.9019,0.7887,0.5996,0.5568,0.5425,0.5425,0.5425,0.5425,0.5425,0.5425,0.5425,8.2187,8.1679,0.0,8.2344,8.2969,8.3668,8.4997,0.0,0.0,0.0,8.8402,8.8786,9.0825,9.1899,0.0,0.0,0.0,0.0,0.0,9.8223,9.7907,9.6832,9.625,9.539,9.4062,9.2656,9.1431,9.0507,8.8338,8.6512,8.5267,8.3861,8.2729,8.187,8.0504,7.9767,7.9767,7.7776,7.6682,7.651,7.3109,7.161,7.177,6.9072,6.636,6.3669,6.1713,5.9881,5.8187,5.7126,5.6618,5.63,5.459,5.4167,5.4386,5.2952,5.2067,5.1617,5.1519,5.0382,4.8872,4.8704,4.7312,4.5527,4.4915,4.427,4.3524,4.2347,4.1874,4.155,4.0802,3.9953,3.9399,4.0014,3.9679,3.9159,3.8858,3.7911,3.711,3.711,3.5879,3.4576,3.3547,3.2188,3.0552,2.8618,2.5865,2.3029,2.0253,1.8984,1.8379,1.8379,1.7,1.579,1.5242,1.3833,1.2769,1.2204,1.1566,1.0502,0.8907,0.8703,0.7674,0.5658,0.544,0.5459,0.5454,0.5454,0.5454,0.5454,0.5454,0.5454,7.9922,7.9805,7.9961,8.1094,8.332,0.0,8.6133,8.744,8.8895,9.0126,0.0,9.0081,9.2613,9.2503,9.2535,0.0,0.0,0.0,0.0,0.0,9.2929,9.125,9.1054,9.0702,8.9836,8.8896,8.7877,8.6809,8.5175,8.3398,8.1554,8.073,7.9898,7.912,7.824,7.7711,7.7555,7.5026,7.3717,7.3547,7.0208,6.8115,6.7099,6.4714,6.2548,6.0558,5.8842,5.7126,5.5588,5.5528,5.4583,5.3123,5.2336,5.1913,5.1644,5.0856,4.9789,4.8715,4.8653,4.7858,4.6789,4.6371,4.5278,4.4089,4.3713,4.265,4.1454,4.0804,4.0101,3.9571,3.9697,3.8186,3.6901,3.812,3.8102,3.759,3.6664,3.5914,3.54,3.5249,3.3948,3.2826,3.2675,2.9827,2.7236,2.6173,2.2639,1.9706,1.8644,1.8173,1.7872,1.7872,1.6298,1.5171,1.5084,1.3184,1.2033,1.1948,1.0746,0.957,0.8435,0.8358,0.7419,0.5658,0.5454,0.5454,0.561,0.561,0.561,0.561,0.561,0.561,8.1758,8.0742,0.0,8.332,8.5976,8.8086,8.8945,8.94,8.9476,8.8784,8.8983,8.9895,9.1838,9.2693,9.3042,0.0,0.0,0.0,0.0,0.0,0.0,8.9375,8.9258,8.8858,8.7824,8.635,8.5025,8.395,8.229,8.0858,7.9802,7.9559,7.9082,7.8194,7.7344,7.6224,7.492,7.2329,7.0645,6.981,6.7085,6.4932,6.3291,6.2832,6.0941,5.794,5.6939,5.5861,5.4783,5.3046,5.2165,5.1644,4.9936,4.9226,4.9074,4.8213,4.7707,4.7413,4.6948,4.5991,4.4909,4.4382,4.3382,4.2257,4.1604,4.0863,3.9971,3.8733,3.7928,3.7319,3.6849,3.5967,3.5033,3.4206,3.5166,3.5894,3.4632,3.3412,3.2165,3.1084,2.9639,2.8232,2.6863,2.6011,2.4573,2.1936,2.0698,1.9582,1.8321,1.7411,1.6922,1.6922,1.586,1.4887,1.4099,1.3606,1.2899,1.1948,1.0746,0.957,0.8435,0.7749,0.6813,0.5589,0.5555,0.561,0.5752,0.5752,0.5752,0.5752,0.5752,0.5752,8.0703,8.039,0.0,8.5156,0.0,8.8945,8.9804,8.9687,8.9293,8.9047,8.968,9.0773,9.252,9.2625,9.2306,9.1839,0.0,0.0,0.0,0.0,0.0,8.6299,8.5765,8.5065,8.4017,8.2736,8.1716,8.1026,7.9802,7.8622,7.7737,7.7275,7.6331,7.4835,7.4178,7.314,7.1611,6.9321,6.7872,6.7333,6.4369,6.1574,5.905,5.9133,5.7747,5.5224,5.4233,5.3305,5.2363,5.0659,4.9708,4.9188,4.7438,4.6778,4.6599,4.5455,4.4935,4.4675,4.3681,4.2813,4.1988,4.0996,3.9879,3.886,3.878,3.7887,3.6731,3.6009,3.5064,3.4214,3.3864,3.2773,3.1512,3.0694,3.194,3.2928,3.1469,3.0041,2.8738,2.7987,2.6607,2.5189,2.4325,2.2888,2.1085,1.8654,1.8016,1.7473,1.6751,1.6228,1.5703,1.523,1.4253,1.33,1.2357,1.1566,1.0924,1.0373,0.9222,0.8275,0.7681,0.6887,0.6209,0.5589,0.5657,0.5766,0.5908,0.5908,0.5908,0.5908,0.5915,0.5922,7.9062,8.0156,8.2539,8.6133,8.7773,0.0,8.9349,8.8831,8.8407,8.9091,9.0076,9.1367,9.3125,9.2031,9.082,9.0664,8.9179,8.75,8.5976,8.5573,8.483,8.3066,8.2177,8.1311,8.024,7.9404,7.8776,7.8353,7.7545,7.6592,7.5464,7.4619,7.3169,7.1128,7.0508,6.9574,6.8259,6.6308,6.5231,6.4974,6.155,5.8258,5.5176,5.4869,5.3985,5.2619,5.1544,5.0506,4.9466,4.8229,4.7278,4.6506,4.5015,4.4276,4.3919,4.2701,4.1829,4.1065,3.9792,3.9033,3.8379,3.7023,3.5777,3.4889,3.5277,3.4169,3.2699,3.2407,3.1481,3.0525,3.0372,2.891,2.7428,2.7103,2.7854,2.8417,2.7598,2.6408,2.5354,2.4978,2.3481,2.2266,2.2266,1.9939,1.7618,1.6139,1.5371,1.4854,1.4696,1.4506,1.4016,1.3186,1.2077,1.1158,1.0425,0.9206,0.849,0.8614,0.7554,0.6984,0.6915,0.625,0.5786,0.5671,0.5779,0.5915,0.6071,0.6071,0.6071,0.6078,0.6084,0.5858,7.9414,8.1914,8.4531,8.5117,8.6445,8.7631,8.7491,8.6854,8.6234,0.0,8.7687,8.957,9.1328,9.0234,8.8828,8.8125,8.6523,8.5078,8.4062,8.3135,8.2196,8.1167,8.0799,8.0213,7.9114,7.8286,7.7391,7.6438,7.5553,7.4482,7.3132,7.2291,7.1169,6.9699,6.8187,6.685,6.5595,6.3902,6.2536,6.1435,5.8011,5.5209,5.3044,5.1529,5.0703,5.0512,5.0035,4.8964,4.7359,4.5611,4.4875,4.4589,4.2907,4.1511,4.0391,4.02,3.8812,3.6942,3.629,3.5221,3.4017,3.3301,3.2165,3.0904,3.0368,2.9481,2.8455,2.7218,2.673,2.6362,2.5356,2.4472,2.3573,2.2548,2.1501,2.1219,2.3047,2.3304,2.2528,2.0529,1.8603,1.7316,1.7316,1.6385,1.5313,1.4134,1.392,1.3475,1.2639,1.1729,1.11,1.0945,0.9902,0.9157,0.9048,0.8904,0.8723,0.8624,0.7751,0.7178,0.7116,0.6353,0.5996,0.5909,0.5996,0.6078,0.6247,0.6247,0.6247,0.6261,0.6261,0.5229,7.8203,7.9765,8.1758,8.3672,8.5019,8.5972,8.6366,8.5676,8.4956,8.4829,8.4883,8.5779,8.8432,8.8047,8.7031,8.6172,8.5,8.3847,8.2847,8.1877,8.1069,8.0423,7.9037,7.7882,7.7314,7.6082,7.4994,7.4172,7.2907,7.1794,7.0877,6.9169,6.7581,6.6233,6.5311,6.4365,6.3331,6.1888,5.9759,5.6918,5.5423,5.3148,5.0252,4.8926,4.8352,4.8339,4.7215,4.6041,4.4823,4.3069,4.1818,4.0967,3.9922,3.8606,3.7202,3.6572,3.5098,3.3177,3.184,3.0651,2.9464,2.7787,2.6627,2.5815,2.5249,2.4185,2.3077,2.2396,2.1849,2.1212,2.0274,1.9871,1.9365,1.8419,1.7287,1.6628,1.7174,1.8042,1.8168,1.6236,1.4841,1.3843,1.3287,1.2898,1.2344,1.1329,1.1181,1.0972,1.0452,0.9997,0.9453,0.8816,0.8204,0.766,0.7132,0.7049,0.704,0.6999,0.6744,0.6507,0.6522,0.631,0.6173,0.6186,0.6173,0.6207,0.6288,0.509,0.4535,0.454,0.5749,0.5833,7.5898,7.668,7.8125,8.0664,8.1968,8.2794,8.341,8.2871,8.2246,0.0,8.1308,8.1401,8.4232,8.4997,8.5,8.4336,8.3452,8.252,8.1494,8.053,7.9644,7.8892,7.689,7.5351,7.4745,7.3274,7.2134,7.1693,7.0217,6.9055,6.8286,6.6327,6.4582,6.3201,6.2317,6.1619,6.1093,5.9273,5.6702,5.3415,5.2806,5.0692,4.7408,4.6413,4.5497,4.4668,4.4046,4.3105,4.1978,4.0339,3.8842,3.741,3.6496,3.5078,3.3459,3.2369,3.0632,2.8669,2.7135,2.5801,2.4356,2.2286,2.1069,2.0258,1.9749,1.868,1.7492,1.7456,1.6928,1.6208,1.5589,1.5401,1.5195,1.4449,1.3636,1.2977,1.2758,1.3553,1.3981,1.2767,1.1939,1.1193,1.0421,1.0273,0.9966,0.8981,0.8832,0.8689,0.8316,0.825,0.787,0.695,0.6777,0.6409,0.5739,0.558,0.5601,0.5788,0.5902,0.5989,0.6112,0.5668,0.573,0.6302,0.6295,0.6295,0.6302,0.4706,0.3363,0.2345,0.3929,0.4732,7.2265,7.3515,7.4844,7.5039,7.6183,7.7274,7.715,7.6919,7.665,7.6467,7.6515,7.6958,7.8154,8.0647,8.25,8.2422,8.1524,8.053,7.9673,7.8498,7.715,7.5456,7.4312,7.2976,7.1321,6.9927,6.9131,6.9098,6.7842,6.6515,6.5216,6.4321,6.3156,6.1765,5.9485,5.843,5.8865,5.5409,5.3135,5.2181,4.9835,4.7312,4.4798,4.3885,4.1542,3.8244,4.0861,4.0806,3.8684,3.7418,3.6075,3.4605,3.2538,3.047,2.8477,2.7594,2.5243,2.2564,2.2451,2.0753,1.8374,1.7436,1.6028,1.4547,1.3737,1.2836,1.2136,1.2097,1.2083,1.1916,1.1437,1.1302,1.1233,1.0766,1.0021,0.9916,1.1585,1.1352,1.0814,1.0789,1.0077,0.937,0.9228,0.9197,0.8752,0.7548,0.738,0.7023,0.6101,0.5832,0.5748,0.5672,0.5595,0.544,0.5388,0.5395,0.5519,0.5819,0.5845,0.5987,0.6274,0.438,0.4233,0.625,0.6329,0.6329,0.6329,0.6165,0.409,0.0157,0.0314,0.0314,6.8711,6.9609,7.0734,7.1731,7.2274,7.2677,7.3048,7.2569,7.2195,7.2629,7.2476,7.2712,7.4161,7.6848,7.9062,7.9765,7.8964,7.7891,7.6899,7.5831,7.4648,7.335,7.1937,7.0821,7.0206,6.8395,6.7169,6.682,6.5045,6.3649,6.2835,6.1052,5.9817,5.9281,5.6932,5.5133,5.4019,5.3037,5.1005,4.7988,4.6605,4.4152,4.0792,3.9575,3.7116,3.3805,3.4485,3.4738,3.4539,3.3257,3.1394,2.9241,2.8492,2.6266,2.3513,2.2834,2.0488,1.7551,1.7212,1.5764,1.3846,1.2901,1.2226,1.1532,1.0585,0.9956,0.958,0.958,0.9699,0.9777,0.9616,0.932,0.9037,0.8874,0.8657,0.829,0.785,0.8141,0.8551,0.8568,0.7912,0.7326,0.7335,0.7147,0.6832,0.641,0.6331,0.6222,0.5846,0.579,0.5645,0.5474,0.5433,0.5411,0.5401,0.4329,0.3704,0.3776,0.3984,0.4743,0.6237,0.5593,0.552,0.6264,0.6264,0.4972,0.2277,0.2277,0.1492,-0.0,-0.0,-0.0,6.6015,6.6422,6.7063,6.8081,6.8355,6.8428,6.8613,6.8527,6.8475,6.8744,6.8706,6.909,7.0502,7.2142,7.3907,7.5833,7.5283,7.4229,7.3239,7.2211,7.1183,7.0206,6.874,6.7658,6.7351,6.5715,6.4516,6.414,6.2375,0.0,6.043,5.8621,5.7098,5.6071,5.3818,5.1682,4.9779,4.9304,4.7387,4.408,4.2849,4.0292,3.6635,3.5476,3.2899,2.9218,2.848,2.8928,3.0086,2.8966,2.688,2.4269,2.3747,2.1761,1.9057,1.8134,1.6121,1.3814,1.3177,1.1916,1.0417,0.9502,0.9173,0.8904,0.7981,0.7555,0.7386,0.7386,0.7513,0.7494,0.6942,0.6465,0.621,0.6242,0.6248,0.5935,0.4774,0.5647,0.655,0.6019,0.5532,0.522,0.5247,0.5056,0.4879,0.4768,0.4762,0.4728,0.4786,0.4774,0.4683,0.4507,0.4505,0.4734,0.5337,0.4309,0.3109,0.1834,0.1938,0.2663,0.4095,0.4173,0.4178,0.4182,0.4182,0.2832,-0.0,-0.0,-0.0,-0.0,-0.0,-0.0,0.0,0.0,0.0,6.3993,6.4292,6.4422,6.3614,6.4614,6.5474,6.4628,6.5128,6.6076,6.7025,6.65,6.7062,7.059,7.0448,6.9579,6.8668,6.7616,6.6667,6.582,6.4566,6.3451,6.2582,6.162,6.1065,6.1023,5.9751,5.8647,5.784,5.7033,5.5195,5.2051,4.9949,4.8045,4.6354,4.413,4.2238,4.0711,3.8502,3.5659,3.2382,3.1713,2.8809,2.4334,2.3214,2.373,2.5205,2.4615,2.2664,1.9884,1.8338,1.6838,1.5241,1.3525,1.2298,1.1316,1.0498,0.9389,0.8145,0.7342,0.6873,0.6523,0.569,0.5372,0.5379,0.5312,0.5386,0.4986,0.3084,0.2609,0.2609,0.2609,0.2666,0.2702,0.2696,0.4156,0.4925,0.3471,0.3092,0.2996,0.299,0.2985,0.2906,0.269,0.2609,0.2613,0.2613,0.2616,0.2642,0.2646,0.2586,0.3363,0.5069,0.5255,0.3759,0.0235,-0.0,-0.0,-0.0,-0.0,-0.0,-0.0,-0.0,-0.0,-0.0,-0.0,-0.0,-0.0,-0.0,-0.0,6.225,0.0,0.0,0.0,0.0,0.0,5.9973,6.055,6.1204,6.0973,6.1589,6.2281,6.2574,6.1897,6.1659,6.2684,6.528,6.6665,6.5202,6.4385,6.3389,6.1945,6.1164,6.0605,6.0378,5.8689,5.7481,0.0,5.5249,5.3845,5.3203,5.191,4.9686,4.6575,4.5888,4.43,4.163,4.0974,3.9194,3.6323,3.4758,3.1789,2.7739,2.6583,2.3863,1.9989,1.9182,1.8267,1.7429,1.8619,1.7935,1.5979,1.4811,1.3374,1.174,1.0573,0.9244,0.8052,0.7787,0.7038,0.6215,0.5955,0.5792,0.569,0.5505,0.5379,0.5106,0.3818,0.4372,0.4657,0.1546,0.074,0.074,0.074,0.1718,0.2719,0.2713,0.4104,0.5301,0.482,0.2616,0.0825,0.0877,0.0855,0.0833,0.0743,0.074,0.0745,0.076,0.0762,0.077,0.0718,0.0732,0.0968,0.1436,0.1462,0.1092,0.0078,-0.0,-0.0,-0.0,-0.0,-0.0,-0.0,-0.0,-0.0,-0.0,-0.0,-0.0,-0.0,-0.0,-0.0,6.0973,6.1021,6.0958,6.0046,0.0,0.0,5.7588,5.7857,5.8219,5.7335,5.8092,5.8796,5.8284,5.8066,5.7837,5.7493,5.9611,6.1146,6.066,5.9982,5.8987,5.7549,5.6748,5.6179,5.5842,5.4306,5.3133,5.2789,5.1293,4.9949,4.8968,4.7417,4.5544,4.3083,4.176,3.9954,3.7694,3.6352,3.4324,3.165,2.9735,2.6747,2.2938,2.1739,1.9359,1.6122,1.5245,1.388,1.2253,1.286,1.2849,1.2472,1.1595,1.0373,0.9126,0.8182,0.7244,0.6426,0.6054,0.568,0.5253,0.5253,0.5317,0.5403,0.5408,0.5429,0.518,0.4156,0.3498,0.2287,-0.1344,-0.2223,-0.2088,-0.1277,0.0274,0.1601,0.1558,0.242,0.3117,0.3179,0.1465,-0.0,-0.0,-0.0,-0.0,-0.0,-0.0,-0.0,-0.0,-0.0,-0.0,-0.0,-0.0,-0.0,-0.0,-0.0,-0.0,-0.0,-0.0,-0.0,-0.0,-0.0,-0.0,-0.0,-0.0,-0.0,-0.0,-0.0,-0.0,-0.0,-0.0,-0.0,6.0204,6.0473,6.0742,5.9881,5.945,0.0,5.6242,5.6335,5.636,5.4448,5.5286,5.5978,5.4678,5.4956,5.5076,5.4245,5.3943,5.4292,5.5635,5.5102,5.4126,5.2862,5.1824,5.0916,5.0218,4.9298,4.8639,4.8458,4.7484,4.6224,4.4611,4.3265,4.1787,4.0081,3.7318,3.5208,3.379,3.0835,2.8454,2.6693,2.4042,2.1161,1.8144,1.7133,1.5195,1.2663,1.152,1.0333,0.9098,0.786,0.8227,0.9438,0.864,0.7921,0.724,0.6378,0.6027,0.5992,0.5222,0.4992,0.5067,0.4877,0.4945,0.5109,0.5325,0.5382,0.5301,0.49,0.2491,-0.0809,-0.4456,-0.5413,-0.4998,-0.3355,-0.1774,-0.0483,-0.0067,-0.0,-0.0,-0.0,-0.0,-0.0,-0.0,-0.0,-0.0,-0.0,-0.0,-0.0,-0.0,-0.0,-0.0,-0.0,-0.0,-0.0,-0.0,-0.0,-0.0,-0.0,-0.0,-0.0,-0.0,-0.0,-0.0,-0.0,-0.0,-0.0,-0.0,-0.0,-0.0,-0.0,-0.0,-0.0,5.9688,6.0319,6.0473,5.8973,5.8284,0.0,5.6044,5.6137,5.6205,5.5096,5.5706,5.5788,5.3853,5.3074,5.234,5.111,4.9771,4.9652,5.192,5.1775,5.075,4.8746,4.7983,4.7537,4.7393,4.6631,4.5646,4.4492,4.2624,4.0573,3.8476,3.8083,3.6286,3.2796,3.1811,3.0114,2.7606,2.5678,2.3518,2.119,1.9316,1.672,1.3568,1.289,1.1506,0.9516,0.8725,0.8196,0.7836,0.646,0.6608,0.7518,0.6536,0.6283,0.6327,0.5357,0.5114,0.5297,0.5121,0.5006,0.4761,0.3574,0.3202,0.347,0.4951,0.5396,0.477,0.1872,0.0539,-0.0809,-0.4456,-0.5413,-0.5346,-0.4931,-0.4607,-0.3524,-0.0606,-0.0,-0.0,-0.0,-0.0,-0.0,-0.0,-0.0,-0.0,-0.0,-0.0,-0.0,-0.0,-0.0,-0.0,-0.0,-0.0,-0.0,-0.0,-0.0,-0.0,-0.0,-0.0,-0.0,-0.0,-0.0,-0.0,-0.0,-0.0,-0.0,-0.0,-0.0,-0.0,-0.0,-0.0,-0.0,0.0,0.0,0.0,5.9204,0.0,0.0,0.0,5.4764,5.3888,5.2847,5.2968,5.2617,5.0542,4.9966,4.9269,4.7795,4.6617,4.5909,4.608,4.6702,4.653,4.4803,4.3482,4.2579,4.2195,4.1209,4.0137,3.8975,3.7873,3.6404,3.4485,3.3664,3.2053,2.9323,2.7352,2.5307,2.3145,2.0857,1.8572,1.6312,1.4838,1.2804,1.0265,0.9795,0.8857,0.7606,0.6988,0.674,0.6686,0.5508,0.5298,0.5754,0.5211,0.5162,0.5316,0.4784,0.4697,0.4714,0.3937,0.4124,0.4552,0.3831,0.2587,0.1537,0.2448,0.2686,0.2353,0.0524,-0.0,-0.0397,-0.2209,-0.4043,-0.5413,-0.5406,-0.5406,-0.4925,-0.3096,-0.1971,-0.1092,-0.0202,-0.0,-0.0,-0.0,-0.0,-0.0,-0.0,-0.0,-0.0,-0.0,-0.0,-0.0,-0.0,-0.0,-0.0,-0.0,-0.0,-0.0,-0.0,-0.0,-0.0,-0.0,-0.0,-0.0,-0.0,-0.0,-0.0,-0.0,-0.0,-0.0,-0.0,-0.0,0.11,0.0,0.0,0.0,0.0,0.0,5.6816,0.0,0.0,0.0,5.0586,5.0222,4.9524,4.7534,4.7066,4.641,4.442,4.3598,4.2382,4.0104,4.0941,4.154,4.1016,3.9337,3.8033,3.7412,3.6039,3.4809,3.3975,3.3475,3.2497,3.0708,2.9342,2.7793,2.6168,2.2953,2.0501,1.8873,1.6169,1.3907,1.2068,1.0755,0.9327,0.7732,0.7441,0.6881,0.6154,0.5791,0.547,0.5124,0.4082,0.3638,0.3694,0.4249,0.4477,0.4484,0.4138,0.4262,0.433,0.3077,0.3081,0.3655,0.3655,0.1576,-0.0854,-0.0877,-0.0662,-0.0372,-0.0064,-0.0,-0.0,-0.0,-0.2197,-0.4527,-0.5252,-0.5379,-0.5365,-0.5399,-0.4239,-0.2817,-0.1341,-0.0469,-0.0,-0.0,-0.0,-0.0,-0.0,-0.0,-0.0,-0.0,-0.0,-0.0,-0.0,-0.0,-0.0,-0.0,-0.0,-0.0,-0.0,-0.0,-0.0,-0.0,-0.0,-0.0,-0.0,-0.0,-0.0,-0.0,0.0901,0.0892,-0.0,0.0955,0.3187,0.0,0.0,0.0,0.0,5.7183,0.0,0.0,0.0,5.2265,5.1446,0.0,4.9637,4.7797,0.0,0.0,4.1091,3.9918,3.8516,3.5864,3.5132,3.5444,3.7178,3.668,3.612,3.6023,3.4185,3.2611,3.1753,2.9826,2.7744,2.5478,2.4171,2.2243,1.9631,1.772,1.5619,1.3241,1.1521,1.0051,0.8831,0.7663,0.6628,0.5837,0.6009,0.5572,0.4754,0.4657,0.386,0.2508,0.1109,0.0499,0.0777,0.3466,0.449,0.4324,0.2961,0.3304,0.4455,0.4281,0.2583,0.0505,0.0505,-0.1543,-0.4001,-0.4019,-0.3011,-0.167,-0.0383,-0.0,-0.0,-0.0,-0.0323,-0.145,-0.4671,-0.5384,-0.5401,-0.5413,-0.5238,-0.5029,-0.4821,-0.2228,-0.0,-0.0,-0.0,-0.0,-0.0,-0.0,-0.0,-0.0,-0.0,-0.0,-0.0,-0.0,-0.0,-0.0,-0.0,-0.0,-0.0,-0.0,-0.0,-0.0,-0.0,-0.0,-0.0,-0.0,-0.0,-0.0,0.4197,0.411,0.0084,0.4351,0.6549,0.0,0.0,0.0,0.0,0.0,0.0,5.2724,0.0,4.9899,0.0,0.0,0.0,0.0,0.0,0.0,0.0,3.8404,3.6808,3.4492,3.3571,3.3446,3.4342,0.0,0.0,3.1591,2.9929,2.8376,2.7236,2.5123,2.3296,2.1815,1.9836,1.823,1.7129,1.4275,1.2192,1.096,0.9208,0.7757,0.6689,0.6356,0.5727,0.4904,0.503,0.4359,0.3239,0.4101,0.3137,0.0723,-0.1615,-0.2623,-0.2508,-0.1224,0.089,0.3188,0.3421,0.1732,-0.0727,-0.0727,-0.095,-0.1285,-0.1285,-0.2145,-0.3318,-0.4251,-0.4053,-0.3406,-0.279,-0.1333,-0.0,-0.0,-0.0,-0.0372,-0.1911,-0.225,-0.2265,-0.2294,-0.3064,-0.4115,-0.5218,-0.4188,-0.2491,-0.0337,-0.0,-0.0,-0.0,-0.0,-0.0,-0.0,-0.0,-0.0,-0.0,-0.0,-0.0,-0.0,-0.0,-0.0,-0.0,-0.0,-0.0,-0.0,-0.0,0.1143,0.3587,0.3961,0.3416,0.2098,0.4087,0.4746,0.4102,0.4765,0.5687,5.5998,0.0,0.0,0.0,0.0,0.0,0.0,0.0,0.0,0.0,0.0,0.0,0.0,0.0,3.98,3.7969,0.0,3.4952,3.2887,3.1811,3.1366,3.1518,0.0,0.0,0.0,2.5464,2.391,2.2628,2.0488,1.8902,1.8006,1.5782,1.4427,1.4382,1.1226,0.9311,0.8789,0.7386,0.6184,0.5218,0.5407,0.514,0.4477,0.4497,0.3872,0.2854,0.3142,0.1564,-0.1395,-0.3593,-0.4504,-0.449,-0.449,-0.2508,0.0556,0.2122,-0.0112,-0.3934,-0.4337,-0.3761,-0.285,-0.285,-0.285,-0.3016,-0.415,-0.449,-0.4524,-0.4513,-0.2926,-0.1054,-0.0244,-0.0,-0.0,-0.0,-0.0,-0.0,-0.0,-0.1058,-0.2348,-0.3641,-0.473,-0.3914,0.0672,0.0674,0.0339,0.1314,0.1467,0.1127,0.0142,-0.0,-0.0,-0.0,0.1022,0.1716,0.1695,0.1224,0.0864,0.095,0.0965,0.0978,0.0984,0.1,0.2428,0.5493,0.6518,0.6147,0.4529,0.4484,0.5333,0.6939,0.5245,0.5288,0.0,0.0,0.0,5.2416,0.0,0.0,0.0,0.0,4.5972,0.0,0.0,0.0,0.0,3.9865,3.8003,3.5282,3.3699,0.0,0.0,2.8517,2.7929,2.8621,2.6386,0.0,0.0,2.1362,1.9529,1.8629,1.6295,1.451,1.3666,1.1767,1.0533,1.0222,0.8234,0.6707,0.5664,0.5609,0.5226,0.4519,0.4532,0.4532,0.4477,0.4504,0.4455,0.4281,0.1401,-0.1569,-0.4343,-0.4442,-0.449,-0.4477,-0.4477,-0.4421,-0.4082,-0.2567,-0.2119,-0.2512,-0.3984,-0.4497,-0.4442,-0.4442,-0.4435,-0.4421,-0.4477,-0.4477,-0.4511,-0.45,-0.4448,-0.3664,-0.0729,-0.0,-0.0,-0.0,-0.0,-0.0,-0.0,-0.0067,-0.0135,-0.0135,-0.2976,-0.3107,0.3976,0.229,0.1213,0.4669,0.5199,0.3963,0.0472,-0.0,-0.0,-0.0,0.3674,0.6089,0.6084,0.4173,0.3156,0.3473,0.348,0.3516,0.3514,0.3517,0.3556,0.3718,0.5648,0.6773,0.6999,0.676,0.6774,0.6781,0.6767,0.6761,0.0,0.0,4.9514,4.8841,0.0,0.0,0.0,0.0,0.0,0.0,0.0,0.0,0.0,3.7633,3.5959,3.3724,3.2122,3.0332,0.0,2.4475,2.1963,2.1223,2.1215,2.1035,0.0,0.0,1.6243,1.5521,1.3446,1.1831,1.1077,0.9704,0.8706,0.8097,0.6743,0.5881,0.5483,0.5062,0.4746,0.4477,0.449,0.4504,0.4448,0.2411,0.1513,0.1457,0.0449,-0.056,-0.1679,-0.3655,-0.4497,-0.4477,-0.4477,-0.4477,-0.4415,-0.3916,-0.3749,-0.3799,-0.4304,-0.4477,-0.4477,-0.4477,-0.4525,-0.4525,-0.4525,-0.447,-0.4262,-0.3288,-0.3738,-0.3798,-0.0773,-0.0,-0.0,-0.0,-0.0,-0.0,-0.0,-0.0,-0.0,-0.0,0.0942,0.2555,0.4998,0.4384,0.3565,0.3627,0.4613,0.4974,0.3699,0.2679,0.2025,0.2028,0.335,0.4731,0.6167,0.5662,0.5308,0.5606,0.5612,0.5671,0.5633,0.5638,0.5655,0.5605,0.6386,0.68,0.6934,0.6967,0.694,0.6847,0.6847,0.6793,4.9064,4.7955,0.0,4.5993,4.4903,0.0,4.2181,0.0,4.1009,0.0,0.0,0.0,0.0,0.0,3.3621,3.1896,2.9753,2.7253,0.0,2.0926,1.8092,1.6481,1.7026,1.7234,1.6574,1.4582,1.3159,1.28,1.0917,0.9549,0.0,0.7923,0.7012,0.6565,0.5605,0.5164,0.5164,0.4691,0.4477,0.4477,0.4504,0.4511,0.4399,0.1401,-0.0,-0.0,-0.0,-0.0,-0.0167,-0.2691,-0.3705,-0.3744,-0.4311,-0.4477,-0.4525,-0.4484,-0.4477,-0.447,-0.4519,-0.4519,-0.4519,-0.4519,-0.4519,-0.4519,-0.4519,-0.4525,-0.415,-0.2659,-0.2542,-0.2481,-0.0478,-0.0,-0.0,-0.0,-0.0,-0.0,-0.0,-0.0,-0.0,-0.0,0.2898,0.5413,0.5406,0.5399,0.4979,0.3818,0.4634,0.5413,0.5467,0.4643,0.4087,0.4242,0.4225,0.4779,0.6222,0.6311,0.6428,0.6579,0.664,0.6743,0.681,0.678,0.68,0.6793,0.6833,0.6873,0.7007,0.6939,0.6885,0.6844,0.679,0.6986]},{"header":{"parameterUnit":"m.s-1","parameterCategory":1,"la1":30.6,"la2":29.2853,"lo1":-89.7004,"lo2":-87.6739,"dy":0.0162,"dx":0.0183,"nx":112,"ny":82,"refTime":"2024-02-28T18:00:00:Z","depth":0,"parameterNumber":3,"parameterNumberName":"V-component_of_WINDS"},"data":[0.0,0.0,0.0,0.0,0.0,0.0,0.0,0.0,0.0,0.0,0.0,0.0,0.0,0.0,0.0,0.0,0.0,0.0,0.0,0.0,0.0,0.0,0.0,0.0,0.0,0.0,0.0,0.0,0.0,0.0,0.0,0.0,0.0,0.0,0.0,0.0,0.0,0.0,0.0,0.0,0.0,0.0,0.0,0.0,0.0,0.0,0.0,0.0,0.0,0.0,0.0,0.0,0.0,0.0,0.0,0.0,0.0,0.0,0.0,0.0,0.0,0.0,0.0,0.0,0.0,0.0,0.0,0.0,0.0,0.0,0.0,0.0,0.0,0.0,0.0,0.0,0.0,0.0,0.0,0.0,0.0,0.0,0.0,0.0,0.0,0.0,0.0,0.0,0.0,0.0,0.0,0.0,0.0,0.0,0.0,0.0,0.0,0.0,0.0,0.0,0.0,0.0,0.0,0.0,0.0,0.0,0.0,0.0,0.0,0.0,0.0,0.0,0.0,0.0,0.0,0.0,0.0,0.0,0.0,0.0,0.0,0.0,0.0,0.0,0.0,0.0,0.0,0.0,0.0,0.0,0.0,0.0,0.0,0.0,0.0,0.0,0.0,0.0,0.0,0.0,0.0,0.0,0.0,0.0,0.0,0.0,0.0,0.0,0.0,0.0,0.0,0.0,0.0,0.0,0.0,0.0,0.0,0.0,0.0,0.0,0.0,0.0,0.0,0.0,0.0,0.0,0.0,0.0,0.0,0.0,0.0,0.0,0.0,0.0,0.0,0.0,0.0,0.0,0.0,0.0,0.0,0.0,0.0,0.0,0.0,0.0,0.0,0.0,0.0,0.0,0.0,0.0,0.0,0.0,0.0,0.0,0.0,0.0,0.0,0.0,0.0,0.0,0.0,0.0,0.0,0.0,0.0,0.0,0.0,0.0,0.0,0.0,0.0,0.0,0.0,0.0,0.0,0.0,0.0,0.0,0.0,0.0,0.0,0.0,0.0,0.0,0.0,0.0,0.0,0.0,0.0,0.0,0.0,0.0,0.0,0.0,0.0,0.0,0.0,0.0,0.0,0.0,0.0,0.0,0.0,0.0,0.0,0.0,0.0,0.0,0.0,0.0,0.0,0.0,0.0,0.0,0.0,0.0,0.0,0.0,0.0,0.0,0.0,0.0,0.0,0.0,0.0,0.0,0.0,0.0,0.0,0.0,0.0,0.0,0.0,0.0,0.0,0.0,0.0,0.0,0.0,0.0,0.0,0.0,0.0,0.0,0.0,0.0,0.0,0.0,0.0,0.0,0.0,0.0,0.0,0.0,0.0,0.0,0.0,0.0,0.0,0.0,0.0,0.0,0.0,0.0,0.0,0.0,0.0,0.0,0.0,0.0,0.0,0.0,0.0,0.0,0.0,0.0,0.0,0.0,0.0,0.0,0.0,0.0,0.0,0.0,0.0,0.0,0.0,0.0,0.0,0.0,0.0,0.0,0.0,0.0,0.0,0.0,0.0,0.0,0.0,0.0,0.0,0.0,0.0,0.0,0.0,0.0,0.0,0.0,0.0,0.0,0.0,0.0,0.0,0.0,0.0,0.0,0.0,0.0,0.0,0.0,0.0,0.0,0.0,0.0,0.0,0.0,0.0,0.0,0.0,0.0,0.0,0.0,0.0,0.0,0.0,0.0,0.0,0.0,0.0,0.0,0.0,0.0,0.0,0.0,0.0,0.0,0.0,0.0,0.0,0.0,0.0,0.0,0.0,0.0,0.0,0.0,0.0,0.0,0.0,0.0,0.0,0.0,0.0,0.0,0.0,0.0,0.0,0.0,0.0,0.0,0.0,0.0,0.0,0.0,0.0,0.0,0.0,0.0,0.0,0.0,0.0,0.0,0.0,0.0,0.0,0.0,0.0,0.0,0.0,0.0,0.0,0.0,0.0,0.0,0.0,0.0,0.0,0.0,0.0,0.0,0.0,0.0,0.0,0.0,0.0,0.0,0.0,0.0,0.0,0.0,0.0,0.0,0.0,0.0,0.0,0.0,0.0,0.0,0.0,0.0,0.0,0.0,0.0,0.0,0.0,0.0,0.0,0.0,0.0,0.0,0.0,0.0,0.0,0.0,0.0,0.0,0.0,0.0,0.0,0.0,0.0,0.0,0.0,0.0,0.0,0.0,0.0,0.0,0.0,0.0,0.0,0.0,0.0,0.0,0.0,0.0,0.0,0.0,0.0,0.0,0.0,0.0,0.0,0.0,0.0,0.0,0.0,0.0,0.0,0.0,0.0,0.0,0.0,0.0,0.0,0.0,0.0,0.0,0.0,0.0,0.0,0.0,0.0,0.0,0.0,0.0,0.0,0.0,0.0,0.0,0.0,0.0,0.0,0.0,0.0,0.0,0.0,0.0,0.0,0.0,0.0,0.0,0.0,0.0,0.0,0.0,0.0,0.0,0.0,0.0,0.0,0.0,0.0,0.0,0.0,0.0,0.0,0.0,0.0,0.0,0.0,0.0,0.0,0.0,0.0,0.0,0.0,0.0,0.0,0.0,0.0,0.0,0.0,0.0,0.0,0.0,0.0,0.0,0.0,0.0,0.0,0.0,0.0,0.0,0.0,0.0,0.0,0.0,0.0,0.0,0.0,0.0,0.0,0.0,0.0,0.0,0.0,0.0,0.0,0.0,0.0,0.0,0.0,0.0,0.0,0.0,0.0,0.0,0.0,0.0,0.0,0.0,0.0,0.0,0.0,0.0,0.0,0.0,0.0,0.0,0.0,0.0,0.0,0.0,0.0,0.0,0.0,0.0,0.0,0.0,0.0,0.0,0.0,0.0,0.0,0.0,0.0,0.0,0.0,0.0,0.0,0.0,0.0,0.0,0.0,0.0,0.0,0.0,0.0,0.0,0.0,0.0,0.0,0.0,0.0,0.0,0.0,0.0,0.0,0.0,0.0,0.0,0.0,0.0,0.0,0.0,0.0,0.0,0.0,0.0,0.0,0.0,0.0,0.0,0.0,0.0,0.0,0.0,0.0,0.0,0.0,0.0,0.0,0.0,0.0,0.0,0.0,0.0,0.0,0.0,0.0,0.0,0.0,0.0,0.0,0.0,0.0,0.0,0.0,0.0,0.0,0.0,0.0,0.0,0.0,0.0,0.0,0.0,0.0,0.0,0.0,0.0,0.0,0.0,0.0,0.0,0.0,0.0,0.0,0.0,0.0,0.0,0.0,0.0,0.0,0.0,0.0,0.0,0.0,0.0,0.0,0.0,0.0,0.0,0.0,0.0,0.0,0.0,0.0,0.0,0.0,0.0,0.0,0.0,0.0,0.0,0.0,0.0,0.0,0.0,0.0,0.0,0.0,0.0,0.0,0.0,0.0,0.0,0.0,0.0,0.0,0.0,0.0,0.0,0.0,0.0,0.0,0.0,0.0,0.0,0.0,0.0,0.0,0.0,0.0,0.0,0.0,0.0,0.0,0.0,0.0,0.0,0.0,0.0,0.0,0.0,0.0,0.0,0.0,0.0,0.0,0.0,0.0,0.0,0.0,0.0,0.0,0.0,0.0,0.0,0.0,0.0,0.0,0.0,0.0,0.0,0.0,0.0,0.0,0.0,0.0,0.0,0.0,0.0,0.0,0.0,0.0,0.0,0.0,0.0,0.0,0.0,0.0,0.0,0.0,0.0,0.0,0.0,0.0,0.0,0.0,0.0,0.0,0.0,0.0,0.0,0.0,0.0,0.0,0.0,0.0,0.0,0.0,0.0,0.0,0.0,0.0,0.0,0.0,0.0,0.0,0.0,0.0,0.0,0.0,0.0,0.0,0.0,0.0,0.0,0.0,0.0,0.0,0.0,0.0,0.0,0.0,0.0,0.0,0.0,0.0,0.0,0.0,0.0,0.0,0.0,0.0,0.0,-0.0,0.0,0.0,0.0,0.0,0.0,0.0,0.0,0.0,0.0,0.0,0.0,0.0,0.0,0.0,0.0,0.0,0.0,0.0,0.0,0.0,0.0,0.0,0.0,0.0,0.0,0.0,0.0,0.0,0.0,0.0,0.0,0.0,0.0,0.0,0.0,0.0,0.0,0.0,0.0,0.0,0.0,0.0,0.0,0.0,0.0,0.0,0.0,0.0,0.0,0.0,0.0,0.0,0.0,0.0,0.0,0.0,0.0,0.0,0.0,0.0,0.0,0.0,0.0,0.0,0.0,0.0,0.0,0.0,0.0,0.0,0.0,0.0,0.0,0.0,0.0,0.0,0.0,0.0,0.0,0.0,0.0,0.0,0.0,0.0,0.0,0.0,0.0,0.0,0.0,0.0,0.0,0.0,0.0,0.0,0.0,0.0,0.0,0.0,0.0,0.0,0.0,0.0,0.0,0.0,0.0,0.0,0.0,0.0,0.0,0.0,0.0,-0.2814,-0.9657,0.0,0.0,0.0,0.0,0.0,0.0,0.0,0.0,0.0,0.0,0.0,0.0,0.0,0.0,0.0,0.0,0.0,0.0,0.0,0.0,0.0,0.0,0.0,0.0,0.0,0.0,0.0,0.0,0.0,0.0,0.0,0.0,0.0,0.0,0.0,0.0,0.0,0.0,0.0,0.0,0.0,0.0,0.0,0.0,0.0,0.0,0.0,0.0,0.0,0.0,0.0,0.0,0.0,0.0,0.0,0.0,0.0,0.0,0.0,0.0,0.0,0.0,0.0,0.0,0.0,0.0,0.0,0.0,0.0,0.0,0.0,0.0,0.0,0.0,0.0,0.0,0.0,0.0,0.0,0.0,0.0,0.0,0.0,0.0,0.0,0.0,0.0,0.0,0.0,0.0,0.0,0.0,0.0,0.0,0.0,0.0,0.0,0.0,0.0,0.0,0.0,0.0,0.0,0.0,0.0,0.0,0.0,0.0,0.0,-0.3494,-0.7939,-1.3309,0.0,0.0,0.0,0.0,0.0,0.0,0.0,0.0,0.0,0.0,0.0,0.0,0.0,0.0,0.0,0.0,0.0,0.0,0.0,0.0,0.0,0.0,0.0,0.0,0.0,0.0,0.0,0.0,0.0,0.0,0.0,0.0,0.0,0.0,0.0,0.0,0.0,0.0,0.0,0.0,0.0,0.0,0.0,0.0,0.0,0.0,0.0,0.0,0.0,0.0,0.0,0.0,0.0,0.0,0.0,0.0,0.0,0.0,0.0,0.0,0.0,0.0,0.0,0.0,0.0,0.0,0.0,0.0,0.0,0.0,0.0,0.0,0.0,0.0,0.0,0.0,0.0,0.0,0.0,0.0,0.0,0.0,0.0,0.0,0.0,0.0,0.0,0.0,0.0,0.0,0.0,0.0,0.0,0.0,0.0,0.0,0.0,0.0,0.0,0.0,0.0,0.0,0.0,0.0,0.0,0.0,0.0,0.0,0.0,-0.8727,-1.3837,-1.2665,0.0,0.0,0.0,0.0,0.0,0.0,0.0,0.0,0.0,0.0,0.0,0.0,0.0,0.0,0.0,0.0,0.0,0.0,0.0,0.0,0.0,0.0,0.0,0.0,0.0,0.0,0.0,0.0,0.0,0.0,0.0,0.0,0.0,0.0,0.0,0.0,0.0,0.0,0.0,0.0,0.0,0.0,0.0,0.0,0.0,0.0,0.0,0.0,0.0,0.0,0.0,0.0,0.0,0.0,0.0,0.0,0.0,0.0,0.0,0.0,1.7188,0.0,0.0,0.0,0.0,0.0,0.0,0.0,0.0,0.0,0.0,0.0,0.0,0.0,0.0,0.0,0.0,0.0,0.0,0.0,0.0,0.0,0.0,0.0,0.0,0.0,0.0,0.0,0.0,0.0,0.0,0.0,0.0,0.0,0.0,0.0,0.0,0.0,0.0,0.0,0.0,0.0,0.0,0.0,0.0,0.0,0.0,0.0,0.0,-0.8698,-1.4024,-1.3596,-1.3261,0.0,0.0,0.0,0.0,0.0,0.0,0.0,0.0,0.0,0.0,0.0,0.0,0.0,0.0,0.0,0.0,0.0,0.0,0.0,0.0,0.0,0.0,0.0,0.0,0.0,0.0,0.0,0.0,0.0,0.0,0.0,0.0,0.0,0.0,0.0,0.0,0.0,0.0,0.0,0.0,0.0,0.0,0.0,0.0,0.0,0.0,0.0,0.0,0.0,0.0,0.0,0.0,0.0,0.0,0.0,0.0,0.0,0.0,0.0,0.0,1.7277,0.0,0.0,0.0,0.0,0.0,0.0,0.0,0.0,0.0,0.0,0.0,0.0,0.0,0.0,0.0,0.0,0.0,0.0,0.0,0.0,0.0,0.0,0.0,0.0,0.0,0.0,0.0,0.0,0.0,0.0,0.0,0.0,0.0,0.0,0.0,0.0,0.0,0.0,0.0,0.0,0.0,0.0,0.0,0.0,0.0,0.0,0.0,-0.6634,-1.1594,-1.3585,-1.35,0.0,0.0,0.0,0.0,0.0,0.0,0.0,0.0,0.0,0.0,0.0,0.0,0.0,0.0,0.0,0.0,0.0,0.0,0.0,0.0,0.0,0.0,0.0,0.0,0.0,0.0,0.0,0.0,0.0,0.0,0.0,0.0,0.0,0.0,0.0,0.0,0.0,0.0,0.0,0.0,0.0,0.0,0.0,0.0,0.0,0.0,0.0,0.0,0.0,0.0,0.0,0.0,0.0,1.8498,1.8674,1.8993,1.8993,1.8711,1.8111,1.669,1.589,1.5895,1.6962,0.0,0.0,0.0,0.0,0.0,0.0,0.0,0.0,0.0,0.0,0.0,0.0,0.0,0.0,0.0,0.0,0.0,0.0,0.0,0.0,0.0,0.0,0.0,0.0,0.0,0.0,0.0,0.0,0.0,0.0,0.0,0.0,0.0,0.0,0.0,0.0,0.0,0.0,0.0,0.0,0.0,0.0,0.0,0.0,0.0,-0.4391,-0.9,-1.3594,-1.3614,-1.3315,0.0,0.0,0.0,0.0,0.0,0.0,0.0,0.0,0.0,0.0,0.0,0.0,0.0,0.0,0.0,0.0,0.0,0.0,0.0,0.0,0.0,0.0,0.0,0.0,0.0,0.0,0.0,0.0,0.0,0.0,0.0,0.0,1.6435,1.6686,0.0,0.0,0.0,0.0,0.0,0.0,0.0,0.0,0.0,0.0,0.0,0.0,0.0,1.864,1.9217,1.9183,1.9128,1.9094,1.9217,1.9183,1.8993,1.8993,1.8764,1.8058,1.2156,0.0,1.1933,1.4985,0.0,0.0,0.0,0.0,0.0,0.0,0.0,0.0,0.0,0.0,0.0,0.0,0.0,0.0,0.0,0.0,0.0,0.0,0.0,0.0,0.0,0.0,0.0,0.0,0.0,0.0,0.0,0.0,0.0,0.0,0.0,0.0,0.0,0.0,0.0,0.0,0.0,0.0,0.0,0.0,0.0,0.0,0.0,0.0,0.0,-0.4348,-0.896,-1.3542,-1.3475,-1.3139,-1.2942,-1.2522,0.0,0.0,0.0,0.0,0.0,0.0,0.0,0.0,0.0,0.0,0.0,0.0,0.0,0.0,0.0,0.0,0.0,0.0,0.0,0.0,0.0,0.0,0.0,0.0,0.0,0.0,0.0,0.0,0.0,1.6775,1.6917,1.6883,1.7161,1.7324,0.0,0.0,0.0,0.0,0.0,0.0,0.0,0.0,0.0,1.8708,1.885,1.9081,1.9434,1.9434,1.9522,1.9712,1.9854,1.9963,1.9997,2.0098,1.9876,1.9339,1.6457,1.3373,1.0743,1.4831,1.685,1.7387,0.0,0.0,0.0,0.0,1.4165,1.6564,1.4118,0.9132,0.0,0.3624,0.0,0.0,0.0,0.0,0.0,0.0,0.0,0.0,0.0,0.0,0.0,0.0,0.0,0.0,0.0,0.0,0.0,0.0,0.0,0.0,0.0,0.0,0.0,0.0,0.0,0.0,0.0,0.0,0.0,0.0,0.0,0.0,0.0,-0.429,-0.9069,-1.3449,-1.3482,-1.3159,-1.284,-1.2481,-1.2216,0.0,0.0,0.0,0.0,0.0,0.0,0.0,0.0,0.0,0.0,0.0,0.0,0.0,0.0,0.0,0.0,0.0,0.0,0.0,0.0,0.0,0.0,0.0,0.0,0.0,0.0,0.0,0.0,1.7127,1.7277,1.706,1.7467,1.765,0.0,0.0,0.0,0.0,0.0,0.0,1.8355,1.8762,1.9135,1.9434,1.9468,1.961,1.9834,1.9834,2.001,2.0383,2.0505,2.0702,2.0967,2.0808,2.0821,2.0734,2.0627,1.6529,1.0237,1.5341,1.7411,1.7449,1.5603,1.5873,1.6639,1.2257,1.1478,1.2647,1.2732,0.7167,0.0,0.0,0.0,0.0,0.0,0.0,0.0,0.0,0.0,0.0,0.0,0.0,0.0,0.0,0.0,0.0,0.0,0.0,0.0,0.0,0.0,0.0,0.0,0.0,0.0,0.0,0.0,0.0,0.0,0.0,0.0,0.0,0.0,-0.0996,-0.3363,-0.5771,-0.8971,-1.3475,-1.3482,-1.32,-1.2752,-1.286,-1.2899,-1.2741,0.0,0.0,0.0,0.0,0.0,0.0,0.0,0.0,0.0,0.0,0.0,0.0,0.0,0.0,0.0,0.0,0.0,0.0,0.0,0.0,0.0,0.0,0.0,0.0,0.0,0.0,0.0,0.0,0.0,1.7182,1.7704,0.0,0.0,0.0,0.0,1.8023,1.8464,1.883,1.9128,1.9447,1.9752,2.0051,2.0187,2.0485,2.0912,2.0933,2.1001,2.1157,2.1157,2.1279,2.1489,2.1082,2.1265,2.1218,2.0801,1.6472,1.0179,1.619,1.8396,1.7599,1.0956,1.2398,1.7725,1.6849,0.9918,0.0819,0.0811,0.0402,0.0,0.0,0.0,0.0,0.0,0.0,0.0,0.0,0.0,0.0,0.0,0.0,0.0,0.0,0.0,0.0,0.0,0.0,0.0,0.0,0.0,0.0,0.0,0.0,0.0,0.0,0.0,0.0,0.0,0.0,0.0,0.0,0.0,-0.3683,-1.2841,-0.9685,-0.9057,-1.3477,-1.3579,-1.32,-1.2752,-1.4096,-1.4767,-1.4591,-1.5896,0.0,0.0,0.0,0.0,0.0,0.0,0.0,0.0,0.0,0.0,0.0,0.0,0.0,0.0,0.0,0.0,0.0,0.0,0.0,0.0,0.0,0.0,0.0,0.0,0.0,0.0,0.0,0.0,1.8321,1.8796,0.0,1.8654,1.8565,1.8599,1.8796,1.904,1.9413,1.9908,2.0119,2.0505,2.1089,2.1068,2.1211,2.1564,2.1475,2.1496,2.1638,2.1455,2.1455,2.1397,1.663,1.7049,2.1494,2.0673,1.399,0.4253,1.4902,1.9138,1.763,0.6878,0.4217,0.6303,0.617,0.3486,0.0,0.0,0.0,0.0,0.0,0.0,0.0,0.0,0.0,0.0,0.0,0.0,0.0,0.0,0.0,0.0,0.0,0.0,0.0,0.0,0.0,0.0,0.0,0.0,0.0,0.0,0.0,0.0,0.0,0.0,0.0,0.0,-0.5352,-0.9338,-0.9689,-0.6773,-0.6246,-0.9475,-1.1036,-1.2454,-1.3689,-1.3526,-1.3676,-1.4445,-1.4834,-1.5276,-1.6093,-1.6511,-1.7357,0.0,0.0,0.0,0.0,0.0,0.0,0.0,0.0,0.0,0.0,0.0,0.0,0.0,0.0,0.0,0.0,0.0,0.0,0.0,0.0,0.0,0.0,0.0,0.0,0.0,0.0,1.8864,1.9183,1.961,1.9786,1.9535,1.9413,1.9434,1.9569,1.982,2.0173,2.0682,2.0845,2.1157,2.1652,2.1618,2.1686,2.1882,2.1794,2.1794,2.1882,2.1638,2.1597,2.1484,1.396,1.1965,1.4274,1.373,0.8286,0.0754,0.9358,1.553,1.7921,0.502,0.0,0.0,0.0,0.0,0.0,0.0,0.0,0.0,0.0,0.0,0.0,0.0,0.0,0.0,0.0,0.0,0.0,0.0,0.0,0.0,0.0,0.0,0.0,0.0,0.0,0.0,0.0,0.0,0.0,0.0,0.0,0.0,0.0,-0.2543,-0.4588,-0.4879,-0.9035,-1.2639,-1.4604,-1.2052,-0.9829,-0.9636,-1.2541,-1.4489,-1.465,-1.4376,-1.4854,-1.6265,-1.6629,-1.7008,-1.7833,-1.7817,-1.8243,-1.9018,0.0,0.0,0.0,0.0,0.0,0.0,0.0,0.0,0.0,0.0,0.0,0.0,0.0,0.0,0.0,0.0,0.0,0.0,0.0,0.0,0.0,0.0,0.0,1.7901,1.8674,1.9359,1.9664,2.0098,2.0187,1.9766,1.9976,2.0207,2.0363,2.077,2.1157,2.1455,2.1597,2.1686,2.1706,2.1828,2.1903,2.1903,2.1882,2.1882,2.1882,2.174,2.1726,2.1538,1.4169,0.6876,0.0,0.0,0.0,0.0,0.0,0.7621,1.7788,0.4942,0.0,0.0,0.0,0.0,0.0,0.0,0.0,0.0,0.0,0.0,0.0,0.0,0.0,0.0,0.0,0.0,0.0,0.0,0.0,0.0,0.0,0.0,0.0,0.0,0.0,0.0,0.0,0.0,-0.0,-0.0337,-0.0337,-0.0338,-0.0171,-0.7635,0.0,-1.4156,-1.0234,-0.9052,-1.3855,-1.4631,-1.4618,-1.4397,-1.439,-1.4985,-1.6467,-1.6245,-1.6503,-1.7822,-1.9393,-2.0029,-1.9492,-1.9928,-2.008,-1.9905,0.0,0.0,0.0,0.0,0.0,0.0,0.0,0.0,0.0,0.0,0.0,0.0,0.0,0.0,0.0,0.0,0.0,0.0,0.0,0.0,0.0,0.0,1.8267,1.8477,1.9379,2.0173,2.058,2.0933,2.1089,2.0967,2.0933,2.1021,2.1285,2.1421,2.1706,2.2215,2.1971,2.1971,2.231,2.2147,2.2093,2.2215,2.1991,2.1937,2.2038,2.1672,2.1564,2.1652,1.4133,0.6854,0.0,0.0,0.0,0.0,0.0,0.2134,0.5068,0.1335,0.0,0.0,0.0,0.0,0.0,0.0,0.0,0.0,0.0,0.0,0.0,0.0,0.0,0.0,0.0,0.0,0.0,0.0,0.0,0.0,0.0,0.0,0.0,0.0,0.0,0.0,0.0,0.0,-0.1877,-0.7941,-0.9049,-0.7974,-0.51,-0.6773,0.0,-1.3475,-1.2866,-1.2692,-1.4356,-1.4563,-1.4543,-1.4529,-1.4434,-1.4283,-1.4318,-1.4984,-1.6103,-1.7369,-1.8887,-1.9951,-2.0554,-2.0394,-2.0438,0.0,0.0,0.0,0.0,0.0,0.0,0.0,0.0,0.0,0.0,0.0,0.0,0.0,0.0,0.0,0.0,0.0,0.0,0.0,0.0,0.0,0.0,1.8355,1.8952,1.9434,2.0139,2.0804,2.1319,2.1584,2.172,2.172,2.1638,2.1686,2.1937,2.195,2.2093,2.2445,2.2215,2.2201,2.2466,2.2303,2.2269,2.2432,2.2127,2.2004,2.2038,2.1652,2.1496,2.153,1.7258,0.9714,0.0,0.0,0.0,0.0,0.0,0.0,0.0,0.0,0.0,0.0,0.0,0.0,0.0,0.0,0.0,0.0,0.0,0.0,0.0,0.0,0.0,0.0,0.0,0.0,0.0,0.0,0.0,0.0,0.0,0.0,0.0,0.0,0.0,0.0,0.0,-0.3066,0.0,-0.955,-1.1386,-1.17,-0.9462,-0.9254,-1.0501,-1.3402,-1.379,-1.3905,-1.4231,-1.4245,-1.4231,-1.4231,-1.4102,0.0,0.0,0.0,-1.7149,-1.9161,-1.9855,0.0,0.0,0.0,-2.1059,-2.1167,0.0,0.0,0.0,-2.0375,-2.0287,0.0,0.0,0.0,0.0,0.0,0.0,0.0,0.0,0.0,0.0,0.0,0.0,0.0,0.0,0.0,0.0,1.904,1.98,2.056,2.0967,2.1374,2.1882,2.2059,2.2127,2.2127,2.2127,2.2181,2.2357,2.2357,2.2391,2.2425,0.0,0.0,0.0,0.0,2.2391,2.25,2.2215,2.2038,2.1937,2.1638,2.1482,2.1421,2.1411,1.358,0.0,0.0,0.0,0.0,0.0,0.0,0.0,0.0,0.0,0.0,0.0,0.0,0.0,0.0,0.0,0.0,0.0,0.0,0.0,0.0,0.0,0.0,0.0,0.0,0.0,0.0,0.0,0.0,0.0,0.0,0.0,0.0,-0.0876,-0.1547,-0.1559,-0.7518,-1.1605,-0.8094,-1.034,-1.2663,-1.292,-1.3039,-1.3177,-1.3586,-1.3702,-1.3682,-1.3824,0.0,0.0,-1.3817,-1.3688,-1.4217,-1.5597,-1.6802,-1.8877,-2.1806,-2.1504,-2.12,-2.0875,-2.1773,-2.1768,-2.0708,-2.1707,-2.1354,-1.9849,-2.0545,-1.9725,0.0,0.0,0.0,0.0,0.0,0.0,0.0,0.0,0.0,0.0,0.0,0.0,0.0,0.0,0.0,1.8905,1.9657,2.0451,2.1333,2.1916,2.2255,2.2249,2.2269,2.2289,2.2289,2.2181,2.2215,2.25,2.252,2.2676,2.3029,2.271,2.2567,2.2696,2.2466,2.2289,2.2201,2.2025,2.1882,2.1774,0.0,0.0,2.1272,2.1356,1.35,0.0,0.0,0.0,0.0,0.0,0.0,0.0,0.0,0.0,0.0,0.0,0.0,0.0,0.0,0.0,0.0,0.0,0.0,0.0,0.0,0.0,0.0,0.0,0.0,0.0,0.0,0.0,0.0,0.0,0.0,0.0,0.0,-0.5608,-1.0762,-1.087,-0.9342,-0.8865,-1.1412,-1.2332,-1.2741,-1.2775,-1.2969,-1.3085,-1.3288,-1.3498,-1.3682,-1.3824,-1.3838,-1.3797,-1.3682,-1.3532,-1.3356,-1.3241,-1.5416,-1.7992,-2.1182,-2.2397,-2.2813,-2.2108,-2.3059,-2.31,-2.2322,-2.1969,-2.1623,-2.1355,-2.1485,-2.0366,0.0,0.0,0.0,0.0,0.0,0.0,0.0,0.0,0.0,0.0,0.0,1.7399,1.7704,0.0,1.885,1.9447,2.0173,2.0933,2.1672,2.2221,2.2554,2.2554,2.2567,2.2534,2.2445,2.2378,2.2432,2.2656,2.2676,2.2798,2.3097,2.2764,2.2622,2.2784,2.2425,2.2235,2.2255,2.1971,2.1781,2.1981,2.1679,1.7723,1.0761,1.0681,0.6706,0.0,0.0,0.0,0.0,0.0,0.0,0.0,0.0,0.0,0.0,0.0,0.0,0.0,0.0,0.0,0.0,0.0,0.0,0.0,0.0,0.0,0.0,0.0,0.0,0.0,0.0,0.0,0.0,0.0,0.0,-0.1254,-0.6065,-1.0404,-1.3441,-1.3356,-1.1524,-1.0628,-1.2736,-1.2802,-1.2773,-1.2834,-1.2847,-1.2901,-1.3051,-1.32,-1.3322,-1.339,-1.3403,-1.337,-1.3302,-1.2949,-1.3267,-1.4449,-1.5662,-1.7719,-2.0996,-2.2434,-2.2899,-2.2112,-2.3877,-2.4356,-2.341,-2.3568,-2.3277,-2.2374,-2.2868,-2.1793,0.0,0.0,0.0,0.0,0.0,0.0,0.0,1.7914,1.7812,1.7629,1.7806,1.8077,1.8301,1.904,1.9712,2.0031,2.0716,2.1408,2.1937,2.2378,2.2696,2.2852,2.2818,2.273,2.2608,2.2574,2.2622,2.2764,2.2818,2.2886,2.3042,2.2764,2.2642,2.2751,2.2344,2.2181,2.2586,2.054,2.0612,2.2187,2.1645,1.3948,0.0,0.0,0.0,0.0,0.0,0.0,0.0,0.0,0.0,0.0,0.0,0.0,0.0,0.0,0.0,0.0,0.0,0.0,0.0,0.0,0.0,0.0,0.0,0.0,0.0,0.0,0.0,0.0,0.0,0.0,-0.0539,-0.2333,-0.2688,-0.4474,-1.1303,-1.3079,-1.3389,-1.333,-1.3144,-1.299,-1.2929,-1.2739,-1.2556,-1.2834,-1.2739,-1.2691,-1.2813,-1.2854,-1.2881,-1.2915,-1.2888,-1.3006,-1.3261,-1.2885,-1.3801,-1.6884,-1.6737,-1.799,-2.0996,-2.2523,-2.2991,-2.2311,-2.4761,-2.5587,-2.4372,-2.5118,-2.4698,-2.3268,-2.4175,-2.3298,2.001,1.9447,1.8674,1.8233,1.8023,1.7846,0.0,1.7684,1.7935,1.8158,1.8335,1.862,1.9183,1.98,2.0363,2.0804,2.1496,2.2093,2.2432,2.2764,2.3008,2.3151,2.294,2.2784,2.2764,2.2642,2.2622,2.2764,2.2907,2.3049,2.3185,2.292,2.273,2.2943,2.2364,2.2099,2.1903,1.549,1.5388,2.1475,2.1319,1.3948,0.0,0.0,0.0,0.0,0.0,0.0,0.0,0.0,0.0,0.0,0.0,0.0,0.0,0.0,0.0,0.0,0.0,0.0,0.0,0.0,0.0,0.0,0.0,0.0,0.0,0.0,0.0,0.0,0.0,0.0,-0.2153,-1.0625,-1.2349,-1.1175,-0.8117,-1.0594,-1.333,-1.3191,-1.3057,-1.2901,-1.263,-1.2433,-1.2366,-1.2528,-1.2433,-1.2345,-1.2366,-1.2474,-1.2603,-1.2739,-1.2637,-1.3055,-1.4404,-1.4164,-1.5307,-1.8541,-1.8524,-1.9172,-2.0996,-2.3597,-2.4622,-2.3811,-2.5791,-2.6396,-2.5508,-2.4866,-2.4438,-2.4287,-2.4995,-2.4464,1.9291,1.8918,1.8552,1.8179,1.8179,1.8267,1.8321,1.8498,1.8674,1.8816,1.9094,1.9468,1.9976,2.0648,2.1197,0.0,2.1991,2.2445,2.2656,2.2798,2.2873,2.2832,2.2567,2.25,2.2764,2.273,2.271,2.2784,2.292,2.3029,2.3097,2.2852,2.2642,2.2799,1.8295,1.7849,2.216,1.8752,1.4508,0.9006,0.8986,0.5765,0.0,0.0,0.0,0.0,0.0,0.0,0.0,0.0,0.0,0.0,0.0,0.0,0.0,0.0,0.0,0.0,0.0,0.0,0.0,0.0,0.0,0.0,0.0,0.0,0.0,0.0,-0.3949,-0.8269,-0.8269,-0.6068,-0.4965,-0.8879,-1.184,-1.3165,-1.1177,-1.2021,-1.3158,-1.315,-1.2963,-1.263,-1.2413,-1.2182,-1.204,-1.2101,-1.2135,-1.2155,-1.2155,-1.221,-1.2237,-1.221,-1.2149,-1.2719,-1.4112,-1.4123,-1.5366,-1.868,-1.8547,-1.9042,-2.0855,-2.3047,-2.3942,-2.3113,-2.5106,-2.584,-2.4961,-2.4355,-2.4405,-2.4995,-2.5051,-2.5763,1.8918,1.8708,1.8654,1.8409,1.8498,1.8742,1.904,1.9257,1.9413,1.9556,1.9888,2.0295,2.0661,2.1319,2.1828,2.1937,2.2357,2.271,2.2832,2.2764,2.2642,2.2445,2.2059,2.195,2.2344,2.252,2.2622,2.2656,2.2832,2.294,2.294,2.271,2.1657,1.9532,1.6216,1.4986,1.6015,1.5637,1.0387,0.0,0.0,0.0,0.0,0.0,0.0,0.0,0.0,0.0,0.0,0.0,0.0,0.0,0.0,0.0,0.0,0.0,0.0,0.0,0.0,0.0,0.0,0.0,0.0,0.0,0.0,0.0,-0.0539,-0.3231,-0.899,-1.4263,-1.4209,-1.1384,-0.8619,-0.859,-1.1128,-1.3633,-1.3593,-1.3351,-1.3083,-1.303,-1.2657,-1.2325,-1.2135,-1.185,-1.1647,-1.1647,-1.1742,-1.1843,-1.1932,-1.1938,-1.1864,-1.1667,-1.2114,-1.2978,-1.437,-1.4882,-1.6277,-1.8992,-1.8799,-1.9173,-2.0428,-2.2299,-2.2901,-2.2176,-2.4225,-2.5,-2.4238,-2.4167,-2.4459,-2.5204,-2.5822,-2.7325,1.9271,1.9183,1.9149,1.9006,1.8972,1.9061,1.9345,1.9644,1.9976,2.0417,2.075,2.1021,2.1157,2.1686,2.2093,2.2113,2.2608,2.2995,2.3008,2.2744,2.2445,2.216,2.1475,2.1123,2.1319,2.1828,2.2201,2.2337,2.2622,2.2784,2.2784,2.2554,1.925,1.216,1.8557,1.5077,0.08,0.053,0.0526,0.0,0.0,0.0,0.0,0.0,0.0,0.0,0.0,0.0,0.0,0.0,0.0,0.0,0.0,0.0,0.0,0.0,0.0,0.0,0.0,0.0,0.0,0.0,0.0,0.0,0.0,0.0,-0.1974,-1.1167,-1.409,-1.4236,-1.3872,-1.3637,-1.3591,-1.3415,-1.333,-1.3118,-1.3424,-1.3186,-1.2888,-1.2583,-1.2277,-1.1979,-1.1687,-1.1389,-1.1185,-1.1185,-1.1185,-1.1301,-1.1592,-1.1633,-1.1518,-1.1212,-1.2828,-1.4362,-1.5492,-1.7249,-1.8716,-2.0064,-1.9867,-1.9826,-1.9826,-2.1612,-2.2388,-2.1892,-2.3607,-2.4238,-2.3809,-2.4456,-2.4808,-2.4893,-2.7965,-2.9451,1.9291,1.9345,1.9522,1.9576,1.98,2.0098,2.0404,2.0627,2.0804,2.0946,2.0912,2.0892,2.1034,2.1319,2.1584,2.1794,2.2323,2.2744,2.2852,2.2852,2.252,2.1618,2.1387,2.1109,2.0594,2.1075,2.1618,2.2387,2.2524,2.2668,2.2874,2.2641,2.1364,1.8799,1.1413,0.5101,0.0,0.0,0.0,0.0,0.0,0.0,0.0,0.0,0.0,0.0,0.0,0.0,0.0,0.0,0.0,0.0,0.0,0.0,0.0,0.0,0.0,0.0,0.0,0.0,0.0,0.0,0.0,0.0,0.0,-0.4489,-1.0083,-1.3362,-1.4169,-1.4041,-1.3974,-1.38,-1.3599,-1.3607,-1.341,-1.3234,-1.3132,-1.2868,-1.2596,-1.24,-1.204,-1.2135,-1.3043,-1.3082,-1.3336,-1.4411,-1.2658,-1.1607,-1.2951,-1.3106,-1.3384,-1.4086,-1.476,-1.5652,-1.6915,-1.7348,-1.8289,-1.984,-1.9492,-1.9543,-2.0544,-2.1324,-2.2045,-2.2494,-2.3448,-2.3789,-2.3359,-2.4292,-2.521,-2.5964,-2.8361,-3.0008,1.94,1.9746,2.0173,2.0315,2.0736,2.1143,2.1285,2.1387,2.1408,2.1245,2.0933,2.0668,2.0614,2.0627,2.079,2.1197,2.1638,2.2093,2.2622,2.252,2.2113,2.1408,2.1068,2.0473,1.976,1.9965,1.9352,1.8366,1.8528,1.8696,1.8582,2.0998,2.2338,2.2338,0.7817,0.0,0.0,0.0,0.0,0.0,0.0,0.0,0.0,0.0,0.0,0.0,0.0,0.0,0.0,0.0,0.0,0.0,0.0,0.0,0.0,0.0,0.0,0.0,0.0,0.0,-0.0552,-0.4003,-0.5056,-0.4845,-0.3046,-0.6812,-1.2045,-1.3807,-1.4055,-1.3921,-1.38,-1.3749,-1.3512,-1.3356,-1.3166,-1.2976,-1.2827,-1.2603,-1.2352,-1.2101,-1.2198,-1.273,-1.3595,-1.4205,-1.487,-1.6072,-1.4343,-1.33,-1.4441,-1.4522,-1.475,-1.5584,-1.6115,-1.6642,-1.7271,-1.7685,-1.8345,-1.9229,-1.9207,-1.9509,-2.0352,-2.1151,-2.1862,-2.2387,-2.3161,-2.3575,-2.3714,-2.4872,-2.6191,-2.7636,-2.9681,-3.1406,1.9678,2.037,2.1068,2.1231,2.1706,2.2093,2.1937,2.1882,2.174,2.1285,2.0804,2.0363,1.9908,1.9712,1.9834,2.0417,2.0682,2.1231,2.2398,2.1828,2.1353,0.0,0.0,0.0,0.0,0.0,0.0,1.0455,0.0,1.0543,1.056,1.7424,2.1063,2.1083,0.7462,0.0,0.0,0.0,0.0,0.0,0.0,0.0,0.0,0.0,0.0,0.0,0.0,0.0,0.0,0.0,0.0,0.0,0.0,0.0,0.0,0.0,-0.0385,-0.075,-0.0742,-0.0735,-0.2182,-1.1019,-1.409,-1.3528,-0.8769,-0.7502,-0.8377,-1.2729,-1.3928,-1.384,-1.3702,-1.3498,-1.3342,-1.3186,-1.2935,-1.2684,-1.2528,-1.2379,-1.2149,-1.1846,-1.3161,-1.4147,-1.3772,-1.5128,-1.6152,-1.6141,-1.6141,-1.6094,-1.6186,-1.6035,-1.5822,-1.5706,-1.6863,-1.7514,-1.702,-1.8389,-1.9092,-1.8531,-1.9049,-1.9406,-1.9509,-2.1004,-2.1841,-2.1933,-2.272,-2.3627,-2.4787,-2.5964,-2.7556,-2.9528,-3.1602,-3.3488,2.0471,2.1068,2.1584,2.195,2.2255,2.2378,2.2113,2.1971,2.1652,2.0878,2.0275,1.9712,1.9149,1.9203,1.9522,2.0119,2.0912,2.1706,2.2445,2.2554,2.2303,2.1597,0.0,2.0501,1.8843,1.9166,0.0,0.0,0.2878,0.2916,0.2964,0.4564,0.5639,0.5671,0.2117,0.0,0.0,0.0,0.0,0.0,0.0,0.0,0.0,0.0,0.0,0.0,0.0,0.0,0.0,0.0,0.0,0.0,0.0,0.0,0.0,0.0,-0.452,-1.0601,-1.0594,-1.069,-1.0475,-0.933,-1.1314,-1.4037,-1.2851,-1.2443,-1.2759,-1.3894,-1.4029,-1.381,-1.3526,-1.3302,-1.3057,-1.2881,-1.2786,-1.2657,-1.24,-1.2223,-1.2459,-1.3387,-1.5706,-1.7335,-1.6989,-1.8392,-1.9437,-1.91,-1.9075,-1.879,-1.7782,-1.7506,-1.7804,-1.8592,-1.8974,-1.9153,-1.879,-1.8731,-1.8651,-1.8504,-1.885,-1.9558,-2.0548,-2.1346,-2.23,-2.3229,-2.3183,-2.3627,-2.4787,-2.5964,-2.7556,-2.9528,-3.1602,-3.326,2.1197,2.176,2.2255,2.2642,2.2832,2.2784,2.2147,2.1794,2.1285,2.0173,1.9481,1.8905,1.8375,1.8409,1.8776,1.9569,2.0363,2.1245,2.2303,2.25,2.2378,2.2004,1.8793,0.0,1.8538,1.9364,1.4123,0.0,0.0,0.0,0.0,0.0,0.0,0.0,0.0,0.0,0.0,0.0,0.0,0.0,0.0,0.0,0.0,0.0,0.0,0.0,0.0,0.0,0.0,0.0,0.0,0.0,0.0,0.0,0.0,0.0,-0.6126,-1.4218,-1.4356,-1.4222,-1.3781,-1.103,-1.1937,-1.4278,-1.4129,-1.278,-1.1128,-1.1074,-1.139,-1.1511,-1.1322,-1.2112,-1.284,-1.2671,-1.2583,-1.2454,-1.2155,-1.1972,-1.2474,-1.4579,-1.689,-1.8605,-1.9199,-1.9931,-2.0428,-2.0254,-2.0227,-1.9876,-1.8913,-1.879,-1.9044,-1.9708,-1.9573,-1.9292,-1.9011,-1.8557,-1.8455,-1.894,-1.9523,-2.0357,-2.1565,-2.2333,-2.2953,-2.3516,-2.3767,-2.4382,-2.5546,-2.7047,-2.8856,-3.0913,-3.2835,-3.4316,2.1903,2.2445,2.294,2.3185,2.3327,2.3117,2.2059,2.1462,2.0736,1.9393,1.8654,1.8124,1.767,1.7623,1.8002,1.9081,1.9644,2.0505,2.216,2.2147,2.2113,2.2785,1.5448,1.1921,1.587,1.6832,1.2471,0.0793,0.0,0.0,0.0,0.0,0.0,0.0,0.0,0.0,0.0,0.0,0.0,0.0,0.0,0.0,0.0,0.0,0.0,0.0,0.0,0.0,0.0,0.0,0.0,0.0,0.0,0.0,0.0,0.0,-0.6061,-1.4262,-1.4296,-1.3938,-1.3423,-1.3954,-1.4122,-1.4263,-1.4077,-1.1317,-0.7973,-0.7792,-0.8501,-0.9336,-0.915,-1.0776,-1.2637,-1.2481,-1.2332,-1.2149,-1.1864,-1.1942,-1.3076,-1.5795,-1.7558,-1.8863,-2.0315,-2.0347,-2.016,-2.012,-2.012,-2.0013,-1.972,-1.9746,-1.9773,-1.9693,-1.9225,-1.8811,-1.8517,-1.8223,-1.8452,-1.9613,-2.0496,-2.1404,-2.2411,-2.3237,-2.3644,-2.3398,-2.4317,-2.5462,-2.673,-2.8621,-3.0664,-3.2778,-3.4317,-3.5707,2.2656,2.3063,2.3347,2.3395,2.3239,2.2818,2.176,2.1068,2.0275,1.8918,1.8267,1.7812,1.7351,1.748,1.807,1.9379,1.9963,2.0824,2.2479,2.2554,2.254,2.3073,1.5989,0.9093,0.3791,0.3231,0.0,0.0,0.0,0.0,0.0,0.0,0.0,0.0,0.0,0.0,0.0,0.0,0.0,0.0,0.0,0.0,0.0,0.0,0.0,0.0,0.0,0.0,0.0,0.0,0.0,0.0,0.0,0.0,0.0,0.0,-0.5996,-1.4289,-1.4319,-1.1631,-0.9052,-1.2873,-1.4,-1.3947,-1.4175,-1.3686,-1.286,-1.1898,-1.1745,-1.1905,-1.1584,-1.1895,-1.2199,-1.2182,-1.202,-1.1864,-1.1694,-1.3547,-1.5805,-1.7607,-1.9234,-2.0139,-2.004,-1.9907,-1.9786,-1.9559,-1.9519,-1.9412,-1.9118,-1.9506,-1.9613,-1.9132,-1.8985,-1.8811,-1.8517,-1.8223,-1.8548,-1.994,-2.03,-2.1252,-2.2786,-2.3104,-2.3799,-2.4939,-2.4911,-2.5775,-2.7844,-2.8934,-3.0882,-3.3636,-3.4044,-3.5486,2.3347,2.37,2.3877,2.3714,2.3395,2.2744,2.1299,2.0451,1.9556,1.8124,1.7602,1.7338,1.7121,1.7392,1.7948,1.909,1.9681,2.0594,2.218,2.2695,2.291,2.3252,1.966,1.2899,0.11,0.0,0.0,0.0,0.0,0.0,0.0,0.0,0.0,0.0,0.0,0.0,0.0,0.0,0.0,0.0,0.0,0.0,0.0,0.0,0.0,0.0,0.0,0.0,0.0,0.0,0.0,0.0,0.0,0.0,0.0,0.0,-0.2872,-0.7648,-1.2638,-1.278,-1.0795,-1.0688,-1.2149,-1.4013,-1.3873,-1.3554,-1.326,-1.2599,-1.2582,-1.2521,-1.2258,-1.2213,-1.2128,-1.1891,-1.2359,-1.2974,-1.3767,-1.572,-1.7455,-1.8105,-1.9261,-2.0134,-1.9853,-1.9679,-1.9533,-1.9386,-1.9372,-1.9319,-1.9172,-1.9265,-1.9185,-1.8744,-1.8544,-1.8397,-1.8277,-1.8614,-1.9284,-2.0523,-2.1345,-2.2214,-2.3355,-2.3949,-2.4559,-2.5037,-2.6074,-2.7313,-2.8802,-3.0808,-3.2514,-3.4009,-3.5689,-3.6669,2.3924,2.4189,2.4317,2.3978,2.3449,2.2588,2.0878,1.9868,1.8884,1.748,1.708,1.6978,1.6978,1.727,1.7704,1.85,1.9226,2.0337,2.1722,2.2644,2.3128,2.2995,2.3029,1.85,0.6134,0.1933,0.0,0.0,0.0,0.0,0.0,0.0,0.0,0.0,0.0,0.0,0.0,0.0,0.0,0.0,0.0,0.0,0.0,0.0,0.0,0.0,0.0,0.0,0.0,0.0,0.0,0.0,0.0,0.0,0.0,0.0,0.0,-0.1057,-0.8661,-1.2509,-1.3345,-0.755,-0.8148,-1.154,-1.2761,-1.2942,-1.2516,-1.2462,-1.243,-1.2333,-1.2106,-1.2032,-1.2031,-1.1973,-1.2943,-1.4297,-1.6166,-1.7411,-1.8348,-1.8404,-1.9248,-1.9786,-1.972,-1.9466,-1.9292,-1.9359,-1.9319,-1.9265,-1.9265,-1.9011,-1.8718,-1.8424,-1.817,-1.8104,-1.8372,-1.9002,-2.0015,-2.1312,-2.225,-2.3167,-2.4216,-2.4954,-2.5379,-2.5698,-2.7464,-2.8959,-3.0086,-3.2612,-3.4203,-3.479,-3.7072,-3.7631,2.4297,2.4419,2.444,2.3999,2.3151,2.2059,2.0661,1.9556,1.8518,1.7419,1.708,1.6978,1.6978,1.7012,1.7324,1.8179,0.0,1.9166,2.079,2.1791,2.2333,2.2496,2.2974,2.263,2.117,0.8311,0.0,0.0,0.0,0.0,0.0,0.0,0.0,0.0,0.0,0.0,0.0,0.0,0.0,0.0,0.0,0.0,0.0,0.0,0.0,0.0,0.0,0.0,0.0,0.0,0.0,0.0,0.0,0.0,0.0,0.0,0.0,-0.0176,-0.1048,-0.7007,-1.286,-0.3608,-0.0972,-0.2726,-1.0286,-1.2463,-1.2494,-1.2454,-1.232,-1.2126,-1.1972,-1.1782,-1.1973,-1.3006,-1.3394,-1.4325,-1.7274,-1.8046,-1.8392,-1.9494,-1.9721,-1.972,-1.9452,-1.9158,-1.9052,-1.9332,-1.9132,-1.8958,-1.8958,-1.8718,-1.841,-1.8116,-1.8063,-1.8345,-1.939,-1.9184,-2.0169,-2.2699,-2.2232,-2.3072,-2.5771,-2.5225,-2.5953,-2.8386,-2.9047,-3.0237,-3.2061,-3.3434,-3.5031,-3.6906,-3.6701,-3.7134,2.4209,2.465,2.4806,2.4189,2.3117,2.1848,2.0505,1.9237,1.8111,1.7243,1.7019,1.6978,1.6978,1.6978,1.7107,0.0,0.0,0.0,2.0267,2.0829,2.1534,2.2933,2.3102,1.9473,1.0034,0.3591,0.0,0.0,0.0,0.0,0.0,0.0,0.0,0.0,0.0,0.0,0.0,0.0,0.0,0.0,0.0,0.0,0.0,0.0,0.0,0.0,0.0,0.0,0.0,0.0,0.0,0.0,0.0,0.0,0.0,0.0,0.0,0.0,0.0,-0.5738,-1.2533,-0.882,-0.575,-0.4688,-1.0611,-1.244,-1.2286,-1.2266,-1.2291,-1.2094,-1.1782,-1.1463,-1.1797,-1.4155,-1.4688,-1.5515,-1.8729,-1.9267,-1.921,-1.9721,-1.9653,-1.9506,-1.9386,-1.9118,-1.8958,-1.9078,-1.8851,-1.8664,-1.8664,-1.9153,-1.9249,-1.8844,-1.8907,-1.9092,-1.9271,-2.0616,-2.1616,-2.2232,-2.3362,-2.4384,-2.5267,-2.6223,-2.7568,-2.9199,-3.0088,-3.1433,-3.3368,-3.4638,-3.5737,-3.6701,-3.7109,-3.7356,2.4131,2.4838,2.488,2.4277,2.3008,2.1597,2.0383,1.8993,1.7772,1.7114,1.691,1.6876,1.6978,1.6951,1.6937,0.0,0.0,1.7641,1.9476,2.0037,2.1035,2.2529,1.8893,1.2015,0.1089,0.0,0.0,0.0,0.0,0.0,0.0,0.0,0.0,0.0,0.0,0.0,0.0,0.0,0.0,0.0,0.0,0.0,0.0,0.0,0.0,0.0,0.0,0.0,0.0,0.0,0.0,0.0,0.0,0.0,0.0,0.0,0.0,0.0,0.0,-0.5324,-1.2308,-1.2308,-1.0095,-0.8112,-1.1287,-1.2152,-1.2038,-1.2025,-1.1993,-1.1735,-1.1484,-1.1118,-1.1541,-1.4766,-1.5413,-1.6305,-1.9421,-1.9947,-1.9773,-1.9693,-1.9506,-1.9372,-1.9372,-1.9118,-1.8918,-1.8918,-1.8677,-1.8601,-1.9016,-1.97,-2.0106,-2.0071,-2.0342,-2.0458,-2.0011,-2.19,-2.3037,-2.2866,-2.4655,-2.5744,-2.5797,-2.7556,-2.8959,-3.0012,-3.1342,-3.2919,-3.4638,-3.5403,-3.6141,-3.6801,-3.6827,-3.6571,2.4668,2.484,2.4494,2.4189,2.2778,2.1211,2.0315,1.883,1.7528,1.7073,1.6741,1.6625,1.6971,1.6876,1.6815,1.7005,0.0,0.0,1.8287,2.0073,2.1488,2.1312,0.8814,0.0255,0.0,0.0,0.0,0.0,0.0,0.0,0.0,0.0,0.0,0.0,0.0,0.0,0.0,0.0,0.0,0.0,0.0,0.0,0.0,0.0,0.0,0.0,0.0,0.0,0.0,0.0,0.0,0.0,0.0,0.0,0.0,0.0,0.0,0.0,0.0,-0.5071,-1.1541,-1.1541,-1.1785,-1.1782,-1.1636,-1.159,-1.1577,-1.1697,-1.1518,-1.1138,-1.0995,-1.0724,-1.1394,-1.4699,-1.5418,-1.6183,-1.9125,-1.98,-1.972,-1.9426,-1.9372,-1.9372,-1.9372,-1.9118,-1.8918,-1.8918,-1.8677,-1.903,-2.0288,-2.0223,-2.0406,-2.1387,-2.2322,-2.2847,-2.2357,-2.2997,-2.4009,-2.5326,-2.6081,-2.6976,-2.8004,-2.8959,-3.0012,-3.1167,-3.3064,-3.4699,-3.5967,-3.5366,-3.6042,-3.7718,-3.5617,-3.4303,2.2174,2.3672,2.3215,2.2687,2.1332,1.9746,1.9169,1.807,1.7121,1.6876,1.6659,1.6598,1.6842,1.6836,1.6856,1.7046,1.708,0.0,1.7371,1.7914,1.5498,0.7587,0.2811,0.0,0.0,0.0,0.0,0.0,0.0,0.0,0.0,0.0,0.0,0.0,0.0,0.0,0.0,0.0,0.0,0.0,0.0,0.0,0.0,0.0,0.0,0.0,0.0,0.0,0.0,0.0,0.0,0.0,0.0,0.0,0.0,0.0,0.0,0.0,0.0,-0.3358,-0.8145,-1.0755,-1.1691,-1.1616,-1.1569,-1.1556,-1.1509,-1.1436,-1.1124,-1.0873,-1.0934,-1.0649,-1.0849,-1.3104,-1.4318,-1.5408,-1.716,-1.8365,-1.9172,-1.9078,-1.9065,-1.9065,-1.9065,-1.8824,-1.8557,-1.8357,-1.8805,-1.943,-1.9836,-2.1183,-2.2124,-2.2136,-2.3615,-2.4224,-2.3123,-2.4108,-2.5138,-2.6059,-2.7706,-2.8699,-2.9012,-3.0251,-3.1596,-3.3168,-3.3724,-3.4422,-3.5382,-3.5916,-3.59,-3.5312,-3.4427,-3.3299,1.3182,1.7034,1.9465,2.0634,2.0283,1.918,1.8477,1.7575,1.7016,1.6686,1.6497,1.6435,1.648,1.6513,1.6775,1.6768,1.6835,1.6915,1.7069,1.6969,1.2733,0.1445,0.0,0.0,0.0,0.0,0.0,0.0,0.0,0.0,0.0,0.0,0.0,0.0,0.0,0.0,0.0,0.0,0.0,0.0,0.0,0.0,0.0,0.0,0.0,0.0,0.0,0.0,0.0,0.0,0.0,0.0,0.0,0.0,0.0,0.0,0.0,-0.032,-0.3152,-0.4797,-0.6225,-1.0087,-1.1424,-1.1355,-1.1301,-1.128,-1.1226,-1.0982,-1.0738,-1.0575,-1.067,-1.0446,-1.0545,-1.2085,-1.362,-1.4924,-1.6172,-1.7591,-1.8758,-1.8758,-1.8851,-1.8891,-1.8784,-1.8704,-1.8517,-1.8103,-1.9021,-1.997,-2.0349,-2.1943,-2.3213,-2.3746,-2.4775,-2.5309,-2.5209,-2.5936,-2.6607,-2.7058,-2.9036,-3.0113,-3.0113,-3.1721,-3.3042,-3.4044,-3.4285,-3.4691,-3.5372,-3.5613,-3.479,-3.2932,-3.2825,-3.2149,0.0,0.6158,1.3887,1.8106,1.9379,1.9219,1.7847,1.7236,0.0,1.6503,1.6266,1.6164,1.6292,1.6524,1.6571,1.6587,1.6086,1.5754,1.5823,1.5789,1.1776,0.1191,0.0,0.0,0.0,0.0,0.0,0.0,0.0,0.0,0.0,0.0,0.0,0.0,0.0,0.0,0.0,0.0,0.0,0.0,0.0,0.0,0.0,0.0,0.0,0.0,0.0,0.0,0.0,0.0,0.0,0.0,0.0,0.0,-0.0,-0.0647,-0.0792,-0.1715,-0.8398,-0.8479,-0.6365,-0.9853,-1.0902,-1.09,-1.0738,-1.0697,-1.067,-1.0521,-1.0371,-1.0263,-1.0276,-1.0148,-1.0348,-1.1655,-1.3113,-1.451,-1.5873,-1.7302,-1.8464,-1.8464,-1.8677,-1.8784,-1.8531,-1.8691,-1.8677,-1.8238,-1.9377,-2.0585,-2.1659,-2.2582,-2.3843,-2.5834,-2.5732,-2.6193,-2.7971,-2.8084,-2.8164,-2.8323,-3.0164,-3.1288,-3.1383,-3.314,-3.4113,-3.4179,-3.4673,-3.5241,-3.5758,-3.4579,-3.2895,-3.094,-3.1124,-3.0939,0.0,0.0,0.5503,1.5155,1.7256,1.6053,0.0,1.438,1.6198,1.6185,1.6035,1.5974,1.6004,1.6038,1.6307,1.6503,0.9373,0.3982,0.3961,0.3987,0.0,0.0246,0.0,0.0,0.0,0.0,0.0,0.0,0.0,0.0,0.0,0.0,0.0,0.0,0.0,0.0,0.0,0.0,0.0,0.0,0.0,0.0,0.0,0.0,0.0,0.0,0.0,0.0,0.0,0.0,0.0,0.0,0.0,0.0,-0.0638,-0.6184,-0.8229,-0.8436,-1.0104,-1.0215,-0.9842,-1.0464,-1.0705,-1.0724,-1.0466,-1.046,-1.0514,-1.0371,-1.0222,-1.0134,-1.0249,-0.9998,-0.9847,-1.0279,-1.219,-1.3942,-1.4176,-1.6246,-1.8156,-1.8156,-1.821,-1.8303,-1.8464,-1.8357,-1.8523,-1.942,-2.0628,-2.1643,-2.2582,-2.3463,-2.4467,-2.5446,-2.5937,-2.6761,-2.8028,-2.8084,-2.8797,-3.0392,-3.1583,-3.2626,-3.3376,-3.4059,-3.4579,-3.4873,-3.4012,-3.392,-3.4576,-3.2635,-3.1506,-3.1217,-3.0814,-3.0535,0.0,0.0,0.1457,0.7679,1.2737,1.5441,1.3307,1.4397,1.5893,1.5879,1.5811,1.5784,1.5696,1.5967,1.6096,1.6361,1.1539,0.5843,0.0639,0.0,0.0,0.0,0.0,0.0,0.0,0.0,0.0,0.0,0.0,0.0,0.0,0.0,0.0,0.0,0.0,0.0,0.0,0.0,0.0,0.0,0.0,0.0,0.0,0.0,0.0,0.0,0.0,0.0,0.0,0.0,0.0,0.0,0.0,0.0,-0.047,-0.4297,-0.7831,-1.0633,-1.0728,-1.0724,-1.0745,-1.0622,-1.0527,-1.0473,-1.0243,-1.0229,-1.027,-1.0195,-1.0066,-0.9964,-1.0046,-0.9842,-0.9724,-1.0436,-1.2197,-1.3831,-1.4265,-1.6186,-1.7836,-1.7836,-1.7956,-1.805,-1.8076,-1.8576,-1.9135,-1.9821,-2.1237,-2.2438,-2.2912,-2.4083,-2.5173,-2.613,-2.6835,-2.7749,-2.8971,-2.9023,-2.9682,-3.1093,-3.25,-3.3521,-3.4074,-3.4917,-3.5364,-3.5248,-3.3931,-3.3186,-3.3111,-3.1751,-3.094,-3.0685,-3.0497,-3.0379,0.0,0.0,0.0,0.0,0.7528,1.4869,1.5329,1.5562,1.5442,1.5608,1.5601,1.5594,1.5574,1.5723,1.594,0.0,0.0,1.1559,0.1334,0.0,0.0,0.0,0.0,0.0,0.0,0.0,0.0,0.0,0.0,0.0,0.0,0.0,0.0,0.0,0.0,0.0,0.0,0.0,0.0,0.0,0.0,0.0,0.0,0.0,0.0,0.0,0.0,0.0,0.0,0.0,0.0,0.0,0.0,0.0,0.0,0.0,-0.3785,-0.9098,-0.9745,-0.9914,-0.9914,-1.0283,-1.0263,-1.0215,-1.0059,-0.9998,-0.9985,-0.9985,-0.989,-0.9781,-0.9761,-0.9646,-0.9856,-1.1191,-1.2478,-1.3816,-1.5091,-1.658,-1.7569,-1.7528,-1.7769,-1.7903,-1.7689,-1.8964,-1.9956,-1.9879,-2.1645,-2.3051,-2.329,-2.4524,-2.5893,-2.7318,-2.7998,-2.8864,-3.0276,-3.0655,-3.1003,-3.1433,-3.3025,-3.4055,-3.4213,-3.5547,-3.5908,-3.5159,-3.3814,-3.2674,-3.1672,-3.1273,-3.0723,-3.0056,-3.0279,-3.0379,0.0,0.0,0.0,0.0,0.4414,1.0028,1.4189,1.5415,1.5452,1.5445,1.5445,1.5404,1.5276,1.5581,1.5832,0.0,0.0,0.7145,0.0,0.0,0.0,0.0,0.0,0.0,0.0,0.0,0.0,0.0,0.0,0.0,0.0,0.0,0.0,0.0,0.0,0.0,0.0,0.0,0.0,0.0,0.0,0.0,0.0,0.0,0.0,0.0,0.0,0.0,0.0,0.0,0.0,0.0,0.0,0.0,0.0,0.0,-0.0714,-0.2067,-0.5199,-0.6774,-0.7684,-0.9519,-1.0107,-1.0059,-0.9903,-0.9774,-0.968,-0.968,-0.9659,-0.9612,-0.9483,-0.9334,-0.9667,-1.0972,-1.2376,-1.3685,-1.4838,-1.6441,-1.7515,-1.7261,-1.7448,-1.7716,-1.7943,-1.8935,-1.9998,-2.1049,-2.224,-2.3502,-2.4816,-2.5233,-2.6321,-2.8846,-2.9192,-2.9857,-3.1249,-3.2711,-3.3264,-3.2825,-3.3084,-3.3767,-3.4889,-3.5397,-3.4963,-3.3502,-3.2537,-3.171,-3.1036,-3.0484,-3.0237,-3.0343,-3.0367,-3.0379,0.0,0.0,0.0,0.0,0.3757,0.871,1.3859,1.502,1.5072,1.5153,1.5174,1.5174,1.5181,0.0,1.5852,1.6212,0.0,0.9978,0.1151,0.0,0.0,0.0,0.0,0.0,0.0,0.0,0.0,0.0,0.0,0.0,0.0,0.0,0.0,0.0,0.0,0.0,0.0,0.0,0.0,0.0,0.0,0.0,0.0,0.0,0.0,0.0,0.0,0.0,0.0,0.0,0.0,0.0,0.0,0.0,0.0,0.0,0.0,-0.0265,-0.1943,-0.3939,-0.6264,-0.8995,-0.9964,-0.9897,-0.9747,-0.9659,-0.9578,-0.9408,-0.9422,-0.9469,-0.9401,-0.9831,-1.0707,-1.2153,-1.3535,-1.4843,-1.6125,-1.7055,-1.7502,-1.7208,-1.7261,-1.7549,-1.8128,-1.9295,-2.0571,-2.1769,-2.3335,-2.4524,-2.528,-2.6351,-2.7584,-2.8898,-3.0,-3.098,-3.1775,-3.2555,-3.3336,-3.4144,-3.4197,-3.4496,-3.5266,-3.5009,-3.4691,-3.4421,-3.2799,-3.192,-3.1758,-3.0706,-3.0267,-3.0379,-3.0379,-3.0379,0.0,0.0,0.0,0.0,0.2723,0.71,1.3269,1.4587,1.4651,1.4957,1.4943,1.495,1.5059,1.5411,0.0,1.7023,1.7351,1.3803,0.3434,0.0938,0.0,0.0,0.0,0.0,0.0,0.0,0.0,0.0,0.0,0.0,0.0,0.0,0.0,0.0,0.0,0.0,0.0,0.0,0.0,0.0,0.0,0.0,0.0,0.0,0.0,0.0,0.0,-0.0967,-0.2508,-0.258,-0.2078,-0.117,-0.0287,0.0,0.0,0.0,0.0,-0.0257,-0.1775,-0.3494,-0.541,-0.8769,-0.9842,-0.9747,-0.9646,-0.9794,-0.9909,-0.9781,-1.0001,-1.0181,-0.9838,-1.0747,-1.2192,-1.3627,-1.4656,-1.5741,-1.7069,-1.7576,-1.7688,-1.7502,-1.7691,-1.8153,-1.8784,-2.0361,-2.1665,-2.2535,-2.4585,-2.6152,-2.6168,-2.7867,-2.9263,-2.9595,-3.1254,-3.2433,-3.2793,-3.2476,-3.2999,-3.4798,-3.5095,-3.5114,-3.4947,-3.4516,-3.4311,-3.4325,-3.2746,-3.1914,-3.1905,-3.0906,-3.0379,-3.0379,-3.0379,-3.0379,0.0,0.0,0.0,0.0,0.0191,0.2885,1.2254,1.4397,1.462,1.4633,0.0,0.0,0.0,1.5357,1.6178,1.7209,1.7619,1.5647,0.9278,0.0,0.0,0.0,0.0,0.0,0.0,0.0,0.0,0.0,0.0,0.0,0.0,0.0,0.0,0.0,0.0,0.0,0.0,0.0,0.0,0.0,0.0,0.0,0.0,0.0,0.0,0.0,0.0,-0.3708,-0.9882,-0.9925,-0.7988,-0.4625,-0.126,0.0,0.0,0.0,0.0,-0.0885,-0.6967,-0.7256,-0.541,-0.8738,-0.9754,-0.9625,-0.9612,-1.0323,-1.1181,-1.1156,-1.2027,-1.2663,-1.1362,-1.211,-1.3501,-1.4911,-1.5141,-1.5311,-1.6518,-1.7654,-1.8331,-1.8119,-1.914,-2.0216,-2.028,-2.2232,-2.3756,-2.3352,-2.6173,-2.8265,-2.8369,-2.9817,-3.1304,-3.2654,-3.3487,-3.4195,-3.4844,-3.3673,-3.3357,-3.4288,-3.5065,-3.481,-3.3322,-3.387,-3.3175,-3.1012,-3.1238,-3.0959,-3.0189,-3.0343,-3.0379,-3.0379,-3.0379,-3.0379,0.0,0.0,0.0,0.0,0.0,0.2063,0.987,1.17,1.2259,1.4235,1.4825,0.0,0.0,0.0,1.6422,1.7283,1.7928,1.6175,0.9972,0.3851,0.0,0.0,0.0,0.0,0.0,0.0,0.0,0.0,0.0,0.0,0.0,0.0,0.0,0.0,0.0,0.0,0.0,0.0,0.0,0.0,0.0,0.0,0.0,0.0,0.0,-0.032,-0.4783,-0.823,-1.0637,-1.0633,-0.9859,-0.8063,-0.2278,0.0,-0.053,-0.4535,-0.6129,-0.6189,-0.662,-0.7138,-0.801,-0.9232,-1.0191,-1.0686,-1.0478,-1.1509,-1.2515,-1.2131,-1.3118,-1.4017,-1.253,-1.3773,-1.5615,-1.5971,-1.7264,-1.8464,-1.895,-1.9326,-1.9605,-1.9257,-1.9668,-2.0516,-2.1808,-2.2744,-2.4082,-2.5906,-2.7519,-2.8975,-2.996,-3.1048,-3.186,-3.2337,-3.3002,-3.3499,-3.3789,-3.3798,-3.3771,-3.361,-3.4326,-3.4467,-3.3813,-3.3586,-3.3178,-3.2618,-3.1732,-3.124,-3.1059,-3.0624,-3.0379,-3.0379,-3.0379,-3.0379,0.0,0.0,0.0,0.0,0.0,0.1655,0.7863,0.9351,1.0345,1.4248,1.5113,1.5303,1.571,0.0,0.0,0.0,1.7792,1.672,1.284,0.5182,0.0,0.0,0.0,0.0,0.0,0.0,0.0,0.0,0.0,0.0,0.0,0.0,0.0,0.0,0.0,0.0,0.0,0.0,0.0,0.0,0.0,0.0,0.0,0.0,-0.1288,-0.3698,-0.8632,-1.0718,-1.0754,-1.0594,-0.9977,-0.864,-0.4813,-0.3237,-0.3632,-0.8171,-0.9718,-0.936,-0.7123,-0.7741,-0.9446,-1.0023,-1.067,-1.1318,-1.1498,-1.2625,-1.3826,-1.3648,-1.4855,-1.5909,-1.5275,-1.6227,-1.7365,-1.7655,-1.9008,-2.0213,-2.0213,-2.0495,-2.0627,-2.0357,-2.0933,-2.1915,-2.3308,-2.4198,-2.5486,-2.7758,-2.9196,-3.0223,-3.0946,-3.2109,-3.2749,-3.2443,-3.2796,-3.3048,-3.3169,-3.3657,-3.381,-3.3415,-3.3857,-3.4036,-3.3841,-3.309,-3.2804,-3.3026,-3.1699,-3.1096,-3.1275,-3.0698,-3.0379,-3.0379,-3.0379,-3.0379,0.0,0.0,0.0,0.0,0.0,0.1277,0.6398,0.7527,0.9249,1.4859,1.5716,1.5276,1.5588,1.5886,0.0,0.0,0.0,1.7672,1.8642,0.8004,0.023,0.0,0.0,0.0,0.0,0.0,0.0,0.0,0.0,0.0,0.0,0.0,0.0,0.0,0.0,0.0,0.0,0.0,-0.0,-0.0177,-0.0173,-0.0,-0.0,-0.0,-0.4002,-1.073,-1.076,-1.075,-1.0677,-1.0524,-0.8474,-0.5781,-0.9313,-1.0297,-0.9784,-0.9777,-0.9581,-0.9427,-0.9526,-0.9419,-0.9511,-1.097,-1.1285,-1.1202,-1.2615,-1.3688,-1.4838,-1.6008,-1.7428,-1.8761,-1.9652,-1.9239,-1.8837,-2.0087,-2.0194,-1.9931,-1.9931,-2.0646,-2.1284,-2.1284,-2.3201,-2.4766,-2.4851,-2.6906,-2.85,-2.86,-3.1165,-3.2586,-3.1218,-3.3024,-3.4173,-3.3474,-3.3162,-3.3171,-3.3564,-3.3351,-3.3379,-3.378,-3.3807,-3.3559,-3.3045,-3.2422,-3.1861,-3.131,-3.0727,-3.0379,-3.0379,-3.0379,-3.0379,-3.0379,-3.0379,-3.0379,0.0,0.0,0.0,0.0,0.0,0.1268,0.6075,0.7194,0.8901,1.4467,1.5519,1.5432,1.5737,0.0,0.0,0.0,0.0,0.0,1.8156,1.5277,0.985,0.1112,0.0,0.0,0.0,0.0,0.0,0.0,0.0,0.0,0.0,0.0,0.0,0.0,0.0,0.0,0.0,0.0,-0.2948,-0.8826,-0.8335,-0.524,-0.0164,-0.5215,-0.8653,-1.063,-1.0709,-1.0541,-1.0406,-1.0223,-0.8695,-0.6396,-0.6337,-0.6171,-0.6311,-0.8612,-0.9334,-0.9248,-0.9345,-0.9853,-1.05,-1.0929,-1.2196,-1.3495,-1.3744,-1.5419,-1.726,-1.7309,-1.8388,-1.973,-2.0646,-2.0646,-2.0531,-2.0915,-2.1572,-2.2128,-2.2128,-2.2669,-2.3233,-2.3233,-2.4032,-2.5227,-2.6564,-2.7407,-2.863,-3.0719,-3.1363,-3.1732,-3.1942,-3.257,-3.2874,-3.2645,-3.2338,-3.2335,-3.2786,-3.3064,-3.3379,-3.378,-3.3256,-3.3044,-3.3269,-3.2522,-3.1931,-3.1584,-3.079,-3.0379,-3.0379,-3.0379,-3.0379,-3.0379,-3.0379,-3.0379,0.0,0.0,0.0,0.0,0.0,0.073,0.3711,0.0,0.0,0.0,1.5588,1.5655,1.6015,1.5998,0.0,0.0,0.0,0.0,0.0,1.4023,0.8566,0.0845,0.0,0.0,0.0,0.0,-0.1596,-0.5337,-0.5596,-0.4723,-0.2791,-0.2745,-0.2708,-0.268,-0.2635,-0.2437,-0.2437,-0.2376,-0.4858,-0.9903,-1.1089,-0.911,-0.4547,-0.726,-0.9179,-1.0512,-1.0604,-1.0424,-1.0129,-1.0073,-0.9094,-0.7787,-0.6703,-0.6291,-0.6437,-0.8268,-0.9298,-0.98,-0.9898,-1.0594,-1.162,-1.2143,-1.3566,-1.5233,-1.5575,-1.7216,-1.8925,-1.9076,-1.9637,-2.049,-2.1695,-2.2032,-2.2064,-2.1839,-2.2679,-2.3413,-2.3233,-2.3805,-2.433,-2.433,-2.5239,-2.6292,-2.7532,-2.8228,-2.9375,-3.1368,-3.1377,-3.1407,-3.2255,-3.2068,-3.1833,-3.1833,-3.1972,-3.2196,-3.2502,-3.2787,-3.3049,-3.3303,-3.2661,-3.2321,-3.2391,-3.1921,-3.1661,-3.1686,-3.0852,-3.0571,-3.0929,-3.0929,-3.0929,-3.0929,-3.0929,-3.0929,0.0,0.0,0.0,0.0,0.0,0.0,0.0,0.669,1.3285,1.4275,0.0,1.5276,1.5291,1.548,1.4036,0.0,0.0,0.0,0.0,0.0,0.0,0.0,0.0,-0.0396,-0.1176,-0.1358,-0.4798,-1.2974,-1.4062,-1.2278,-0.7673,-0.7241,-0.7342,-0.727,-0.7017,-0.6799,-0.6785,-0.6564,-0.6287,-0.6435,-0.9867,-1.1399,-1.1078,-0.723,-0.7265,-1.0406,-1.0243,-1.0073,-0.9802,-0.9916,-0.987,-0.9606,-0.9346,-0.927,-0.9222,-0.8967,-0.9791,-1.0911,-1.1009,-1.1822,-1.2976,-1.4398,-1.548,-1.6484,-1.7772,-1.8877,-1.9884,-2.1016,-2.1098,-2.1262,-2.2804,-2.3286,-2.3283,-2.2792,-2.3349,-2.3948,-2.3583,-2.4224,-2.4902,-2.4912,-2.6404,-2.7666,-2.7784,-2.9056,-3.0248,-3.0917,-3.116,-3.1537,-3.2131,-3.1636,-3.1269,-3.1269,-3.1986,-3.2535,-3.2533,-3.2632,-3.2617,-3.2606,-3.2117,-3.1549,-3.0941,-3.0922,-3.12,-3.1686,-3.0929,-3.0929,-3.1814,-3.1814,-3.1814,-3.1814,-3.1814,-3.1814,0.0,0.0,0.0,0.0,0.0,0.0,0.0,0.156,0.4102,0.7963,0.9156,0.9448,0.9653,1.3233,1.557,0.0,0.0,0.0,0.0,0.0,0.0,0.0,0.0,-0.2909,-1.0395,-1.1177,-1.044,-0.8453,-1.1748,-1.335,-1.2283,-1.2068,-1.1819,-1.1686,-1.1559,-1.1392,-1.0863,-1.0487,-1.04,-1.0433,-1.0925,-1.1012,-1.0875,-0.9811,-0.9516,-0.9956,-0.9784,-0.9599,-0.9413,-1.0431,-1.085,-1.086,-1.1529,-1.1818,-1.1782,-1.1686,-1.1784,-1.2151,-1.313,-1.4171,-1.5354,-1.6704,-1.7859,-1.8703,-1.8632,-1.9491,-2.0586,-2.125,-2.2119,-2.2982,-2.4159,-2.4146,-2.3853,-2.3951,-2.4282,-2.467,-2.4703,-2.5177,-2.57,-2.5852,-2.657,-2.7503,-2.8681,-2.9143,-2.981,-3.1039,-3.1271,-3.1338,-3.1415,-3.1572,-3.166,-3.166,-3.2161,-3.2666,-3.3014,-3.3051,-3.2956,-3.2606,-3.2117,-3.1549,-3.0941,-3.108,-3.1378,-3.1698,-3.1506,-3.1814,-3.2622,-3.2622,-3.2622,-3.2622,-3.2622,-3.2622,0.0,0.0,0.0,0.0,0.0,0.0,0.0,0.0,0.0779,0.311,0.3916,0.3963,0.4242,0.6477,0.8482,0.8439,0.0,0.0,0.0,0.0,0.0,-0.6224,-0.6562,-0.7442,-1.0316,-1.2734,-1.2942,-1.0308,-1.2283,-1.3686,-1.3532,-1.3452,-1.3631,-1.4208,-1.3246,-1.3061,-1.3596,-1.2223,-1.1663,-1.157,-1.1061,-1.0719,-1.0412,-1.0161,-0.9923,-0.9613,-1.0051,-1.012,-1.006,-1.1347,-1.1819,-1.1809,-1.2822,-1.3303,-1.3362,-1.3788,-1.4276,-1.4948,-1.5899,-1.6973,-1.8148,-1.9117,-1.9992,-2.0771,-2.0837,-2.1326,-2.207,-2.294,-2.3318,-2.3735,-2.483,-2.4921,-2.4953,-2.5528,-2.5293,-2.5039,-2.5257,-2.6114,-2.6916,-2.7026,-2.7794,-2.8723,-2.9509,-3.0099,-3.0679,-3.1355,-3.1681,-3.185,-3.1839,-3.2021,-3.2195,-3.2292,-3.2393,-3.2712,-3.3496,-3.2661,-3.2181,-3.2404,-3.1897,-3.1429,-3.1097,-3.1722,-3.1941,-3.1698,-3.2083,-3.2699,-3.3506,-3.3506,-3.3506,-3.3506,-3.3545,-3.3583,0.0,0.0,0.0,0.0,0.0,0.0,-0.2145,-0.252,-0.2315,-0.1361,-0.059,0.0,0.0,0.0,0.0,0.0,0.0,0.0,0.0,-0.1494,-0.5374,-1.3156,-1.3752,-1.1971,-0.8257,-1.1513,-1.3713,-1.364,-1.3499,-1.3505,-1.3816,-1.3661,-1.4388,-1.5932,-1.4345,-1.3839,-1.4976,-1.3039,-1.1796,-1.1457,-1.0853,-1.0404,-1.0102,-1.0046,-0.9884,-0.9752,-1.0956,-1.1313,-1.1307,-1.2585,-1.3111,-1.3116,-1.441,-1.503,-1.523,-1.6071,-1.7219,-1.8498,-1.9194,-2.0103,-2.1165,-2.1808,-2.2356,-2.2874,-2.3349,-2.3594,-2.3976,-2.5205,-2.4929,-2.4499,-2.5485,-2.5803,-2.6028,-2.6868,-2.6203,-2.5475,-2.6076,-2.7227,-2.8158,-2.8232,-2.9388,-3.0368,-3.0368,-3.1298,-3.1948,-3.1847,-3.2225,-3.2595,-3.2624,-3.2581,-3.2624,-3.2842,-3.2517,-3.2637,-3.3575,-3.2105,-3.1412,-3.2147,-3.177,-3.1501,-3.1516,-3.253,-3.2814,-3.216,-3.2776,-3.3545,-3.443,-3.443,-3.443,-3.4468,-3.4507,-3.4546,0.0,0.0,0.0,0.0,0.0,-0.2103,-1.0549,-1.24,-1.1162,0.0,-0.2871,0.0,0.0,0.0,0.0,0.0,0.0,0.0,0.0,-0.7091,-1.2651,-1.3401,-1.3702,-1.3423,-1.2884,-1.3101,-1.3472,-1.3478,-1.3322,-1.3973,-1.5545,-1.5366,-1.6104,-1.8025,-1.7317,-1.6049,-1.4542,-1.3874,-1.2581,-1.0833,-1.0229,-1.0357,-1.1033,-1.0835,-1.0777,-1.0737,-1.2128,-1.2549,-1.2358,-1.46,-1.5452,-1.568,-1.7882,-1.9027,-1.9482,-1.9607,-2.0528,-2.1869,-2.3008,-2.3645,-2.4152,-2.5323,-2.57,-2.5702,-2.5369,-2.5627,-2.6188,-2.6864,-2.6965,-2.6944,-2.731,-2.706,-2.6762,-2.6871,-2.667,-2.6796,-2.8334,-2.8779,-2.9095,-2.9592,-3.0657,-3.1401,-3.1401,-3.1985,-3.2468,-3.2701,-3.2793,-3.2936,-3.3141,-3.2893,-3.2699,-3.271,-3.2387,-3.22,-3.2352,-3.2108,-3.1996,-3.2185,-3.2286,-3.2378,-3.2432,-3.3465,-3.4007,-3.3943,-3.4007,-3.4468,-3.543,-3.543,-3.543,-3.5507,-3.5507,-3.5516,0.0,0.0,0.0,0.0,-0.4084,-0.9036,-1.3293,-1.4145,-1.3456,-1.1356,-0.9296,-0.6374,-0.0965,0.0,0.0,0.0,0.0,-0.183,-0.7248,-1.1325,-1.3748,-1.3819,-1.3581,-1.3383,-1.3459,-1.3244,-1.3561,-1.4754,-1.4502,-1.526,-1.718,-1.6766,-1.732,-1.9148,-1.7806,-1.6496,-1.5643,-1.4288,-1.2702,-1.1193,-1.0899,-1.1297,-1.2064,-1.3454,-1.3182,-1.1829,-1.3762,-1.4406,-1.424,-1.6532,-1.7751,-1.824,-1.9905,-2.14,-2.2575,-2.2853,-2.3897,-2.5228,-2.5669,-2.6063,-2.6647,-2.7787,-2.7937,-2.7683,-2.8042,-2.7577,-2.714,-2.8155,-2.7841,-2.7396,-2.7905,-2.7858,-2.7785,-2.8094,-2.821,-2.8513,-2.9597,-2.9443,-2.9503,-3.0697,-3.1827,-3.2613,-3.2886,-3.3166,-3.346,-3.3858,-3.3907,-3.377,-3.3403,-3.3216,-3.2968,-3.2618,-3.2012,-3.1906,-3.2508,-3.2126,-3.2088,-3.2577,-3.3149,-3.3475,-3.3552,-3.4466,-3.5007,-3.5084,-3.5007,-3.5199,-3.5661,-3.5654,-3.565,-3.5689,-3.5791,-3.5817,0.0,0.0,0.0,0.0,-0.6991,-1.3855,-1.3958,-1.3868,-1.3579,0.0,-1.3971,-1.1621,-0.3309,-0.0742,0.0,0.0,-0.2003,-0.5951,-1.309,-1.3657,-1.3507,-1.3733,-1.3385,-1.3117,-1.318,-1.3415,-1.4185,-1.573,-1.5888,-1.6738,-1.8777,-1.8238,-1.8671,-2.0383,-1.8755,-1.7524,-1.7086,-1.4641,-1.296,-1.2087,-1.1949,-1.2404,-1.3371,-1.5417,-1.5444,-1.4084,-1.5923,-1.6655,-1.6535,-1.849,-1.9791,-2.0737,-2.1929,-2.3438,-2.4985,-2.5632,-2.6863,-2.8173,-2.8099,-2.828,-2.877,-2.9574,-2.9402,-2.9066,-2.9837,-2.9181,-2.8405,-2.9341,-2.8881,-2.8215,-2.8562,-2.8663,-2.8729,-2.898,-2.9243,-2.9669,-3.0612,-3.044,-3.0503,-3.2,-3.3025,-3.3697,-3.3821,-3.3867,-3.3918,-3.4111,-3.415,-3.3904,-3.3354,-3.3089,-3.2779,-3.2348,-3.1546,-3.1503,-3.2545,-3.2057,-3.2172,-3.325,-3.3904,-3.4404,-3.4661,-3.529,-3.5675,-3.5738,-3.5699,-3.5699,-3.5738,-3.5746,-3.5741,-3.5783,-3.5879,-3.594,0.0,0.0,0.0,0.0,-0.633,-1.2758,-1.3257,-1.3217,-1.3171,-1.3311,-1.3492,-1.2017,-0.7525,-0.2992,0.0,0.0,-0.7132,-1.2935,-1.3333,-1.3488,-1.3257,-1.2966,-1.2936,-1.2868,-1.2576,-1.4068,-1.501,-1.5161,-1.6601,-1.829,-2.0094,-1.9818,-2.0521,-2.2176,-2.1357,-2.0119,-1.8419,-1.5366,-1.3742,-1.3373,-1.2772,-1.3566,-1.5316,-1.5325,-1.6469,-1.8447,-1.8945,-1.9246,-1.9498,-2.0316,-2.1569,-2.3231,-2.4519,-2.5794,-2.7023,-2.7594,-2.9039,-3.0633,-3.062,-3.048,-3.043,-3.0662,-3.0144,-2.9499,-2.9798,-3.024,-3.0612,-3.0711,-3.0675,-3.0446,-2.9794,-2.9637,-2.9454,-2.8795,-2.8898,-2.9635,-3.1616,-3.2281,-3.2794,-3.3706,-3.4292,-3.437,-3.3559,-3.3446,-3.3242,-3.2695,-3.2613,-3.2691,-3.2916,-3.225,-3.1789,-3.1763,-3.0943,-3.0852,-3.1773,-3.1811,-3.2543,-3.4315,-3.4469,-3.4841,-3.5584,-3.567,-3.5766,-3.5905,-3.5892,-3.5892,-3.5892,-3.588,-3.59,-3.5976,-3.5975,-3.5975,0.0,0.0,-0.108,-0.5645,-0.7437,-0.8763,-1.1733,-1.247,-1.2568,-1.2807,-1.2779,-1.2331,-1.0918,-0.47,0.0,0.0,-0.7256,-1.286,-1.2869,-1.286,-1.2827,-1.2769,-1.2684,-1.2488,-1.2379,-1.376,-1.5199,-1.6505,-1.8039,-1.9611,-2.1483,-2.1022,-2.0889,-2.1577,-2.0722,-1.9253,-1.7032,-1.4709,-1.4145,-1.5246,-1.4695,-1.5744,-1.8055,-1.8559,-1.9219,-2.0112,-2.1029,-2.1288,-2.1165,-2.2644,-2.3765,-2.4645,-2.5097,-2.638,-2.7897,-2.77,-2.8857,-3.0552,-3.0116,-3.0283,-3.0736,-3.1145,-3.1038,-3.0844,-3.1182,-3.1102,-3.0852,-3.0852,-3.0528,-3.0092,-2.9816,-2.9787,-2.9792,-2.9719,-3.019,-3.094,-3.1779,-3.2351,-3.277,-3.3129,-3.3933,-3.4464,-3.4143,-3.3624,-3.3211,-3.2976,-3.2952,-3.2774,-3.2327,-3.202,-3.1609,-3.1044,-3.121,-3.1492,-3.185,-3.288,-3.3821,-3.4481,-3.4969,-3.5426,-3.5828,-3.5816,-3.5867,-3.5982,-3.5982,-3.5947,-3.5943,-3.5943,-3.5985,-3.6016,-3.6016,-3.6016,0.0,-0.1739,-0.4689,-0.9568,-0.8999,-0.8099,-1.1021,-1.1775,-1.2074,-1.2121,-1.2115,-1.2182,-1.2273,-0.7582,-0.3388,-0.1986,-0.7581,-1.2255,-1.2256,-1.2246,-1.2232,-1.2379,-1.2585,-1.2845,-1.2787,-1.4719,-1.6535,-1.7938,-1.9368,0.0,-2.1846,-2.1336,-2.1064,-2.1244,-2.0794,-1.9709,-1.7873,-1.6377,-1.6317,-1.7698,-1.6987,-1.7834,-2.0203,-2.0585,-2.106,-2.1719,-2.2553,-2.2805,-2.2775,-2.3878,-2.4957,-2.6026,-2.6029,-2.7113,-2.8656,-2.8464,-2.9384,-3.0665,-3.0306,-3.0446,-3.0909,-3.1325,-3.1219,-3.1053,-3.1424,-3.1168,-3.0766,-3.0766,-3.0414,-3.0056,-3.0068,-3.0095,-3.0188,-3.0341,-3.1057,-3.1636,-3.1476,-3.2442,-3.3307,-3.3288,-3.3966,-3.4411,-3.4091,-3.333,-3.2645,-3.2385,-3.2347,-3.2115,-3.1553,-3.1476,-3.1332,-3.1081,-3.1555,-3.2153,-3.2771,-3.3868,-3.4665,-3.4991,-3.5494,-3.5839,-3.5939,-3.593,-3.5969,-3.6008,-3.6008,-3.5982,-3.6016,-3.6016,-3.6016,-3.6016,-3.6016,-3.6016,0.0,0.0,0.0,-1.0709,-1.1047,-1.1214,-1.1074,-1.1248,-1.1545,-1.1396,-1.1484,-1.1502,-1.1517,-1.1576,-1.0322,-0.6176,-0.8962,-1.1644,-1.1645,-1.177,-1.1755,-1.1606,-1.2989,-1.3922,-1.3874,-1.7089,-1.9107,-1.924,-2.072,-2.1491,-2.1195,-2.0899,-2.0911,-2.1427,-2.1978,-2.2022,-2.1492,-2.0344,-2.0147,-2.0855,-1.9512,-1.9868,-2.1637,-2.109,-2.1808,-2.3499,-2.352,-2.3834,-2.434,-2.377,-2.5061,-2.7367,-2.7445,-2.8163,-2.9278,-3.0024,-3.0631,-3.1091,-3.1376,-3.1196,-3.0938,-3.1178,-3.0685,-3.0042,-3.033,-3.0467,-3.0506,-3.0518,-3.0544,-3.0612,-3.0626,-3.0592,-3.0592,-3.0592,-3.1254,-3.1682,-3.082,-3.2666,-3.4494,-3.4474,-3.4471,-3.4244,-3.3343,-3.248,-3.1625,-3.0742,-3.0592,-3.0631,-3.0631,-3.067,-3.0981,-3.1843,-3.1966,-3.2679,-3.4433,-3.4643,-3.5033,-3.5937,-3.6016,-3.6016,-3.6016,-3.6016,-3.6016,-3.6016,-3.6016,-3.6016,-3.6016,-3.6016,-3.6016,-3.6016,-3.6016,-3.6016,-0.7781,0.0,0.0,0.0,0.0,0.0,-1.0575,-1.0677,-1.0792,-1.0751,-1.086,-1.0982,-1.0893,-1.0914,-1.0456,-0.9228,-1.0339,-1.1305,-1.1057,-1.2078,-1.2897,-1.2744,-1.4121,-1.5111,-1.5054,-1.6829,-1.8262,0.0,-2.0657,-2.1891,-2.272,-2.2168,-2.1992,-2.2215,-2.2381,-2.2329,-2.2135,-2.1786,-2.195,-2.2587,-2.1404,-2.1746,-2.3276,-2.2405,-2.235,-2.2995,-2.3269,-2.3699,-2.4322,-2.4708,-2.5734,-2.6992,-2.6582,-2.742,-2.8876,-2.8659,-2.9319,-3.0316,-3.0385,-3.0487,-3.0546,-3.0637,-3.051,-3.033,-3.0444,-3.0506,-3.0513,-3.0543,-3.0627,-3.0703,-3.0781,-3.0811,-3.0811,-3.0811,-3.1476,-3.1876,-3.1014,-3.283,-3.4438,-3.3759,-3.4197,-3.4365,-3.3504,-3.2645,-3.1825,-3.0968,-3.0811,-3.1046,-3.167,-3.1749,-3.2061,-3.2883,-3.3547,-3.4127,-3.4619,-3.5243,-3.5725,-3.5976,-3.6016,-3.6016,-3.6016,-3.6016,-3.6016,-3.6016,-3.6016,-3.6016,-3.6016,-3.6016,-3.6016,-3.6016,-3.6016,-3.6016,-1.0751,-0.9256,-0.8025,-0.9914,0.0,0.0,-1.0154,-1.0202,-1.0397,-1.0885,-1.1292,-1.1562,-1.2123,-1.221,-1.2162,-1.2089,-1.2263,-1.2163,-1.138,-1.2203,-1.2942,-1.3286,-1.5206,-1.6508,-1.6409,-1.8171,-1.9734,-2.0529,-2.1115,-2.1978,-2.3095,-2.3255,-2.3331,-2.3636,-2.4232,-2.4364,-2.3783,-2.4061,-2.4258,-2.4396,-2.3232,-2.3354,-2.449,-2.3312,-2.3071,-2.3568,-2.3588,-2.3921,-2.4576,-2.4837,-2.5631,-2.6596,-2.6351,-2.7023,-2.8086,-2.7846,-2.8266,-2.8984,-2.9104,-2.9219,-2.9417,-2.9417,-2.9406,-2.9509,-2.9906,-3.0021,-3.0144,-3.0539,-3.07,-3.0774,-3.0791,-3.0818,-3.0828,-3.0794,-3.1444,-3.1874,-3.1016,-3.2566,-3.392,-3.3011,-3.3562,-3.3906,-3.3047,-3.2226,-3.1484,-3.0976,-3.1211,-3.1641,-3.2148,-3.25,-3.3008,-3.3867,-3.4414,-3.4844,-3.5195,-3.5703,-3.6016,-3.6016,-3.6016,-3.6016,-3.6016,-3.6016,-3.6016,-3.6016,-3.6016,-3.6016,-3.6016,-3.6016,-3.6016,-3.6016,-3.6016,-3.6016,-1.0616,-1.0663,-1.0711,-1.0424,-1.0616,0.0,-0.9917,-1.006,-1.0573,-1.1573,-1.213,-1.2795,-1.4013,-1.4341,-1.45,-1.4282,-1.4202,-1.3788,-1.2717,-1.2595,-1.2994,-1.4164,-1.6714,-1.8406,-1.8154,-2.042,-2.2038,-2.2339,-2.2395,-2.267,-2.3347,-2.4354,-2.5108,-2.5781,-2.6989,-2.7138,-2.6163,-2.6569,-2.6534,-2.6004,-2.4896,-2.4667,-2.5203,-2.3909,-2.3852,-2.4587,-2.4151,-2.4343,-2.4997,-2.4554,-2.5133,-2.6287,-2.6395,-2.6742,-2.7258,-2.7352,-2.7471,-2.7599,-2.7835,-2.7956,-2.8022,-2.8016,-2.8044,-2.8253,-2.9087,-2.9394,-2.9687,-3.0507,-3.0798,-3.0888,-3.0733,-3.0698,-3.0689,-3.0637,-3.1239,-3.1637,-3.0898,-3.207,-3.3047,-3.2226,-3.2773,-3.3125,-3.2344,-3.1562,-3.1055,-3.1055,-3.1719,-3.2266,-3.2461,-3.3086,-3.3867,-3.4766,-3.4844,-3.5156,-3.5937,-3.6016,-3.6016,-3.6016,-3.6016,-3.6016,-3.6016,-3.6016,-3.6016,-3.6016,-3.6016,-3.6016,-3.6016,-3.6016,-3.6016,-3.6016,-3.6016,-3.6016,-1.039,-1.0636,-1.0663,-1.0399,-1.1329,0.0,-1.0134,-1.0912,-1.1947,-1.2088,-1.2222,-1.2751,-1.3927,-1.3973,-1.4147,-1.4776,-1.4625,-1.4472,-1.4643,-1.5829,-1.6858,-1.7742,-1.9508,-2.0669,-2.0607,-2.0883,-2.1894,-2.3906,-2.5611,-2.6601,-2.6568,-2.679,-2.7593,-2.9015,-2.8769,-2.8702,-2.8838,-2.8022,-2.7174,-2.6168,-2.506,-2.4673,-2.4859,-2.4115,-2.3854,-2.4003,-2.4135,-2.432,-2.4479,-2.4757,-2.5324,-2.6005,-2.5504,-2.617,-2.7404,-2.6933,-2.7259,-2.79,-2.7972,-2.8033,-2.8076,-2.8094,-2.8099,-2.8264,-2.9193,-2.9471,-2.9697,-3.0607,-3.0894,-3.0888,-3.0733,-3.0698,-3.071,-3.07,-3.0829,-3.0933,-3.0853,-3.168,-3.2187,-3.1328,-3.2383,-3.3125,-3.2344,-3.207,-3.1953,-3.1953,-3.2109,-3.2695,-3.4023,-3.4336,-3.4766,-3.5664,-3.5742,-3.582,-3.5976,-3.6016,-3.6016,-3.6016,-3.6016,-3.6016,-3.6016,-3.6016,-3.6016,-3.6016,-3.6016,-3.6016,-3.6016,-3.6016,-3.6016,-3.6016,-3.6016,-3.6016,0.0,0.0,0.0,-1.0439,0.0,0.0,0.0,-1.2141,-1.3311,-1.3914,-1.4069,-1.4468,-1.5452,-1.6114,-1.6605,-1.6808,-1.7082,-1.7853,-1.9205,-1.8397,-1.7978,-1.9018,-2.0623,-2.1578,-2.1384,-2.2258,-2.3525,-2.519,-2.6273,-2.7308,-2.8175,-2.8247,-2.8734,-2.9839,-2.9719,-2.9241,-2.8455,-2.8446,-2.7664,-2.6104,-2.5443,-2.5129,-2.5091,-2.4396,-2.417,-2.4307,-2.4572,-2.4723,-2.4737,-2.5106,-2.547,-2.5691,-2.5329,-2.5658,-2.6424,-2.6128,-2.6303,-2.6736,-2.6743,-2.6794,-2.6843,-2.6837,-2.6868,-2.7066,-2.7979,-2.8546,-2.9085,-2.9995,-3.0234,-3.031,-3.0624,-3.0711,-3.0698,-3.066,-3.066,-3.0662,-3.0743,-3.1109,-3.127,-3.0898,-3.1484,-3.1953,-3.1601,-3.1562,-3.1719,-3.2148,-3.2539,-3.3242,-3.4531,-3.5078,-3.5351,-3.5351,-3.5742,-3.582,-3.5391,-3.5742,-3.6016,-3.6016,-3.6016,-3.6016,-3.6016,-3.6016,-3.6016,-3.6016,-3.6016,-3.6211,-3.6641,-3.6641,-3.6406,-3.6016,-3.6016,-3.5999,0.0,0.0,0.0,0.0,0.0,-1.2986,0.0,0.0,0.0,-1.5707,-1.5955,-1.6211,-1.7418,-1.854,-1.9224,-1.9314,-2.0099,-2.1362,-2.3271,-2.0748,-1.915,-2.0338,-2.1693,-2.2403,-2.2148,-2.3967,-2.5523,-2.6306,-2.6627,-2.7511,-2.9268,-2.9215,-2.9416,-2.9839,-3.0049,-2.9278,-2.746,-2.8147,-2.7592,-2.5879,-2.5649,-2.5454,-2.529,-2.4725,-2.4603,-2.4915,-2.5082,-2.5194,-2.5187,-2.5416,-2.5484,-2.5476,-2.5389,-2.539,-2.5428,-2.5407,-2.5466,-2.5534,-2.5518,-2.5557,-2.56,-2.56,-2.5772,-2.608,-2.6782,-2.757,-2.8435,-2.9336,-2.9453,-2.9531,-3.0469,-3.0468,-3.0289,-3.0568,-3.0506,-3.0429,-3.0621,-3.0646,-3.0652,-3.0713,-3.0739,-3.0781,-3.0898,-3.0898,-3.1211,-3.207,-3.2891,-3.3633,-3.4375,-3.5195,-3.543,-3.4531,-3.5234,-3.5469,-3.4766,-3.5508,-3.6016,-3.6016,-3.6016,-3.6016,-3.6016,-3.6016,-3.6094,-3.625,-3.625,-3.668,-3.7539,-3.7528,-3.7177,-3.6484,-3.6472,-3.6423,0.0,0.0,0.0,0.0,-1.2416,0.0,0.0,0.0,-1.6229,-1.6098,0.0,-1.6368,-1.8708,0.0,0.0,-2.1733,-2.2013,-2.235,-2.3738,-2.3144,-2.3238,-2.4724,-2.4625,-2.4478,-2.4412,-2.5644,-2.6763,-2.736,-2.8552,-2.9622,-3.0633,-3.0387,-3.0336,-3.052,-2.9638,-2.8767,-2.7917,-2.6979,-2.6184,-2.5465,-2.5066,-2.4955,-2.5032,-2.5031,-2.5132,-2.5339,-2.5437,-2.5451,-2.5463,-2.5405,-2.5425,-2.5418,-2.5468,-2.5466,-2.5495,-2.5493,-2.5529,-2.5592,-2.5582,-2.5651,-2.5698,-2.5698,-2.6165,-2.6773,-2.6889,-2.7492,-2.831,-2.9255,-2.8945,-2.8711,-3.0273,-2.9608,-2.887,-3.0346,-3.0148,-2.9867,-3.0698,-3.0887,-3.0882,-3.0876,-3.0896,-3.0898,-3.0898,-3.0898,-3.1211,-3.207,-3.2891,-3.3437,-3.3516,-3.4297,-3.4492,-3.3633,-3.4336,-3.4805,-3.4726,-3.5508,-3.6016,-3.6016,-3.6016,-3.6016,-3.6016,-3.6016,-3.6367,-3.7148,-3.7148,-3.7578,-3.8437,-3.8325,-3.8296,-3.8281,-3.819,-3.8113,0.0,0.0,0.0,0.0,0.0,0.0,-1.4374,0.0,-1.706,0.0,0.0,0.0,0.0,0.0,0.0,0.0,-2.3304,-2.4363,-2.4831,-2.4503,-2.4077,-2.3824,0.0,0.0,-2.5355,-2.6596,-2.7523,-2.7837,-2.8521,-2.9287,-3.0165,-2.9827,-2.9603,-2.9668,-2.8631,-2.771,-2.6959,-2.6368,-2.5772,-2.5181,-2.5026,-2.5057,-2.5231,-2.5286,-2.537,-2.5459,-2.5532,-2.555,-2.5497,-2.5496,-2.549,-2.5463,-2.5478,-2.5492,-2.5505,-2.5553,-2.5566,-2.5615,-2.5615,-2.5607,-2.5593,-2.5593,-2.5809,-2.6079,-2.6101,-2.6331,-2.6776,-2.7711,-2.7741,-2.7734,-2.8984,-2.8789,-2.8435,-2.9156,-2.9406,-2.9601,-2.999,-3.0432,-3.0741,-3.0772,-3.0771,-3.0798,-3.0897,-3.0898,-3.1211,-3.207,-3.25,-3.2851,-3.3359,-3.3711,-3.3633,-3.2773,-3.3906,-3.4492,-3.3984,-3.5195,-3.6016,-3.6016,-3.6484,-3.6758,-3.6758,-3.7226,-3.7404,-3.725,-3.7683,-3.8089,-3.8419,-3.8887,-3.9363,-3.9868,-3.881,-3.8054,-1.1012,0.0,0.0,0.0,0.0,0.0,0.0,0.0,0.0,0.0,0.0,0.0,0.0,0.0,-2.3095,-2.3267,0.0,-2.5394,-2.535,-2.5078,-2.4506,-2.3536,0.0,0.0,0.0,-2.6833,-2.7506,-2.7819,-2.7942,-2.8289,-2.9098,-2.8768,-2.8467,-2.8227,-2.7441,-2.6663,-2.5893,-2.5759,-2.5511,-2.5088,-2.5168,-2.5264,-2.539,-2.5505,-2.5528,-2.5544,-2.5589,-2.5577,-2.5548,-2.5569,-2.5543,-2.5466,-2.5466,-2.5463,-2.5463,-2.5537,-2.5586,-2.5558,-2.5572,-2.5545,-2.5505,-2.5505,-2.5505,-2.5486,-2.5484,-2.5466,-2.5659,-2.6612,-2.6715,-2.6815,-2.8007,-2.7969,-2.7773,-2.8476,-2.8906,-2.9297,-2.9766,-3.0294,-3.0691,-3.0762,-3.0732,-3.0768,-3.0813,-3.0891,-3.1092,-3.1691,-3.1998,-3.2285,-3.2617,-3.2851,-3.2812,-3.2266,-3.3461,-3.4176,-3.3746,-3.5057,-3.6005,-3.6277,-3.6862,-3.7331,-3.7565,-3.819,-3.8322,-3.7885,-3.8436,-3.8813,-3.8996,-3.9355,-3.984,-4.0385,-3.9182,-3.823,0.0,0.0,0.0,-1.3556,0.0,0.0,0.0,0.0,-1.916,0.0,0.0,0.0,0.0,-2.2669,-2.3061,-2.587,-2.551,0.0,0.0,-2.5009,-2.5258,-2.5657,-2.5704,0.0,0.0,-2.638,-2.6513,-2.7106,-2.6985,-2.7147,-2.7712,-2.7554,-2.7086,-2.6285,-2.6115,-2.5702,-2.5031,-2.5043,-2.5126,-2.5303,-2.538,-2.538,-2.539,-2.5543,-2.5592,-2.5582,-2.5665,-2.5655,-2.5611,-2.5515,-2.5466,-2.539,-2.539,-2.5399,-2.5416,-2.5496,-2.5498,-2.5502,-2.5511,-2.5505,-2.5515,-2.5515,-2.5476,-2.5399,-2.539,-2.539,-2.5582,-2.6535,-2.6227,-2.6072,-2.7842,-2.7031,-2.6406,-2.8945,-2.8945,-2.8789,-3.0508,-3.0859,-3.0898,-3.0898,-3.0912,-3.0859,-3.072,-3.0813,-3.0875,-3.0781,-3.1488,-3.1706,-3.0895,-3.1523,-3.207,-3.2187,-3.2881,-3.3673,-3.4507,-3.5262,-3.6073,-3.6907,-3.6985,-3.7374,-3.8237,-3.8276,-3.8704,-3.9513,-3.956,-3.9937,-4.0731,-3.986,-3.9422,-3.9461,-3.9384,-3.9345,0.0,0.0,-1.4667,-1.5399,0.0,0.0,0.0,0.0,0.0,0.0,0.0,0.0,0.0,-2.4673,-2.5531,-2.5413,-2.6128,-2.6136,0.0,-2.469,-2.5265,-2.6091,-2.6198,-2.6092,0.0,0.0,-2.6376,-2.6219,-2.6248,-2.6417,-2.6742,-2.6481,-2.6209,-2.6076,-2.5612,-2.5222,-2.4991,-2.516,-2.5301,-2.539,-2.5466,-2.5543,-2.5553,-2.5629,-2.5658,-2.5662,-2.5699,-2.5658,-2.5609,-2.56,-2.5505,-2.539,-2.539,-2.539,-2.5361,-2.5443,-2.5468,-2.5421,-2.538,-2.539,-2.539,-2.539,-2.5341,-2.5341,-2.5341,-2.5351,-2.5466,-2.5846,-2.618,-2.6605,-2.7255,-2.7422,-2.7656,-2.8516,-2.8945,-2.9336,-2.9922,-3.0508,-3.0898,-3.0898,-3.0845,-3.0753,-3.0689,-3.0704,-3.0692,-3.0645,-3.0868,-3.097,-3.0676,-3.1409,-3.1967,-3.2006,-3.3269,-3.4206,-3.4532,-3.5251,-3.6057,-3.696,-3.6999,-3.7385,-3.8259,-3.8298,-3.8414,-3.8658,-3.921,-3.9576,-3.9831,-4.0023,-3.9869,-3.933,-3.933,-3.9022,-1.4534,-1.535,0.0,-1.6968,-1.837,0.0,-2.0801,0.0,-2.1805,0.0,0.0,0.0,0.0,0.0,-2.6505,-2.5599,-2.6324,-2.6549,0.0,-2.5273,-2.5719,-2.6504,-2.6344,-2.6162,-2.5892,-2.5904,-2.5825,-2.5394,-2.541,-2.5539,0.0,-2.5517,-2.5499,-2.5617,-2.5284,-2.5099,-2.5099,-2.5311,-2.539,-2.539,-2.5543,-2.5582,-2.5601,-2.5665,-2.5703,-2.5703,-2.5703,-2.5664,-2.5585,-2.5601,-2.5553,-2.5429,-2.5418,-2.539,-2.5341,-2.5428,-2.539,-2.5351,-2.5303,-2.5303,-2.5303,-2.5303,-2.5303,-2.5303,-2.5303,-2.5341,-2.5484,-2.584,-2.6401,-2.6996,-2.7379,-2.7891,-2.8398,-2.8672,-2.918,-2.9687,-3.0,-3.0508,-3.0898,-3.0898,-3.0801,-3.0698,-3.066,-3.0621,-3.0574,-3.0543,-3.0549,-3.0698,-3.1006,-3.1535,-3.2124,-3.2773,-3.3799,-3.4554,-3.4839,-3.5339,-3.5993,-3.6839,-3.7185,-3.7762,-3.8623,-3.8945,-3.9061,-3.9022,-3.9253,-3.9484,-3.9738,-3.9354,-3.9046,-3.8815,-3.8507,-3.8155]}]]